Wetterdaten: aktuell Mittwoch, 18.09.2019 19:54
Datum Zeit Temp. 2m Temp. 5cm Feuchte 2m Luftdruck Regen Wind Richtung Richtung Sonnenschein ET UV Solar Taupunkt Windchill Windben Empfang
18.09.2019 19:54 11,7 C 7,8 C 40 % 1023,9 hPa 0,0 l/m 3,2 km/h (1 Bft) W-NW 292 0 min 0,000 mm 0,0 UV-I 0 W/m -1,4 C 11,7 C 4,8 km/h (1 Bft) 100,00 %
18.09.2019 19:53 11,7 C 7,2 C 40 % 1024,0 hPa 0,0 l/m 4,8 km/h (1 Bft) W 270 0 min 0,000 mm 0,0 UV-I 0 W/m -1,4 C 11,7 C 6,4 km/h (2 Bft) 95,65 %
18.09.2019 19:52 11,7 C 7,2 C 39 % 1023,9 hPa 0,0 l/m 4,8 km/h (1 Bft) W 270 0 min 0,000 mm 0,0 UV-I 0 W/m -1,8 C 11,7 C 9,7 km/h (2 Bft) 100,00 %
18.09.2019 19:51 11,7 C 7,8 C 39 % 1024,0 hPa 0,0 l/m 4,8 km/h (1 Bft) W 270 0 min 0,000 mm 0,0 UV-I 0 W/m -1,8 C 11,7 C 6,4 km/h (2 Bft) 100,00 %
18.09.2019 19:50 11,7 C 7,8 C 40 % 1023,9 hPa 0,0 l/m 3,2 km/h (1 Bft) W 270 0 min 0,000 mm 0,0 UV-I 0 W/m -1,4 C 11,7 C 4,8 km/h (1 Bft) 100,00 %
18.09.2019 19:49 11,8 C 7,8 C 39 % 1023,9 hPa 0,0 l/m 3,2 km/h (1 Bft) W 270 0 min 0,000 mm 0,0 UV-I 0 W/m -1,7 C 11,8 C 6,4 km/h (2 Bft) 100,00 %
18.09.2019 19:48 11,8 C 7,8 C 40 % 1023,8 hPa 0,0 l/m 1,6 km/h (1 Bft) W 270 0 min 0,000 mm 0,0 UV-I 0 W/m -1,3 C 11,8 C 4,8 km/h (1 Bft) 100,00 %
18.09.2019 19:47 11,8 C 7,8 C 40 % 1023,8 hPa 0,0 l/m 3,2 km/h (1 Bft) W 270 0 min 0,000 mm 0,0 UV-I 0 W/m -1,3 C 11,8 C 4,8 km/h (1 Bft) 100,00 %
18.09.2019 19:46 11,8 C 7,8 C 39 % 1023,8 hPa 0,0 l/m 3,2 km/h (1 Bft) W 270 0 min 0,000 mm 0,0 UV-I 0 W/m -1,7 C 11,8 C 4,8 km/h (1 Bft) 100,00 %
18.09.2019 19:45 11,9 C 7,8 C 39 % 1023,8 hPa 0,0 l/m 4,8 km/h (1 Bft) NW 315 0 min 0,000 mm 0,0 UV-I 0 W/m -1,6 C 11,9 C 6,4 km/h (2 Bft) 100,00 %
18.09.2019 19:44 11,9 C 7,8 C 39 % 1023,8 hPa 0,0 l/m 3,2 km/h (1 Bft) W 270 0 min 0,000 mm 0,0 UV-I 0 W/m -1,6 C 11,9 C 6,4 km/h (2 Bft) 100,00 %
18.09.2019 19:43 11,9 C 7,8 C 39 % 1023,8 hPa 0,0 l/m 4,8 km/h (1 Bft) W 270 0 min 0,000 mm 0,0 UV-I 0 W/m -1,6 C 11,9 C 9,7 km/h (2 Bft) 95,65 %
18.09.2019 19:42 11,9 C 7,8 C 39 % 1023,8 hPa 0,0 l/m 4,8 km/h (1 Bft) W 270 0 min 0,000 mm 0,0 UV-I 0 W/m -1,6 C 11,9 C 9,7 km/h (2 Bft) 95,65 %
18.09.2019 19:41 11,9 C 7,8 C 39 % 1023,8 hPa 0,0 l/m 3,2 km/h (1 Bft) W 270 0 min 0,000 mm 0,0 UV-I 0 W/m -1,6 C 11,9 C 4,8 km/h (1 Bft) 100,00 %
18.09.2019 19:40 12,0 C 7,8 C 39 % 1023,8 hPa 0,0 l/m 4,8 km/h (1 Bft) W 270 0 min 0,000 mm 0,0 UV-I 0 W/m -1,5 C 12,0 C 6,4 km/h (2 Bft) 100,00 %
18.09.2019 19:39 12,0 C 8,3 C 39 % 1023,8 hPa 0,0 l/m 4,8 km/h (1 Bft) W-SW 247 0 min 0,000 mm 0,0 UV-I 0 W/m -1,5 C 12,0 C 8,0 km/h (2 Bft) 100,00 %
18.09.2019 19:38 12,0 C 8,3 C 39 % 1023,9 hPa 0,0 l/m 4,8 km/h (1 Bft) W-NW 292 0 min 0,000 mm 0,0 UV-I 0 W/m -1,5 C 12,0 C 9,7 km/h (2 Bft) 100,00 %
18.09.2019 19:37 12,0 C 8,3 C 39 % 1023,8 hPa 0,0 l/m 3,2 km/h (1 Bft) W 270 0 min 0,000 mm 0,0 UV-I 0 W/m -1,5 C 12,0 C 6,4 km/h (2 Bft) 100,00 %
18.09.2019 19:36 12,1 C 8,3 C 39 % 1023,8 hPa 0,0 l/m 4,8 km/h (1 Bft) W-NW 292 0 min 0,000 mm 0,0 UV-I 0 W/m -1,4 C 12,1 C 9,7 km/h (2 Bft) 100,00 %
18.09.2019 19:35 12,1 C 8,3 C 38 % 1023,8 hPa 0,0 l/m 6,4 km/h (2 Bft) W-SW 247 0 min 0,000 mm 0,0 UV-I 0 W/m -1,8 C 12,1 C 11,3 km/h (2 Bft) 95,65 %
18.09.2019 19:34 12,1 C 8,3 C 39 % 1023,8 hPa 0,0 l/m 3,2 km/h (1 Bft) W 270 0 min 0,000 mm 0,0 UV-I 0 W/m -1,4 C 12,1 C 4,8 km/h (1 Bft) 100,00 %
18.09.2019 19:33 12,1 C 7,8 C 39 % 1023,8 hPa 0,0 l/m 4,8 km/h (1 Bft) W-SW 247 0 min 0,000 mm 0,0 UV-I 0 W/m -1,4 C 12,1 C 6,4 km/h (2 Bft) 86,96 %
18.09.2019 19:32 12,1 C 8,3 C 39 % 1023,8 hPa 0,0 l/m 3,2 km/h (1 Bft) W-SW 247 0 min 0,000 mm 0,0 UV-I 0 W/m -1,4 C 12,1 C 6,4 km/h (2 Bft) 100,00 %
18.09.2019 19:31 12,1 C 8,3 C 38 % 1023,8 hPa 0,0 l/m 4,8 km/h (1 Bft) W 270 0 min 0,000 mm 0,0 UV-I 0 W/m -1,8 C 12,1 C 9,7 km/h (2 Bft) 91,30 %
18.09.2019 19:30 12,2 C 8,3 C 38 % 1023,8 hPa 0,0 l/m 3,2 km/h (1 Bft) W 270 0 min 0,000 mm 0,0 UV-I 0 W/m -1,7 C 12,2 C 6,4 km/h (2 Bft) 100,00 %
18.09.2019 19:29 12,2 C 8,3 C 38 % 1023,7 hPa 0,0 l/m 4,8 km/h (1 Bft) W 270 0 min 0,000 mm 0,0 UV-I 0 W/m -1,7 C 12,2 C 9,7 km/h (2 Bft) 100,00 %
18.09.2019 19:28 12,2 C 8,3 C 38 % 1023,8 hPa 0,0 l/m 3,2 km/h (1 Bft) W-NW 292 0 min 0,000 mm 0,0 UV-I 0 W/m -1,7 C 12,2 C 6,4 km/h (2 Bft) 95,65 %
18.09.2019 19:27 12,2 C 8,3 C 38 % 1023,7 hPa 0,0 l/m 4,8 km/h (1 Bft) W 270 0 min 0,000 mm 0,0 UV-I 0 W/m -1,7 C 12,2 C 6,4 km/h (2 Bft) 100,00 %
18.09.2019 19:26 12,2 C 8,3 C 38 % 1023,7 hPa 0,0 l/m 6,4 km/h (2 Bft) W-NW 292 0 min 0,000 mm 0,0 UV-I 0 W/m -1,7 C 12,2 C 11,3 km/h (2 Bft) 100,00 %
18.09.2019 19:25 12,3 C 8,3 C 38 % 1023,7 hPa 0,0 l/m 4,8 km/h (1 Bft) W-NW 292 0 min 0,000 mm 0,0 UV-I 0 W/m -1,6 C 12,3 C 9,7 km/h (2 Bft) 100,00 %
18.09.2019 19:24 12,2 C 7,8 C 38 % 1023,7 hPa 0,0 l/m 6,4 km/h (2 Bft) W-NW 292 0 min 0,000 mm 0,0 UV-I 0 W/m -1,7 C 12,2 C 12,9 km/h (3 Bft) 100,00 %
18.09.2019 19:23 12,2 C 7,8 C 38 % 1023,7 hPa 0,0 l/m 3,2 km/h (1 Bft) W-NW 292 0 min 0,000 mm 0,0 UV-I 0 W/m -1,7 C 12,2 C 8,0 km/h (2 Bft) 100,00 %
18.09.2019 19:22 12,2 C 7,8 C 38 % 1023,7 hPa 0,0 l/m 4,8 km/h (1 Bft) W 270 0 min 0,000 mm 0,0 UV-I 0 W/m -1,7 C 12,2 C 9,7 km/h (2 Bft) 100,00 %
18.09.2019 19:21 12,2 C 7,8 C 39 % 1023,7 hPa 0,0 l/m 4,8 km/h (1 Bft) W 270 0 min 0,000 mm 0,0 UV-I 0 W/m -1,3 C 12,2 C 9,7 km/h (2 Bft) 100,00 %
18.09.2019 19:20 12,2 C 7,8 C 38 % 1023,7 hPa 0,0 l/m 3,2 km/h (1 Bft) W 270 0 min 0,000 mm 0,0 UV-I 0 W/m -1,7 C 12,2 C 6,4 km/h (2 Bft) 100,00 %
18.09.2019 19:19 12,3 C 7,8 C 38 % 1023,7 hPa 0,0 l/m 4,8 km/h (1 Bft) W-NW 292 0 min 0,000 mm 0,0 UV-I 0 W/m -1,6 C 12,3 C 8,0 km/h (2 Bft) 100,00 %
18.09.2019 19:18 12,3 C 7,8 C 38 % 1023,7 hPa 0,0 l/m 3,2 km/h (1 Bft) W 270 0 min 0,000 mm 0,0 UV-I 0 W/m -1,6 C 12,3 C 4,8 km/h (1 Bft) 100,00 %
18.09.2019 19:17 12,3 C 8,3 C 38 % 1023,7 hPa 0,0 l/m 3,2 km/h (1 Bft) W 270 0 min 0,000 mm 0,0 UV-I 0 W/m -1,6 C 12,3 C 6,4 km/h (2 Bft) 100,00 %
18.09.2019 19:16 12,3 C 8,3 C 39 % 1023,7 hPa 0,0 l/m 4,8 km/h (1 Bft) W 270 0 min 0,000 mm 0,0 UV-I 0 W/m -1,2 C 12,3 C 6,4 km/h (2 Bft) 100,00 %
18.09.2019 19:15 12,3 C 8,3 C 38 % 1023,6 hPa 0,0 l/m 4,8 km/h (1 Bft) W 270 0 min 0,000 mm 0,0 UV-I 0 W/m -1,6 C 12,3 C 4,8 km/h (1 Bft) 95,65 %
18.09.2019 19:14 12,3 C 8,3 C 39 % 1023,6 hPa 0,0 l/m 3,2 km/h (1 Bft) W 270 0 min 0,000 mm 0,0 UV-I 0 W/m -1,2 C 12,3 C 8,0 km/h (2 Bft) 95,65 %
18.09.2019 19:13 12,3 C 8,3 C 39 % 1023,6 hPa 0,0 l/m 1,6 km/h (1 Bft) W 270 0 min 0,000 mm 0,0 UV-I 0 W/m -1,2 C 12,3 C 3,2 km/h (1 Bft) 100,00 %
18.09.2019 19:12 12,4 C 8,3 C 39 % 1023,6 hPa 0,0 l/m 3,2 km/h (1 Bft) W 270 0 min 0,000 mm 0,0 UV-I 5 W/m -1,2 C 12,4 C 3,2 km/h (1 Bft) 95,65 %
18.09.2019 19:11 12,4 C 8,3 C 39 % 1023,6 hPa 0,0 l/m 4,8 km/h (1 Bft) W 270 0 min 0,000 mm 0,0 UV-I 5 W/m -1,2 C 12,4 C 9,7 km/h (2 Bft) 100,00 %
18.09.2019 19:10 12,3 C 8,3 C 39 % 1023,6 hPa 0,0 l/m 3,2 km/h (1 Bft) W-SW 247 0 min 0,000 mm 0,0 UV-I 5 W/m -1,2 C 12,3 C 3,2 km/h (1 Bft) 100,00 %
18.09.2019 19:09 12,3 C 8,3 C 39 % 1023,6 hPa 0,0 l/m 4,8 km/h (1 Bft) W 270 0 min 0,000 mm 0,0 UV-I 5 W/m -1,2 C 12,3 C 9,7 km/h (2 Bft) 95,65 %
18.09.2019 19:08 12,3 C 8,3 C 40 % 1023,6 hPa 0,0 l/m 3,2 km/h (1 Bft) W-SW 247 0 min 0,000 mm 0,0 UV-I 5 W/m -0,9 C 12,3 C 6,4 km/h (2 Bft) 100,00 %
18.09.2019 19:07 12,3 C 8,3 C 40 % 1023,6 hPa 0,0 l/m 3,2 km/h (1 Bft) W-SW 247 0 min 0,000 mm 0,0 UV-I 7 W/m -0,9 C 12,3 C 4,8 km/h (1 Bft) 95,65 %
18.09.2019 19:06 12,3 C 8,9 C 41 % 1023,6 hPa 0,0 l/m 3,2 km/h (1 Bft) W-SW 247 0 min 0,000 mm 0,0 UV-I 7 W/m -0,6 C 12,3 C 4,8 km/h (1 Bft) 100,00 %
18.09.2019 19:05 12,4 C 8,9 C 41 % 1023,6 hPa 0,0 l/m 3,2 km/h (1 Bft) W-SW 247 0 min 0,000 mm 0,0 UV-I 7 W/m -0,5 C 12,4 C 6,4 km/h (2 Bft) 100,00 %
18.09.2019 19:04 12,4 C 8,9 C 41 % 1023,6 hPa 0,0 l/m 3,2 km/h (1 Bft) W-SW 247 0 min 0,000 mm 0,0 UV-I 9 W/m -0,5 C 12,4 C 4,8 km/h (1 Bft) 100,00 %
18.09.2019 19:03 12,4 C 8,9 C 41 % 1023,6 hPa 0,0 l/m 3,2 km/h (1 Bft) W-SW 247 0 min 0,000 mm 0,0 UV-I 9 W/m -0,5 C 12,4 C 3,2 km/h (1 Bft) 100,00 %
18.09.2019 19:02 12,4 C 8,9 C 41 % 1023,6 hPa 0,0 l/m 3,2 km/h (1 Bft) W 270 0 min 0,000 mm 0,0 UV-I 9 W/m -0,5 C 12,4 C 6,4 km/h (2 Bft) 100,00 %
18.09.2019 19:01 12,5 C 8,9 C 42 % 1023,6 hPa 0,0 l/m 1,6 km/h (1 Bft) W 270 0 min 0,000 mm 0,0 UV-I 11 W/m -0,1 C 12,5 C 4,8 km/h (1 Bft) 100,00 %
18.09.2019 19:00 12,6 C 8,9 C 41 % 1023,5 hPa 0,0 l/m 4,8 km/h (1 Bft) W-SW 247 0 min 0,051 mm 0,0 UV-I 11 W/m -0,3 C 12,6 C 9,7 km/h (2 Bft) 100,00 %
18.09.2019 18:59 12,6 C 8,9 C 41 % 1023,6 hPa 0,0 l/m 4,8 km/h (1 Bft) W-SW 247 0 min 0,000 mm 0,0 UV-I 11 W/m -0,3 C 12,6 C 8,0 km/h (2 Bft) 100,00 %
18.09.2019 18:58 12,6 C 9,4 C 41 % 1023,5 hPa 0,0 l/m 4,8 km/h (1 Bft) W-SW 247 0 min 0,000 mm 0,0 UV-I 11 W/m -0,3 C 12,6 C 8,0 km/h (2 Bft) 100,00 %
18.09.2019 18:57 12,7 C 9,4 C 41 % 1023,6 hPa 0,0 l/m 3,2 km/h (1 Bft) W-SW 247 0 min 0,000 mm 0,0 UV-I 11 W/m -0,2 C 12,7 C 4,8 km/h (1 Bft) 100,00 %
18.09.2019 18:56 12,7 C 9,4 C 41 % 1023,5 hPa 0,0 l/m 3,2 km/h (1 Bft) W-SW 247 0 min 0,000 mm 0,0 UV-I 12 W/m -0,2 C 12,7 C 4,8 km/h (1 Bft) 100,00 %
18.09.2019 18:55 12,7 C 9,4 C 40 % 1023,5 hPa 0,0 l/m 3,2 km/h (1 Bft) W 270 0 min 0,000 mm 0,0 UV-I 12 W/m -0,5 C 12,7 C 4,8 km/h (1 Bft) 100,00 %
18.09.2019 18:54 12,8 C 9,4 C 41 % 1023,5 hPa 0,0 l/m 3,2 km/h (1 Bft) W-SW 247 0 min 0,000 mm 0,0 UV-I 12 W/m -0,1 C 12,8 C 4,8 km/h (1 Bft) 95,65 %
18.09.2019 18:53 12,8 C 9,4 C 41 % 1023,5 hPa 0,0 l/m 3,2 km/h (1 Bft) W-SW 247 0 min 0,000 mm 0,0 UV-I 12 W/m -0,1 C 12,8 C 4,8 km/h (1 Bft) 100,00 %
18.09.2019 18:52 12,8 C 9,4 C 41 % 1023,6 hPa 0,0 l/m 3,2 km/h (1 Bft) W-SW 247 0 min 0,000 mm 0,0 UV-I 14 W/m -0,1 C 12,8 C 4,8 km/h (1 Bft) 100,00 %
18.09.2019 18:51 12,9 C 9,4 C 41 % 1023,6 hPa 0,0 l/m 4,8 km/h (1 Bft) W-SW 247 0 min 0,000 mm 0,0 UV-I 14 W/m -0,0 C 12,9 C 8,0 km/h (2 Bft) 100,00 %
18.09.2019 18:50 12,9 C 9,4 C 41 % 1023,6 hPa 0,0 l/m 3,2 km/h (1 Bft) W-SW 247 0 min 0,000 mm 0,0 UV-I 14 W/m -0,0 C 12,9 C 4,8 km/h (1 Bft) 100,00 %
18.09.2019 18:49 13,0 C 9,4 C 41 % 1023,5 hPa 0,0 l/m 3,2 km/h (1 Bft) W-SW 247 0 min 0,000 mm 0,0 UV-I 16 W/m 0,1 C 13,0 C 4,8 km/h (1 Bft) 100,00 %
18.09.2019 18:48 13,0 C 9,4 C 40 % 1023,5 hPa 0,0 l/m 3,2 km/h (1 Bft) W-SW 247 0 min 0,000 mm 0,0 UV-I 16 W/m -0,3 C 13,0 C 4,8 km/h (1 Bft) 100,00 %
18.09.2019 18:47 13,1 C 9,4 C 41 % 1023,4 hPa 0,0 l/m 3,2 km/h (1 Bft) W-SW 247 0 min 0,000 mm 0,0 UV-I 16 W/m 0,2 C 13,1 C 4,8 km/h (1 Bft) 100,00 %
18.09.2019 18:46 13,1 C 10,0 C 40 % 1023,5 hPa 0,0 l/m 3,2 km/h (1 Bft) W-SW 247 0 min 0,000 mm 0,0 UV-I 18 W/m -0,2 C 13,1 C 4,8 km/h (1 Bft) 100,00 %
18.09.2019 18:45 13,2 C 10,0 C 40 % 1023,4 hPa 0,0 l/m 3,2 km/h (1 Bft) W-SW 247 0 min 0,000 mm 0,0 UV-I 18 W/m -0,1 C 13,2 C 4,8 km/h (1 Bft) 95,65 %
18.09.2019 18:44 13,2 C 10,0 C 41 % 1023,4 hPa 0,0 l/m 3,2 km/h (1 Bft) W-SW 247 0 min 0,000 mm 0,0 UV-I 19 W/m 0,2 C 13,2 C 6,4 km/h (2 Bft) 100,00 %
18.09.2019 18:43 13,2 C 10,0 C 41 % 1023,5 hPa 0,0 l/m 3,2 km/h (1 Bft) W-SW 247 0 min 0,000 mm 0,0 UV-I 21 W/m 0,2 C 13,2 C 4,8 km/h (1 Bft) 95,65 %
18.09.2019 18:42 13,3 C 10,0 C 40 % 1023,5 hPa 0,0 l/m 3,2 km/h (1 Bft) W-SW 247 0 min 0,000 mm 0,0 UV-I 23 W/m -0,0 C 13,3 C 4,8 km/h (1 Bft) 100,00 %
18.09.2019 18:41 13,3 C 10,0 C 40 % 1023,4 hPa 0,0 l/m 3,2 km/h (1 Bft) W-SW 247 0 min 0,000 mm 0,0 UV-I 23 W/m -0,0 C 13,3 C 4,8 km/h (1 Bft) 100,00 %
18.09.2019 18:40 13,4 C 10,0 C 39 % 1023,4 hPa 0,0 l/m 3,2 km/h (1 Bft) W-SW 247 0 min 0,000 mm 0,0 UV-I 25 W/m -0,3 C 13,4 C 8,0 km/h (2 Bft) 100,00 %
18.09.2019 18:39 13,4 C 10,0 C 39 % 1023,4 hPa 0,0 l/m 4,8 km/h (1 Bft) W-SW 247 0 min 0,000 mm 0,0 UV-I 25 W/m -0,3 C 13,4 C 8,0 km/h (2 Bft) 91,30 %
18.09.2019 18:38 13,4 C 10,0 C 39 % 1023,5 hPa 0,0 l/m 3,2 km/h (1 Bft) W-SW 247 0 min 0,000 mm 0,0 UV-I 25 W/m -0,3 C 13,4 C 9,7 km/h (2 Bft) 100,00 %
18.09.2019 18:37 13,5 C 10,0 C 39 % 1023,4 hPa 0,0 l/m 3,2 km/h (1 Bft) W-SW 247 0 min 0,000 mm 0,0 UV-I 30 W/m -0,2 C 13,5 C 4,8 km/h (1 Bft) 95,65 %
18.09.2019 18:36 13,6 C 10,0 C 39 % 1023,4 hPa 0,0 l/m 3,2 km/h (1 Bft) W 270 0 min 0,000 mm 0,0 UV-I 32 W/m -0,1 C 13,6 C 6,4 km/h (2 Bft) 95,65 %
18.09.2019 18:35 13,6 C 10,0 C 39 % 1023,4 hPa 0,0 l/m 3,2 km/h (1 Bft) W-SW 247 0 min 0,000 mm 0,0 UV-I 33 W/m -0,1 C 13,6 C 6,4 km/h (2 Bft) 95,65 %
18.09.2019 18:34 13,6 C 10,6 C 39 % 1023,5 hPa 0,0 l/m 3,2 km/h (1 Bft) W 270 0 min 0,000 mm 0,0 UV-I 35 W/m -0,1 C 13,6 C 6,4 km/h (2 Bft) 95,65 %
18.09.2019 18:33 13,7 C 10,6 C 38 % 1023,4 hPa 0,0 l/m 4,8 km/h (1 Bft) W-SW 247 0 min 0,000 mm 0,0 UV-I 35 W/m -0,4 C 13,7 C 6,4 km/h (2 Bft) 91,30 %
18.09.2019 18:32 13,7 C 10,6 C 39 % 1023,4 hPa 0,0 l/m 3,2 km/h (1 Bft) W 270 0 min 0,000 mm 0,0 UV-I 39 W/m 0,0 C 13,7 C 9,7 km/h (2 Bft) 100,00 %
18.09.2019 18:31 13,7 C 10,6 C 37 % 1023,4 hPa 0,0 l/m 1,6 km/h (1 Bft) W 270 0 min 0,000 mm 0,0 UV-I 40 W/m -0,7 C 13,7 C 4,8 km/h (1 Bft) 95,65 %
18.09.2019 18:30 13,7 C 10,6 C 38 % 1023,4 hPa 0,0 l/m 3,2 km/h (1 Bft) W 270 0 min 0,000 mm 0,0 UV-I 42 W/m -0,4 C 13,7 C 6,4 km/h (2 Bft) 100,00 %
18.09.2019 18:29 13,7 C 10,6 C 37 % 1023,4 hPa 0,0 l/m 4,8 km/h (1 Bft) W-SW 247 0 min 0,000 mm 0,0 UV-I 42 W/m -0,7 C 13,7 C 6,4 km/h (2 Bft) 100,00 %
18.09.2019 18:28 13,7 C 10,6 C 39 % 1023,5 hPa 0,0 l/m 3,2 km/h (1 Bft) W 270 0 min 0,000 mm 0,0 UV-I 44 W/m 0,0 C 13,7 C 6,4 km/h (2 Bft) 91,30 %
18.09.2019 18:27 13,7 C 10,6 C 38 % 1023,4 hPa 0,0 l/m 1,6 km/h (1 Bft) W 270 0 min 0,000 mm 0,0 UV-I 47 W/m -0,4 C 13,7 C 1,6 km/h (1 Bft) 100,00 %
18.09.2019 18:26 13,8 C 10,6 C 37 % 1023,4 hPa 0,0 l/m 3,2 km/h (1 Bft) W 270 0 min 0,000 mm 0,0 UV-I 51 W/m -0,6 C 13,8 C 6,4 km/h (2 Bft) 100,00 %
18.09.2019 18:25 13,8 C 11,1 C 37 % 1023,4 hPa 0,0 l/m 3,2 km/h (1 Bft) W 270 0 min 0,000 mm 0,0 UV-I 53 W/m -0,6 C 13,8 C 4,8 km/h (1 Bft) 86,96 %
18.09.2019 18:24 13,8 C 11,1 C 36 % 1023,4 hPa 0,0 l/m 3,2 km/h (1 Bft) W-SW 247 0 min 0,000 mm 0,0 UV-I 54 W/m -1,0 C 13,8 C 4,8 km/h (1 Bft) 100,00 %
18.09.2019 18:23 13,8 C 11,1 C 37 % 1023,4 hPa 0,0 l/m 3,2 km/h (1 Bft) W-SW 247 0 min 0,000 mm 0,0 UV-I 56 W/m -0,6 C 13,8 C 4,8 km/h (1 Bft) 100,00 %
18.09.2019 18:22 13,8 C 11,1 C 37 % 1023,4 hPa 0,0 l/m 1,6 km/h (1 Bft) W 270 0 min 0,000 mm 0,0 UV-I 58 W/m -0,6 C 13,8 C 3,2 km/h (1 Bft) 100,00 %
18.09.2019 18:21 13,9 C 11,1 C 36 % 1023,4 hPa 0,0 l/m 3,2 km/h (1 Bft) W 270 0 min 0,000 mm 0,0 UV-I 60 W/m -0,9 C 13,9 C 4,8 km/h (1 Bft) 100,00 %
18.09.2019 18:20 13,9 C 11,1 C 37 % 1023,4 hPa 0,0 l/m 3,2 km/h (1 Bft) W 270 0 min 0,000 mm 0,0 UV-I 60 W/m -0,5 C 13,9 C 4,8 km/h (1 Bft) 100,00 %
18.09.2019 18:19 13,9 C 11,1 C 36 % 1023,4 hPa 0,0 l/m 3,2 km/h (1 Bft) W 270 0 min 0,000 mm 0,0 UV-I 67 W/m -0,9 C 13,9 C 4,8 km/h (1 Bft) 100,00 %
18.09.2019 18:18 13,9 C 11,1 C 36 % 1023,4 hPa 0,0 l/m 3,2 km/h (1 Bft) W 270 0 min 0,000 mm 0,0 UV-I 69 W/m -0,9 C 13,9 C 4,8 km/h (1 Bft) 91,30 %
18.09.2019 18:17 14,0 C 11,1 C 35 % 1023,4 hPa 0,0 l/m 3,2 km/h (1 Bft) W 270 0 min 0,000 mm 0,0 UV-I 72 W/m -1,2 C 14,0 C 4,8 km/h (1 Bft) 100,00 %
18.09.2019 18:16 14,0 C 11,1 C 35 % 1023,4 hPa 0,0 l/m 3,2 km/h (1 Bft) W-SW 247 0 min 0,000 mm 0,0 UV-I 72 W/m -1,2 C 14,0 C 6,4 km/h (2 Bft) 95,65 %
18.09.2019 18:15 14,0 C 11,7 C 36 % 1023,3 hPa 0,0 l/m 1,6 km/h (1 Bft) W 270 0 min 0,000 mm 0,0 UV-I 72 W/m -0,8 C 14,0 C 3,2 km/h (1 Bft) 100,00 %
18.09.2019 18:14 14,1 C 11,7 C 35 % 1023,3 hPa 0,0 l/m 1,6 km/h (1 Bft) W 270 0 min 0,000 mm 0,0 UV-I 76 W/m -1,1 C 14,1 C 4,8 km/h (1 Bft) 91,30 %
18.09.2019 18:13 14,1 C 11,7 C 34 % 1023,4 hPa 0,0 l/m 3,2 km/h (1 Bft) W 270 0 min 0,000 mm 0,0 UV-I 83 W/m -1,5 C 14,1 C 3,2 km/h (1 Bft) 100,00 %
18.09.2019 18:12 14,1 C 11,7 C 34 % 1023,4 hPa 0,0 l/m 3,2 km/h (1 Bft) W 270 0 min 0,000 mm 0,0 UV-I 81 W/m -1,5 C 14,1 C 4,8 km/h (1 Bft) 100,00 %
18.09.2019 18:11 14,1 C 11,7 C 33 % 1023,3 hPa 0,0 l/m 3,2 km/h (1 Bft) W-SW 247 0 min 0,000 mm 0,0 UV-I 84 W/m -1,9 C 14,1 C 6,4 km/h (2 Bft) 100,00 %
18.09.2019 18:10 14,2 C 11,7 C 33 % 1023,3 hPa 0,0 l/m 4,8 km/h (1 Bft) W 270 0 min 0,000 mm 0,0 UV-I 84 W/m -1,8 C 14,2 C 9,7 km/h (2 Bft) 100,00 %
18.09.2019 18:09 14,2 C 11,7 C 34 % 1023,3 hPa 0,0 l/m 3,2 km/h (1 Bft) W-SW 247 0 min 0,000 mm 0,0 UV-I 83 W/m -1,4 C 14,2 C 4,8 km/h (1 Bft) 100,00 %
18.09.2019 18:08 14,2 C 11,7 C 34 % 1023,4 hPa 0,0 l/m 4,8 km/h (1 Bft) W-SW 247 0 min 0,000 mm 0,0 UV-I 95 W/m -1,4 C 14,2 C 6,4 km/h (2 Bft) 100,00 %
18.09.2019 18:07 14,2 C 11,7 C 34 % 1023,3 hPa 0,0 l/m 6,4 km/h (2 Bft) W-SW 247 0 min 0,000 mm 0,0 UV-I 93 W/m -1,4 C 14,2 C 11,3 km/h (2 Bft) 91,30 %
18.09.2019 18:06 14,2 C 11,7 C 34 % 1023,3 hPa 0,0 l/m 4,8 km/h (1 Bft) W 270 0 min 0,000 mm 0,0 UV-I 100 W/m -1,4 C 14,2 C 8,0 km/h (2 Bft) 100,00 %
18.09.2019 18:05 14,2 C 12,2 C 34 % 1023,2 hPa 0,0 l/m 4,8 km/h (1 Bft) W 270 0 min 0,000 mm 0,0 UV-I 104 W/m -1,4 C 14,2 C 6,4 km/h (2 Bft) 100,00 %
18.09.2019 18:04 14,2 C 12,2 C 33 % 1023,3 hPa 0,0 l/m 3,2 km/h (1 Bft) W-SW 247 0 min 0,000 mm 0,0 UV-I 105 W/m -1,8 C 14,2 C 4,8 km/h (1 Bft) 100,00 %
18.09.2019 18:03 14,3 C 12,2 C 33 % 1023,3 hPa 0,0 l/m 1,6 km/h (1 Bft) W-SW 247 0 min 0,000 mm 0,0 UV-I 109 W/m -1,7 C 14,3 C 3,2 km/h (1 Bft) 100,00 %
18.09.2019 18:02 14,3 C 12,2 C 32 % 1023,4 hPa 0,0 l/m 3,2 km/h (1 Bft) W-SW 247 0 min 0,000 mm 0,0 UV-I 114 W/m -2,2 C 14,3 C 4,8 km/h (1 Bft) 100,00 %
18.09.2019 18:01 14,3 C 12,2 C 32 % 1023,3 hPa 0,0 l/m 4,8 km/h (1 Bft) W 270 0 min 0,000 mm 0,0 UV-I 118 W/m -2,2 C 14,3 C 6,4 km/h (2 Bft) 100,00 %
18.09.2019 18:00 14,3 C 12,2 C 32 % 1023,3 hPa 0,0 l/m 4,8 km/h (1 Bft) W 270 0 min 0,152 mm 0,0 UV-I 102 W/m -2,2 C 14,3 C 6,4 km/h (2 Bft) 100,00 %
18.09.2019 17:59 14,3 C 12,2 C 32 % 1023,3 hPa 0,0 l/m 1,6 km/h (1 Bft) W 270 0 min 0,000 mm 0,0 UV-I 121 W/m -2,2 C 14,3 C 4,8 km/h (1 Bft) 100,00 %
18.09.2019 17:58 14,3 C 12,2 C 31 % 1023,3 hPa 0,0 l/m 3,2 km/h (1 Bft) W 270 0 min 0,000 mm 0,0 UV-I 125 W/m -2,6 C 14,3 C 6,4 km/h (2 Bft) 95,65 %
18.09.2019 17:57 14,3 C 12,2 C 31 % 1023,3 hPa 0,0 l/m 4,8 km/h (1 Bft) W-NW 292 0 min 0,000 mm 0,0 UV-I 125 W/m -2,6 C 14,3 C 12,9 km/h (3 Bft) 100,00 %
18.09.2019 17:56 14,4 C 12,8 C 32 % 1023,3 hPa 0,0 l/m 4,8 km/h (1 Bft) W-NW 292 0 min 0,000 mm 0,0 UV-I 132 W/m -2,1 C 14,4 C 8,0 km/h (2 Bft) 86,96 %
18.09.2019 17:55 14,4 C 12,8 C 31 % 1023,3 hPa 0,0 l/m 4,8 km/h (1 Bft) W 270 0 min 0,000 mm 0,0 UV-I 134 W/m -2,5 C 14,4 C 9,7 km/h (2 Bft) 100,00 %
18.09.2019 17:54 14,4 C 12,8 C 30 % 1023,3 hPa 0,0 l/m 6,4 km/h (2 Bft) W 270 0 min 0,000 mm 0,0 UV-I 137 W/m -2,9 C 14,4 C 11,3 km/h (2 Bft) 95,65 %
18.09.2019 17:53 14,4 C 12,8 C 31 % 1023,3 hPa 0,0 l/m 6,4 km/h (2 Bft) W 270 0 min 0,000 mm 0,0 UV-I 139 W/m -2,5 C 14,4 C 9,7 km/h (2 Bft) 95,65 %
18.09.2019 17:52 14,5 C 12,8 C 30 % 1023,3 hPa 0,0 l/m 4,8 km/h (1 Bft) W-SW 247 0 min 0,000 mm 0,0 UV-I 142 W/m -2,9 C 14,5 C 11,3 km/h (2 Bft) 100,00 %
18.09.2019 17:51 14,5 C 12,8 C 31 % 1023,4 hPa 0,0 l/m 3,2 km/h (1 Bft) W 270 0 min 0,000 mm 0,0 UV-I 148 W/m -2,4 C 14,5 C 4,8 km/h (1 Bft) 95,65 %
18.09.2019 17:50 14,5 C 12,8 C 31 % 1023,3 hPa 0,0 l/m 6,4 km/h (2 Bft) W-SW 247 0 min 0,000 mm 0,0 UV-I 149 W/m -2,4 C 14,5 C 12,9 km/h (3 Bft) 100,00 %
18.09.2019 17:49 14,6 C 12,8 C 31 % 1023,4 hPa 0,0 l/m 4,8 km/h (1 Bft) W-NW 292 1 min 0,000 mm 0,0 UV-I 153 W/m -2,3 C 14,6 C 8,0 km/h (2 Bft) 95,65 %
18.09.2019 17:48 14,6 C 12,8 C 30 % 1023,3 hPa 0,0 l/m 11,3 km/h (2 Bft) W-NW 292 1 min 0,000 mm 0,0 UV-I 155 W/m -2,8 C 12,1 C 14,5 km/h (3 Bft) 100,00 %
18.09.2019 17:47 14,6 C 12,8 C 31 % 1023,3 hPa 0,0 l/m 8,0 km/h (2 Bft) W-NW 292 1 min 0,000 mm 0,0 UV-I 158 W/m -2,3 C 13,7 C 12,9 km/h (3 Bft) 95,65 %
18.09.2019 17:46 14,7 C 12,8 C 32 % 1023,3 hPa 0,0 l/m 4,8 km/h (1 Bft) W-NW 292 1 min 0,000 mm 0,0 UV-I 160 W/m -1,8 C 14,7 C 11,3 km/h (2 Bft) 100,00 %
18.09.2019 17:45 14,6 C 12,8 C 31 % 1023,3 hPa 0,0 l/m 4,8 km/h (1 Bft) W-NW 292 1 min 0,000 mm 0,0 UV-I 165 W/m -2,3 C 14,6 C 6,4 km/h (2 Bft) 100,00 %
18.09.2019 17:44 14,6 C 12,8 C 31 % 1023,3 hPa 0,0 l/m 3,2 km/h (1 Bft) W 270 1 min 0,000 mm 0,0 UV-I 167 W/m -2,3 C 14,6 C 4,8 km/h (1 Bft) 100,00 %
18.09.2019 17:43 14,6 C 12,8 C 31 % 1023,3 hPa 0,0 l/m 3,2 km/h (1 Bft) W 270 1 min 0,000 mm 0,0 UV-I 171 W/m -2,3 C 14,6 C 6,4 km/h (2 Bft) 100,00 %
18.09.2019 17:42 14,6 C 13,3 C 31 % 1023,2 hPa 0,0 l/m 3,2 km/h (1 Bft) W-NW 292 1 min 0,000 mm 0,0 UV-I 174 W/m -2,3 C 14,6 C 6,4 km/h (2 Bft) 100,00 %
18.09.2019 17:41 14,6 C 13,3 C 30 % 1023,3 hPa 0,0 l/m 4,8 km/h (1 Bft) W-NW 292 1 min 0,000 mm 0,0 UV-I 176 W/m -2,8 C 14,6 C 11,3 km/h (2 Bft) 100,00 %
18.09.2019 17:40 14,6 C 13,3 C 29 % 1023,3 hPa 0,0 l/m 4,8 km/h (1 Bft) W-SW 247 1 min 0,000 mm 0,0 UV-I 176 W/m -3,2 C 14,6 C 6,4 km/h (2 Bft) 100,00 %
18.09.2019 17:39 14,6 C 13,3 C 31 % 1023,3 hPa 0,0 l/m 6,4 km/h (2 Bft) W 270 1 min 0,000 mm 0,0 UV-I 179 W/m -2,3 C 14,6 C 11,3 km/h (2 Bft) 100,00 %
18.09.2019 17:38 14,6 C 13,3 C 30 % 1023,3 hPa 0,0 l/m 4,8 km/h (1 Bft) W 270 1 min 0,000 mm 0,0 UV-I 181 W/m -2,8 C 14,6 C 9,7 km/h (2 Bft) 100,00 %
18.09.2019 17:37 14,7 C 13,3 C 29 % 1023,4 hPa 0,0 l/m 8,0 km/h (2 Bft) W 270 1 min 0,000 mm 0,0 UV-I 190 W/m -3,1 C 13,8 C 14,5 km/h (3 Bft) 95,65 %
18.09.2019 17:36 14,7 C 13,9 C 30 % 1023,3 hPa 0,0 l/m 4,8 km/h (1 Bft) W-SW 247 1 min 0,000 mm 0,0 UV-I 193 W/m -2,7 C 14,7 C 6,4 km/h (2 Bft) 100,00 %
18.09.2019 17:35 14,7 C 13,9 C 29 % 1023,4 hPa 0,0 l/m 8,0 km/h (2 Bft) W-SW 247 1 min 0,000 mm 0,0 UV-I 195 W/m -3,1 C 13,8 C 11,3 km/h (2 Bft) 95,65 %
18.09.2019 17:34 14,7 C 13,9 C 31 % 1023,3 hPa 0,0 l/m 6,4 km/h (2 Bft) W-SW 247 1 min 0,000 mm 0,0 UV-I 199 W/m -2,2 C 14,7 C 11,3 km/h (2 Bft) 100,00 %
18.09.2019 17:33 14,7 C 14,4 C 31 % 1023,3 hPa 0,0 l/m 4,8 km/h (1 Bft) W 270 1 min 0,000 mm 0,0 UV-I 202 W/m -2,2 C 14,7 C 9,7 km/h (2 Bft) 100,00 %
18.09.2019 17:32 14,7 C 15,0 C 30 % 1023,3 hPa 0,0 l/m 3,2 km/h (1 Bft) W-SW 247 1 min 0,000 mm 0,5 UV-I 206 W/m -2,7 C 14,7 C 6,4 km/h (2 Bft) 95,65 %
18.09.2019 17:31 14,6 C 15,0 C 30 % 1023,3 hPa 0,0 l/m 3,2 km/h (1 Bft) W 270 1 min 0,000 mm 0,5 UV-I 207 W/m -2,8 C 14,6 C 8,0 km/h (2 Bft) 100,00 %
18.09.2019 17:30 14,6 C 15,6 C 29 % 1023,3 hPa 0,0 l/m 4,8 km/h (1 Bft) W 270 1 min 0,000 mm 0,5 UV-I 211 W/m -3,2 C 14,6 C 9,7 km/h (2 Bft) 100,00 %
18.09.2019 17:29 14,6 C 16,7 C 30 % 1023,3 hPa 0,0 l/m 3,2 km/h (1 Bft) W-NW 292 1 min 0,000 mm 0,5 UV-I 213 W/m -2,8 C 14,6 C 8,0 km/h (2 Bft) 100,00 %
18.09.2019 17:28 14,7 C 17,2 C 29 % 1023,3 hPa 0,0 l/m 9,7 km/h (2 Bft) W-NW 292 1 min 0,000 mm 0,5 UV-I 216 W/m -3,1 C 12,9 C 16,1 km/h (3 Bft) 95,65 %
18.09.2019 17:27 14,7 C 18,3 C 30 % 1023,4 hPa 0,0 l/m 4,8 km/h (1 Bft) W-NW 292 1 min 0,000 mm 0,5 UV-I 221 W/m -2,7 C 14,7 C 6,4 km/h (2 Bft) 100,00 %
18.09.2019 17:26 14,7 C 18,9 C 29 % 1023,3 hPa 0,0 l/m 8,0 km/h (2 Bft) W 270 1 min 0,000 mm 0,5 UV-I 225 W/m -3,1 C 13,8 C 16,1 km/h (3 Bft) 100,00 %
18.09.2019 17:25 14,8 C 20,0 C 29 % 1023,4 hPa 0,0 l/m 8,0 km/h (2 Bft) W 270 1 min 0,000 mm 0,5 UV-I 167 W/m -3,0 C 13,9 C 14,5 km/h (3 Bft) 100,00 %
18.09.2019 17:24 14,8 C 20,0 C 30 % 1023,3 hPa 0,0 l/m 6,4 km/h (2 Bft) W-NW 292 1 min 0,000 mm 0,5 UV-I 230 W/m -2,6 C 14,8 C 14,5 km/h (3 Bft) 100,00 %
18.09.2019 17:23 14,8 C 20,0 C 30 % 1023,3 hPa 0,0 l/m 6,4 km/h (2 Bft) W-NW 292 1 min 0,000 mm 0,5 UV-I 232 W/m -2,6 C 14,8 C 11,3 km/h (2 Bft) 100,00 %
18.09.2019 17:22 14,8 C 20,0 C 31 % 1023,2 hPa 0,0 l/m 8,0 km/h (2 Bft) W-NW 292 1 min 0,000 mm 0,6 UV-I 234 W/m -2,2 C 13,9 C 14,5 km/h (3 Bft) 100,00 %
18.09.2019 17:21 14,8 C 19,4 C 30 % 1023,3 hPa 0,0 l/m 4,8 km/h (1 Bft) W 270 1 min 0,000 mm 0,6 UV-I 239 W/m -2,6 C 14,8 C 6,4 km/h (2 Bft) 95,65 %
18.09.2019 17:20 14,8 C 19,4 C 29 % 1023,3 hPa 0,0 l/m 9,7 km/h (2 Bft) W-NW 292 1 min 0,000 mm 0,6 UV-I 241 W/m -3,0 C 13,0 C 14,5 km/h (3 Bft) 95,65 %
18.09.2019 17:19 14,8 C 19,4 C 29 % 1023,3 hPa 0,0 l/m 9,7 km/h (2 Bft) W-NW 292 1 min 0,000 mm 0,6 UV-I 244 W/m -3,0 C 13,0 C 14,5 km/h (3 Bft) 100,00 %
18.09.2019 17:18 14,8 C 18,9 C 30 % 1023,3 hPa 0,0 l/m 4,8 km/h (1 Bft) SW 225 1 min 0,000 mm 0,6 UV-I 246 W/m -2,6 C 14,8 C 8,0 km/h (2 Bft) 95,65 %
18.09.2019 17:17 14,9 C 18,3 C 30 % 1023,3 hPa 0,0 l/m 4,8 km/h (1 Bft) SW 225 1 min 0,000 mm 0,6 UV-I 248 W/m -2,5 C 14,9 C 6,4 km/h (2 Bft) 100,00 %
18.09.2019 17:16 14,8 C 18,3 C 30 % 1023,3 hPa 0,0 l/m 6,4 km/h (2 Bft) W-NW 292 1 min 0,000 mm 0,6 UV-I 255 W/m -2,6 C 14,8 C 12,9 km/h (3 Bft) 95,65 %
18.09.2019 17:15 14,8 C 18,3 C 30 % 1023,4 hPa 0,0 l/m 3,2 km/h (1 Bft) W-NW 292 1 min 0,000 mm 0,6 UV-I 255 W/m -2,6 C 14,8 C 4,8 km/h (1 Bft) 100,00 %
18.09.2019 17:14 14,8 C 18,3 C 30 % 1023,3 hPa 0,0 l/m 6,4 km/h (2 Bft) W 270 1 min 0,000 mm 0,7 UV-I 257 W/m -2,6 C 14,8 C 9,7 km/h (2 Bft) 100,00 %
18.09.2019 17:13 14,9 C 18,9 C 31 % 1023,4 hPa 0,0 l/m 4,8 km/h (1 Bft) W 270 1 min 0,000 mm 0,7 UV-I 258 W/m -2,1 C 14,9 C 9,7 km/h (2 Bft) 95,65 %
18.09.2019 17:12 14,8 C 18,9 C 31 % 1023,3 hPa 0,0 l/m 4,8 km/h (1 Bft) W-NW 292 1 min 0,000 mm 0,7 UV-I 260 W/m -2,2 C 14,8 C 8,0 km/h (2 Bft) 100,00 %
18.09.2019 17:11 14,8 C 20,0 C 30 % 1023,3 hPa 0,0 l/m 3,2 km/h (1 Bft) W 270 1 min 0,000 mm 0,7 UV-I 264 W/m -2,6 C 14,8 C 4,8 km/h (1 Bft) 95,65 %
18.09.2019 17:10 14,8 C 20,6 C 30 % 1023,3 hPa 0,0 l/m 6,4 km/h (2 Bft) W 270 1 min 0,000 mm 0,7 UV-I 267 W/m -2,6 C 14,8 C 11,3 km/h (2 Bft) 100,00 %
18.09.2019 17:09 14,8 C 21,1 C 31 % 1023,3 hPa 0,0 l/m 4,8 km/h (1 Bft) W-SW 247 1 min 0,000 mm 0,7 UV-I 271 W/m -2,2 C 14,8 C 9,7 km/h (2 Bft) 100,00 %
18.09.2019 17:08 14,8 C 21,1 C 32 % 1023,3 hPa 0,0 l/m 3,2 km/h (1 Bft) W-SW 247 1 min 0,000 mm 0,7 UV-I 271 W/m -1,7 C 14,8 C 4,8 km/h (1 Bft) 95,65 %
18.09.2019 17:07 14,8 C 21,1 C 32 % 1023,3 hPa 0,0 l/m 3,2 km/h (1 Bft) W-SW 247 1 min 0,000 mm 0,7 UV-I 271 W/m -1,7 C 14,8 C 4,8 km/h (1 Bft) 100,00 %
18.09.2019 17:06 14,8 C 21,1 C 29 % 1023,3 hPa 0,0 l/m 4,8 km/h (1 Bft) W-SW 247 1 min 0,000 mm 0,8 UV-I 271 W/m -3,0 C 14,8 C 6,4 km/h (2 Bft) 100,00 %
18.09.2019 17:05 14,8 C 21,7 C 28 % 1023,3 hPa 0,0 l/m 8,0 km/h (2 Bft) W-SW 247 1 min 0,000 mm 0,8 UV-I 272 W/m -3,5 C 13,9 C 12,9 km/h (3 Bft) 100,00 %
18.09.2019 17:04 14,8 C 21,7 C 30 % 1023,4 hPa 0,0 l/m 6,4 km/h (2 Bft) W 270 1 min 0,000 mm 0,8 UV-I 283 W/m -2,6 C 14,8 C 14,5 km/h (3 Bft) 95,65 %
18.09.2019 17:03 14,8 C 22,2 C 28 % 1023,3 hPa 0,0 l/m 6,4 km/h (2 Bft) W-SW 247 1 min 0,000 mm 0,8 UV-I 285 W/m -3,5 C 14,8 C 9,7 km/h (2 Bft) 100,00 %
18.09.2019 17:02 14,8 C 22,8 C 29 % 1023,3 hPa 0,0 l/m 8,0 km/h (2 Bft) W-NW 292 1 min 0,000 mm 0,8 UV-I 287 W/m -3,0 C 13,9 C 12,9 km/h (3 Bft) 100,00 %
18.09.2019 17:01 14,8 C 22,8 C 28 % 1023,3 hPa 0,0 l/m 6,4 km/h (2 Bft) NW 315 1 min 0,000 mm 0,8 UV-I 290 W/m -3,5 C 14,8 C 8,0 km/h (2 Bft) 100,00 %
18.09.2019 17:00 14,8 C 22,8 C 26 % 1023,3 hPa 0,0 l/m 8,0 km/h (2 Bft) W-NW 292 1 min 0,229 mm 0,8 UV-I 292 W/m -4,5 C 13,9 C 14,5 km/h (3 Bft) 100,00 %
18.09.2019 16:59 14,8 C 23,3 C 28 % 1023,3 hPa 0,0 l/m 9,7 km/h (2 Bft) W-NW 292 1 min 0,000 mm 0,9 UV-I 294 W/m -3,5 C 13,0 C 14,5 km/h (3 Bft) 95,65 %
18.09.2019 16:58 14,8 C 23,9 C 28 % 1023,2 hPa 0,0 l/m 6,4 km/h (2 Bft) W-NW 292 1 min 0,000 mm 0,9 UV-I 299 W/m -3,5 C 14,8 C 12,9 km/h (3 Bft) 100,00 %
18.09.2019 16:57 14,8 C 23,9 C 28 % 1023,3 hPa 0,0 l/m 6,4 km/h (2 Bft) W-SW 247 1 min 0,000 mm 0,9 UV-I 301 W/m -3,5 C 14,8 C 11,3 km/h (2 Bft) 95,65 %
18.09.2019 16:56 14,8 C 23,3 C 28 % 1023,4 hPa 0,0 l/m 4,8 km/h (1 Bft) W 270 1 min 0,000 mm 0,9 UV-I 304 W/m -3,5 C 14,8 C 8,0 km/h (2 Bft) 95,65 %
18.09.2019 16:55 14,8 C 23,3 C 29 % 1023,2 hPa 0,0 l/m 6,4 km/h (2 Bft) W 270 1 min 0,000 mm 0,9 UV-I 306 W/m -3,0 C 14,8 C 11,3 km/h (2 Bft) 100,00 %
18.09.2019 16:54 14,9 C 23,3 C 30 % 1023,3 hPa 0,0 l/m 6,4 km/h (2 Bft) W-NW 292 1 min 0,000 mm 0,9 UV-I 308 W/m -2,5 C 14,9 C 12,9 km/h (3 Bft) 91,30 %
18.09.2019 16:53 14,8 C 23,3 C 32 % 1023,2 hPa 0,0 l/m 6,4 km/h (2 Bft) W 270 1 min 0,000 mm 1,0 UV-I 309 W/m -1,7 C 14,8 C 9,7 km/h (2 Bft) 100,00 %
18.09.2019 16:52 14,8 C 22,8 C 31 % 1023,3 hPa 0,0 l/m 6,4 km/h (2 Bft) W-NW 292 1 min 0,000 mm 1,0 UV-I 315 W/m -2,2 C 14,8 C 12,9 km/h (3 Bft) 100,00 %
18.09.2019 16:51 14,8 C 23,3 C 30 % 1023,3 hPa 0,0 l/m 8,0 km/h (2 Bft) W-NW 292 1 min 0,000 mm 1,0 UV-I 316 W/m -2,6 C 13,9 C 14,5 km/h (3 Bft) 100,00 %
18.09.2019 16:50 14,8 C 23,3 C 32 % 1023,4 hPa 0,0 l/m 6,4 km/h (2 Bft) NW 315 1 min 0,000 mm 1,0 UV-I 320 W/m -1,7 C 14,8 C 8,0 km/h (2 Bft) 100,00 %
18.09.2019 16:49 14,8 C 23,3 C 32 % 1023,3 hPa 0,0 l/m 6,4 km/h (2 Bft) W 270 1 min 0,000 mm 1,0 UV-I 322 W/m -1,7 C 14,8 C 9,7 km/h (2 Bft) 100,00 %
18.09.2019 16:48 14,8 C 23,3 C 31 % 1023,4 hPa 0,0 l/m 4,8 km/h (1 Bft) NW 315 1 min 0,000 mm 1,0 UV-I 325 W/m -2,2 C 14,8 C 8,0 km/h (2 Bft) 100,00 %
18.09.2019 16:47 14,8 C 23,9 C 31 % 1023,5 hPa 0,0 l/m 9,7 km/h (2 Bft) W-NW 292 1 min 0,000 mm 1,0 UV-I 329 W/m -2,2 C 13,0 C 12,9 km/h (3 Bft) 100,00 %
18.09.2019 16:46 14,8 C 23,9 C 30 % 1023,3 hPa 0,0 l/m 8,0 km/h (2 Bft) W-NW 292 1 min 0,000 mm 1,1 UV-I 332 W/m -2,6 C 13,9 C 16,1 km/h (3 Bft) 100,00 %
18.09.2019 16:45 14,8 C 23,9 C 29 % 1023,4 hPa 0,0 l/m 8,0 km/h (2 Bft) W-NW 292 1 min 0,000 mm 1,1 UV-I 336 W/m -3,0 C 13,9 C 12,9 km/h (3 Bft) 100,00 %
18.09.2019 16:44 14,8 C 23,9 C 31 % 1023,4 hPa 0,0 l/m 6,4 km/h (2 Bft) W-NW 292 1 min 0,000 mm 1,1 UV-I 288 W/m -2,2 C 14,8 C 12,9 km/h (3 Bft) 100,00 %
18.09.2019 16:43 14,8 C 23,3 C 33 % 1023,4 hPa 0,0 l/m 9,7 km/h (2 Bft) W-NW 292 1 min 0,000 mm 1,1 UV-I 308 W/m -1,3 C 13,0 C 14,5 km/h (3 Bft) 100,00 %
18.09.2019 16:42 14,8 C 23,3 C 35 % 1023,4 hPa 0,0 l/m 3,2 km/h (1 Bft) W-SW 247 1 min 0,000 mm 1,1 UV-I 285 W/m -0,5 C 14,8 C 6,4 km/h (2 Bft) 100,00 %
18.09.2019 16:41 14,7 C 23,3 C 33 % 1023,3 hPa 0,0 l/m 3,2 km/h (1 Bft) NW 315 1 min 0,000 mm 1,1 UV-I 271 W/m -1,4 C 14,7 C 6,4 km/h (2 Bft) 95,65 %
18.09.2019 16:40 14,7 C 23,3 C 32 % 1023,4 hPa 0,0 l/m 8,0 km/h (2 Bft) W-NW 292 1 min 0,000 mm 1,1 UV-I 315 W/m -1,8 C 13,8 C 12,9 km/h (3 Bft) 95,65 %
18.09.2019 16:39 14,7 C 23,3 C 30 % 1023,3 hPa 0,0 l/m 6,4 km/h (2 Bft) N-NW 337 1 min 0,000 mm 1,1 UV-I 285 W/m -2,7 C 14,7 C 11,3 km/h (2 Bft) 100,00 %
18.09.2019 16:38 14,7 C 23,3 C 30 % 1023,5 hPa 0,0 l/m 6,4 km/h (2 Bft) W-NW 292 1 min 0,000 mm 1,1 UV-I 271 W/m -2,7 C 14,7 C 11,3 km/h (2 Bft) 100,00 %
18.09.2019 16:37 14,8 C 23,3 C 32 % 1023,4 hPa 0,0 l/m 8,0 km/h (2 Bft) W-NW 292 1 min 0,000 mm 1,1 UV-I 278 W/m -1,7 C 13,9 C 12,9 km/h (3 Bft) 95,65 %
18.09.2019 16:36 14,7 C 23,3 C 34 % 1023,4 hPa 0,0 l/m 6,4 km/h (2 Bft) W-SW 247 1 min 0,000 mm 1,2 UV-I 258 W/m -1,0 C 14,7 C 11,3 km/h (2 Bft) 100,00 %
18.09.2019 16:35 14,7 C 23,3 C 33 % 1023,4 hPa 0,0 l/m 6,4 km/h (2 Bft) W 270 1 min 0,000 mm 1,2 UV-I 304 W/m -1,4 C 14,7 C 11,3 km/h (2 Bft) 100,00 %
18.09.2019 16:34 14,7 C 23,3 C 38 % 1023,4 hPa 0,0 l/m 4,8 km/h (1 Bft) W 270 1 min 0,000 mm 1,2 UV-I 301 W/m 0,5 C 14,7 C 9,7 km/h (2 Bft) 100,00 %
18.09.2019 16:33 14,7 C 23,3 C 37 % 1023,3 hPa 0,0 l/m 3,2 km/h (1 Bft) NW 315 1 min 0,000 mm 1,2 UV-I 253 W/m 0,2 C 14,7 C 6,4 km/h (2 Bft) 91,30 %
18.09.2019 16:32 14,7 C 23,3 C 35 % 1023,4 hPa 0,0 l/m 4,8 km/h (1 Bft) SW 225 1 min 0,000 mm 1,2 UV-I 253 W/m -0,6 C 14,7 C 6,4 km/h (2 Bft) 95,65 %
18.09.2019 16:31 14,7 C 23,3 C 35 % 1023,4 hPa 0,0 l/m 4,8 km/h (1 Bft) W-SW 247 1 min 0,000 mm 1,2 UV-I 299 W/m -0,6 C 14,7 C 8,0 km/h (2 Bft) 100,00 %
18.09.2019 16:30 14,8 C 23,3 C 38 % 1023,4 hPa 0,0 l/m 4,8 km/h (1 Bft) W-NW 292 1 min 0,000 mm 1,3 UV-I 290 W/m 0,6 C 14,8 C 9,7 km/h (2 Bft) 95,65 %
18.09.2019 16:29 14,8 C 23,3 C 38 % 1023,4 hPa 0,0 l/m 6,4 km/h (2 Bft) W 270 1 min 0,000 mm 1,3 UV-I 306 W/m 0,6 C 14,8 C 11,3 km/h (2 Bft) 100,00 %
18.09.2019 16:28 14,8 C 23,3 C 39 % 1023,4 hPa 0,0 l/m 1,6 km/h (1 Bft) SW 225 1 min 0,000 mm 1,3 UV-I 301 W/m 1,0 C 14,8 C 4,8 km/h (1 Bft) 91,30 %
18.09.2019 16:27 14,8 C 23,9 C 38 % 1023,3 hPa 0,0 l/m 4,8 km/h (1 Bft) W 270 1 min 0,000 mm 1,3 UV-I 301 W/m 0,6 C 14,8 C 8,0 km/h (2 Bft) 91,30 %
18.09.2019 16:26 14,8 C 24,4 C 39 % 1023,4 hPa 0,0 l/m 6,4 km/h (2 Bft) W-SW 247 1 min 0,000 mm 1,3 UV-I 332 W/m 1,0 C 14,8 C 11,3 km/h (2 Bft) 100,00 %
18.09.2019 16:25 14,8 C 24,4 C 39 % 1023,4 hPa 0,0 l/m 3,2 km/h (1 Bft) S-SW 202 1 min 0,000 mm 1,3 UV-I 332 W/m 1,0 C 14,8 C 6,4 km/h (2 Bft) 100,00 %
18.09.2019 16:24 14,8 C 24,4 C 39 % 1023,5 hPa 0,0 l/m 3,2 km/h (1 Bft) S-SW 202 1 min 0,000 mm 1,3 UV-I 301 W/m 1,0 C 14,8 C 4,8 km/h (1 Bft) 100,00 %
18.09.2019 16:23 14,8 C 24,4 C 38 % 1023,4 hPa 0,0 l/m 4,8 km/h (1 Bft) SW 225 1 min 0,000 mm 1,4 UV-I 316 W/m 0,6 C 14,8 C 9,7 km/h (2 Bft) 95,65 %
18.09.2019 16:22 14,8 C 23,9 C 38 % 1023,4 hPa 0,0 l/m 4,8 km/h (1 Bft) W-SW 247 1 min 0,000 mm 1,3 UV-I 299 W/m 0,6 C 14,8 C 9,7 km/h (2 Bft) 100,00 %
18.09.2019 16:21 14,8 C 23,9 C 39 % 1023,4 hPa 0,0 l/m 4,8 km/h (1 Bft) W 270 1 min 0,000 mm 1,4 UV-I 338 W/m 1,0 C 14,8 C 9,7 km/h (2 Bft) 95,65 %
18.09.2019 16:20 14,8 C 23,9 C 38 % 1023,4 hPa 0,0 l/m 3,2 km/h (1 Bft) W 270 1 min 0,000 mm 1,4 UV-I 322 W/m 0,6 C 14,8 C 4,8 km/h (1 Bft) 95,65 %
18.09.2019 16:19 14,8 C 23,3 C 36 % 1023,4 hPa 0,0 l/m 4,8 km/h (1 Bft) W 270 1 min 0,000 mm 1,4 UV-I 329 W/m -0,1 C 14,8 C 6,4 km/h (2 Bft) 100,00 %
18.09.2019 16:18 14,8 C 23,3 C 35 % 1023,4 hPa 0,0 l/m 3,2 km/h (1 Bft) SW 225 1 min 0,000 mm 1,4 UV-I 332 W/m -0,5 C 14,8 C 9,7 km/h (2 Bft) 100,00 %
18.09.2019 16:17 14,8 C 23,3 C 34 % 1023,4 hPa 0,0 l/m 6,4 km/h (2 Bft) SW 225 1 min 0,000 mm 1,5 UV-I 334 W/m -0,9 C 14,8 C 14,5 km/h (3 Bft) 100,00 %
18.09.2019 16:16 14,8 C 23,3 C 38 % 1023,4 hPa 0,0 l/m 3,2 km/h (1 Bft) W-SW 247 1 min 0,000 mm 1,5 UV-I 329 W/m 0,6 C 14,8 C 8,0 km/h (2 Bft) 91,30 %
18.09.2019 16:15 14,8 C 23,3 C 37 % 1023,4 hPa 0,0 l/m 6,4 km/h (2 Bft) W 270 1 min 0,000 mm 1,5 UV-I 338 W/m 0,3 C 14,8 C 12,9 km/h (3 Bft) 95,65 %
18.09.2019 16:14 14,8 C 23,3 C 39 % 1023,4 hPa 0,0 l/m 8,0 km/h (2 Bft) W-SW 247 1 min 0,000 mm 1,5 UV-I 357 W/m 1,0 C 13,9 C 12,9 km/h (3 Bft) 95,65 %
18.09.2019 16:13 14,8 C 24,4 C 39 % 1023,4 hPa 0,0 l/m 6,4 km/h (2 Bft) W 270 1 min 0,000 mm 1,5 UV-I 318 W/m 1,0 C 14,8 C 9,7 km/h (2 Bft) 95,65 %
18.09.2019 16:12 14,8 C 24,4 C 39 % 1023,4 hPa 0,0 l/m 6,4 km/h (2 Bft) W-SW 247 1 min 0,000 mm 1,5 UV-I 325 W/m 1,0 C 14,8 C 9,7 km/h (2 Bft) 100,00 %
18.09.2019 16:11 14,9 C 24,4 C 40 % 1023,4 hPa 0,0 l/m 4,8 km/h (1 Bft) W 270 1 min 0,000 mm 1,6 UV-I 367 W/m 1,4 C 14,9 C 6,4 km/h (2 Bft) 100,00 %
18.09.2019 16:10 14,8 C 24,4 C 40 % 1023,4 hPa 0,0 l/m 4,8 km/h (1 Bft) SW 225 1 min 0,000 mm 1,6 UV-I 336 W/m 1,3 C 14,8 C 6,4 km/h (2 Bft) 100,00 %
18.09.2019 16:09 14,8 C 24,4 C 38 % 1023,4 hPa 0,0 l/m 4,8 km/h (1 Bft) W-SW 247 1 min 0,000 mm 1,6 UV-I 348 W/m 0,6 C 14,8 C 9,7 km/h (2 Bft) 91,30 %
18.09.2019 16:08 14,8 C 24,4 C 39 % 1023,4 hPa 0,0 l/m 8,0 km/h (2 Bft) W-NW 292 1 min 0,000 mm 1,6 UV-I 345 W/m 1,0 C 13,9 C 17,7 km/h (3 Bft) 91,30 %
18.09.2019 16:07 14,8 C 24,4 C 41 % 1023,5 hPa 0,0 l/m 6,4 km/h (2 Bft) W-SW 247 1 min 0,000 mm 1,6 UV-I 341 W/m 1,7 C 14,8 C 12,9 km/h (3 Bft) 100,00 %
18.09.2019 16:06 14,8 C 24,4 C 39 % 1023,5 hPa 0,0 l/m 3,2 km/h (1 Bft) W-SW 247 1 min 0,000 mm 1,6 UV-I 332 W/m 1,0 C 14,8 C 6,4 km/h (2 Bft) 95,65 %
18.09.2019 16:05 14,8 C 24,4 C 38 % 1023,4 hPa 0,0 l/m 6,4 km/h (2 Bft) W 270 1 min 0,000 mm 1,6 UV-I 360 W/m 0,6 C 14,8 C 11,3 km/h (2 Bft) 100,00 %
18.09.2019 16:04 14,8 C 24,4 C 38 % 1023,5 hPa 0,0 l/m 9,7 km/h (2 Bft) W-NW 292 1 min 0,000 mm 1,7 UV-I 346 W/m 0,6 C 13,0 C 14,5 km/h (3 Bft) 100,00 %
18.09.2019 16:03 14,9 C 24,4 C 40 % 1023,5 hPa 0,0 l/m 6,4 km/h (2 Bft) W-NW 292 1 min 0,000 mm 1,7 UV-I 345 W/m 1,4 C 14,9 C 11,3 km/h (2 Bft) 100,00 %
18.09.2019 16:02 14,9 C 24,4 C 40 % 1023,5 hPa 0,0 l/m 6,4 km/h (2 Bft) W-NW 292 1 min 0,000 mm 1,7 UV-I 322 W/m 1,4 C 14,9 C 8,0 km/h (2 Bft) 100,00 %
18.09.2019 16:01 14,8 C 24,4 C 40 % 1023,4 hPa 0,0 l/m 6,4 km/h (2 Bft) W-NW 292 1 min 0,000 mm 1,7 UV-I 357 W/m 1,3 C 14,8 C 9,7 km/h (2 Bft) 91,30 %
18.09.2019 16:00 14,8 C 24,4 C 39 % 1023,5 hPa 0,0 l/m 6,4 km/h (2 Bft) W-NW 292 1 min 0,279 mm 1,7 UV-I 350 W/m 1,0 C 14,8 C 8,0 km/h (2 Bft) 100,00 %
18.09.2019 15:59 14,8 C 24,4 C 40 % 1023,5 hPa 0,0 l/m 6,4 km/h (2 Bft) NW 315 1 min 0,000 mm 1,8 UV-I 299 W/m 1,3 C 14,8 C 12,9 km/h (3 Bft) 100,00 %
18.09.2019 15:58 14,9 C 25,0 C 38 % 1023,5 hPa 0,0 l/m 8,0 km/h (2 Bft) NW 315 1 min 0,000 mm 1,8 UV-I 322 W/m 0,7 C 14,0 C 12,9 km/h (3 Bft) 86,96 %
18.09.2019 15:57 14,9 C 25,0 C 39 % 1023,5 hPa 0,0 l/m 8,0 km/h (2 Bft) W-NW 292 1 min 0,000 mm 1,8 UV-I 325 W/m 1,1 C 14,0 C 12,9 km/h (3 Bft) 100,00 %
18.09.2019 15:56 14,9 C 25,0 C 39 % 1023,5 hPa 0,0 l/m 6,4 km/h (2 Bft) W-NW 292 1 min 0,000 mm 1,8 UV-I 332 W/m 1,1 C 14,9 C 11,3 km/h (2 Bft) 95,65 %
18.09.2019 15:55 15,0 C 25,0 C 39 % 1023,5 hPa 0,0 l/m 4,8 km/h (1 Bft) NW 315 1 min 0,000 mm 1,8 UV-I 299 W/m 1,2 C 15,0 C 8,0 km/h (2 Bft) 95,65 %
18.09.2019 15:54 14,9 C 25,6 C 40 % 1023,4 hPa 0,0 l/m 6,4 km/h (2 Bft) W-NW 292 1 min 0,000 mm 1,9 UV-I 366 W/m 1,4 C 14,9 C 12,9 km/h (3 Bft) 95,65 %
18.09.2019 15:53 14,9 C 26,1 C 38 % 1023,4 hPa 0,0 l/m 4,8 km/h (1 Bft) O-SO 112 1 min 0,000 mm 1,9 UV-I 396 W/m 0,7 C 14,9 C 8,0 km/h (2 Bft) 100,00 %
18.09.2019 15:52 15,1 C 26,7 C 38 % 1023,5 hPa 0,0 l/m 1,6 km/h (1 Bft) S 180 1 min 0,000 mm 1,9 UV-I 380 W/m 0,9 C 15,1 C 4,8 km/h (1 Bft) 95,65 %
18.09.2019 15:51 15,0 C 27,2 C 42 % 1023,5 hPa 0,0 l/m 1,6 km/h (1 Bft) SW 225 1 min 0,000 mm 2,0 UV-I 383 W/m 2,2 C 15,0 C 3,2 km/h (1 Bft) 95,65 %
18.09.2019 15:50 14,9 C 27,2 C 40 % 1023,6 hPa 0,0 l/m 1,6 km/h (1 Bft) SW 225 1 min 0,000 mm 2,0 UV-I 422 W/m 1,4 C 14,9 C 3,2 km/h (1 Bft) 100,00 %
18.09.2019 15:49 14,9 C 27,8 C 40 % 1023,5 hPa 0,0 l/m 1,6 km/h (1 Bft) SW 225 1 min 0,000 mm 2,0 UV-I 401 W/m 1,4 C 14,9 C 4,8 km/h (1 Bft) 100,00 %
18.09.2019 15:48 14,9 C 27,8 C 40 % 1023,5 hPa 0,0 l/m 3,2 km/h (1 Bft) W-SW 247 1 min 0,000 mm 2,1 UV-I 448 W/m 1,4 C 14,9 C 4,8 km/h (1 Bft) 95,65 %
18.09.2019 15:47 14,9 C 28,3 C 39 % 1023,6 hPa 0,0 l/m 8,0 km/h (2 Bft) W-SW 247 1 min 0,000 mm 2,1 UV-I 434 W/m 1,1 C 14,0 C 12,9 km/h (3 Bft) 95,65 %
18.09.2019 15:46 15,1 C 28,3 C 39 % 1023,5 hPa 0,0 l/m 9,7 km/h (2 Bft) W-NW 292 1 min 0,000 mm 2,1 UV-I 441 W/m 1,3 C 13,4 C 16,1 km/h (3 Bft) 100,00 %
18.09.2019 15:45 15,1 C 27,8 C 39 % 1023,5 hPa 0,0 l/m 6,4 km/h (2 Bft) W-NW 292 1 min 0,000 mm 2,1 UV-I 438 W/m 1,3 C 15,1 C 14,5 km/h (3 Bft) 100,00 %
18.09.2019 15:44 15,1 C 27,8 C 39 % 1023,5 hPa 0,0 l/m 4,8 km/h (1 Bft) W 270 1 min 0,000 mm 2,2 UV-I 457 W/m 1,3 C 15,1 C 12,9 km/h (3 Bft) 91,30 %
18.09.2019 15:43 15,1 C 28,3 C 40 % 1023,5 hPa 0,0 l/m 6,4 km/h (2 Bft) W 270 1 min 0,000 mm 2,2 UV-I 464 W/m 1,6 C 15,1 C 12,9 km/h (3 Bft) 100,00 %
18.09.2019 15:42 15,2 C 28,3 C 41 % 1023,5 hPa 0,0 l/m 4,8 km/h (1 Bft) W-SW 247 1 min 0,000 mm 2,2 UV-I 483 W/m 2,0 C 15,2 C 8,0 km/h (2 Bft) 95,65 %
18.09.2019 15:41 15,1 C 28,9 C 39 % 1023,5 hPa 0,0 l/m 6,4 km/h (2 Bft) NW 315 1 min 0,000 mm 2,3 UV-I 485 W/m 1,3 C 15,1 C 12,9 km/h (3 Bft) 100,00 %
18.09.2019 15:40 15,1 C 28,3 C 40 % 1023,5 hPa 0,0 l/m 4,8 km/h (1 Bft) NW 315 1 min 0,000 mm 2,3 UV-I 480 W/m 1,6 C 15,1 C 11,3 km/h (2 Bft) 100,00 %
18.09.2019 15:39 15,1 C 28,3 C 39 % 1023,6 hPa 0,0 l/m 11,3 km/h (2 Bft) W 270 1 min 0,000 mm 2,2 UV-I 461 W/m 1,3 C 12,7 C 16,1 km/h (3 Bft) 100,00 %
18.09.2019 15:38 15,2 C 28,9 C 40 % 1023,6 hPa 0,0 l/m 9,7 km/h (2 Bft) W-NW 292 1 min 0,000 mm 2,3 UV-I 490 W/m 1,7 C 13,5 C 16,1 km/h (3 Bft) 100,00 %
18.09.2019 15:37 15,1 C 28,3 C 40 % 1023,4 hPa 0,0 l/m 8,0 km/h (2 Bft) W-NW 292 1 min 0,000 mm 2,3 UV-I 492 W/m 1,6 C 14,2 C 12,9 km/h (3 Bft) 100,00 %
18.09.2019 15:36 15,2 C 28,3 C 39 % 1023,6 hPa 0,0 l/m 9,7 km/h (2 Bft) W-NW 292 1 min 0,000 mm 2,4 UV-I 494 W/m 1,3 C 13,5 C 17,7 km/h (3 Bft) 100,00 %
18.09.2019 15:35 15,2 C 27,8 C 42 % 1023,5 hPa 0,0 l/m 8,0 km/h (2 Bft) W-NW 292 1 min 0,000 mm 2,4 UV-I 497 W/m 2,4 C 14,3 C 12,9 km/h (3 Bft) 95,65 %
18.09.2019 15:34 15,1 C 28,3 C 44 % 1023,5 hPa 0,0 l/m 3,2 km/h (1 Bft) S-SW 202 1 min 0,000 mm 2,4 UV-I 499 W/m 2,9 C 15,1 C 8,0 km/h (2 Bft) 95,65 %
18.09.2019 15:33 15,0 C 27,8 C 41 % 1023,5 hPa 0,0 l/m 3,2 km/h (1 Bft) SW 225 1 min 0,000 mm 2,4 UV-I 506 W/m 1,9 C 15,0 C 6,4 km/h (2 Bft) 100,00 %
18.09.2019 15:32 15,1 C 27,8 C 43 % 1023,6 hPa 0,0 l/m 3,2 km/h (1 Bft) W 270 1 min 0,000 mm 2,4 UV-I 466 W/m 2,6 C 15,1 C 4,8 km/h (1 Bft) 95,65 %
18.09.2019 15:31 15,1 C 27,2 C 40 % 1023,6 hPa 0,0 l/m 6,4 km/h (2 Bft) W 270 1 min 0,000 mm 2,5 UV-I 485 W/m 1,6 C 15,1 C 11,3 km/h (2 Bft) 100,00 %
18.09.2019 15:30 15,1 C 26,7 C 41 % 1023,6 hPa 0,0 l/m 4,8 km/h (1 Bft) S-SW 202 1 min 0,000 mm 2,5 UV-I 501 W/m 2,0 C 15,1 C 9,7 km/h (2 Bft) 95,65 %
18.09.2019 15:29 15,2 C 27,8 C 41 % 1023,6 hPa 0,0 l/m 4,8 km/h (1 Bft) W-SW 247 1 min 0,000 mm 2,5 UV-I 501 W/m 2,0 C 15,2 C 8,0 km/h (2 Bft) 91,30 %
18.09.2019 15:28 15,2 C 28,9 C 42 % 1023,5 hPa 0,0 l/m 6,4 km/h (2 Bft) SW 225 1 min 0,000 mm 2,5 UV-I 504 W/m 2,4 C 15,2 C 9,7 km/h (2 Bft) 91,30 %
18.09.2019 15:27 15,1 C 28,3 C 44 % 1023,5 hPa 0,0 l/m 3,2 km/h (1 Bft) W-SW 247 1 min 0,000 mm 2,6 UV-I 512 W/m 2,9 C 15,1 C 8,0 km/h (2 Bft) 100,00 %
18.09.2019 15:26 15,1 C 27,8 C 43 % 1023,6 hPa 0,0 l/m 1,6 km/h (1 Bft) W 270 1 min 0,000 mm 2,6 UV-I 504 W/m 2,6 C 15,1 C 6,4 km/h (2 Bft) 100,00 %
18.09.2019 15:25 14,9 C 27,8 C 42 % 1023,6 hPa 0,0 l/m 3,2 km/h (1 Bft) W 270 1 min 0,000 mm 2,6 UV-I 520 W/m 2,1 C 14,9 C 4,8 km/h (1 Bft) 100,00 %
18.09.2019 15:24 14,9 C 27,8 C 41 % 1023,6 hPa 0,0 l/m 4,8 km/h (1 Bft) W-SW 247 1 min 0,000 mm 2,4 UV-I 494 W/m 1,8 C 14,9 C 8,0 km/h (2 Bft) 100,00 %
18.09.2019 15:23 14,9 C 28,9 C 41 % 1023,5 hPa 0,0 l/m 6,4 km/h (2 Bft) W 270 1 min 0,000 mm 2,6 UV-I 515 W/m 1,8 C 14,9 C 11,3 km/h (2 Bft) 95,65 %
18.09.2019 15:22 14,9 C 30,0 C 41 % 1023,6 hPa 0,0 l/m 6,4 km/h (2 Bft) W-SW 247 1 min 0,000 mm 2,7 UV-I 512 W/m 1,8 C 14,9 C 12,9 km/h (3 Bft) 100,00 %
18.09.2019 15:21 14,9 C 31,1 C 41 % 1023,6 hPa 0,0 l/m 4,8 km/h (1 Bft) W 270 1 min 0,000 mm 2,7 UV-I 512 W/m 1,8 C 14,9 C 9,7 km/h (2 Bft) 100,00 %
18.09.2019 15:20 14,9 C 30,6 C 41 % 1023,5 hPa 0,0 l/m 6,4 km/h (2 Bft) NW 315 1 min 0,000 mm 2,7 UV-I 513 W/m 1,8 C 14,9 C 11,3 km/h (2 Bft) 100,00 %
18.09.2019 15:19 14,8 C 31,1 C 43 % 1023,5 hPa 0,0 l/m 3,2 km/h (1 Bft) W 270 1 min 0,000 mm 2,7 UV-I 513 W/m 2,3 C 14,8 C 6,4 km/h (2 Bft) 100,00 %
18.09.2019 15:18 14,7 C 31,1 C 41 % 1023,5 hPa 0,0 l/m 3,2 km/h (1 Bft) W 270 1 min 0,000 mm 2,7 UV-I 517 W/m 1,6 C 14,7 C 4,8 km/h (1 Bft) 100,00 %
18.09.2019 15:17 14,7 C 31,1 C 40 % 1023,6 hPa 0,0 l/m 6,4 km/h (2 Bft) W 270 1 min 0,000 mm 2,8 UV-I 519 W/m 1,2 C 14,7 C 11,3 km/h (2 Bft) 95,65 %
18.09.2019 15:16 14,8 C 31,7 C 40 % 1023,7 hPa 0,0 l/m 8,0 km/h (2 Bft) W-SW 247 1 min 0,000 mm 2,8 UV-I 520 W/m 1,3 C 13,9 C 12,9 km/h (3 Bft) 95,65 %
18.09.2019 15:15 14,9 C 31,7 C 41 % 1023,7 hPa 0,0 l/m 1,6 km/h (1 Bft) W-NW 292 1 min 0,000 mm 2,8 UV-I 517 W/m 1,8 C 14,9 C 4,8 km/h (1 Bft) 86,96 %
18.09.2019 15:14 14,9 C 31,1 C 41 % 1023,6 hPa 0,0 l/m 3,2 km/h (1 Bft) W-NW 292 1 min 0,000 mm 2,8 UV-I 519 W/m 1,8 C 14,9 C 4,8 km/h (1 Bft) 100,00 %
18.09.2019 15:13 14,9 C 31,1 C 43 % 1023,7 hPa 0,0 l/m 4,8 km/h (1 Bft) W-NW 292 1 min 0,000 mm 2,8 UV-I 520 W/m 2,4 C 14,9 C 9,7 km/h (2 Bft) 100,00 %
18.09.2019 15:12 14,9 C 30,6 C 41 % 1023,7 hPa 0,0 l/m 3,2 km/h (1 Bft) W-NW 292 1 min 0,000 mm 2,9 UV-I 527 W/m 1,8 C 14,9 C 8,0 km/h (2 Bft) 100,00 %
18.09.2019 15:11 14,9 C 30,0 C 40 % 1023,6 hPa 0,0 l/m 6,4 km/h (2 Bft) W-NW 292 1 min 0,000 mm 2,9 UV-I 529 W/m 1,4 C 14,9 C 11,3 km/h (2 Bft) 100,00 %
18.09.2019 15:10 15,0 C 29,4 C 41 % 1023,7 hPa 0,0 l/m 4,8 km/h (1 Bft) W-NW 292 1 min 0,000 mm 2,9 UV-I 522 W/m 1,9 C 15,0 C 9,7 km/h (2 Bft) 100,00 %
18.09.2019 15:09 14,9 C 30,0 C 41 % 1023,6 hPa 0,0 l/m 3,2 km/h (1 Bft) SW 225 1 min 0,000 mm 2,9 UV-I 529 W/m 1,8 C 14,9 C 4,8 km/h (1 Bft) 100,00 %
18.09.2019 15:08 14,8 C 30,6 C 41 % 1023,6 hPa 0,0 l/m 1,6 km/h (1 Bft) SW 225 1 min 0,000 mm 2,9 UV-I 533 W/m 1,7 C 14,8 C 3,2 km/h (1 Bft) 95,65 %
18.09.2019 15:07 14,8 C 30,6 C 41 % 1023,7 hPa 0,0 l/m 3,2 km/h (1 Bft) W-SW 247 1 min 0,000 mm 3,0 UV-I 533 W/m 1,7 C 14,8 C 4,8 km/h (1 Bft) 100,00 %
18.09.2019 15:06 14,8 C 30,0 C 41 % 1023,7 hPa 0,0 l/m 3,2 km/h (1 Bft) W-SW 247 1 min 0,000 mm 3,0 UV-I 534 W/m 1,7 C 14,8 C 4,8 km/h (1 Bft) 95,65 %
18.09.2019 15:05 14,8 C 29,4 C 41 % 1023,6 hPa 0,0 l/m 4,8 km/h (1 Bft) W-NW 292 1 min 0,000 mm 3,0 UV-I 536 W/m 1,7 C 14,8 C 9,7 km/h (2 Bft) 95,65 %
18.09.2019 15:04 14,9 C 30,0 C 39 % 1023,8 hPa 0,0 l/m 12,9 km/h (3 Bft) W-NW 292 1 min 0,000 mm 3,0 UV-I 536 W/m 1,1 C 11,8 C 17,7 km/h (3 Bft) 100,00 %
18.09.2019 15:03 14,9 C 29,4 C 44 % 1023,8 hPa 0,0 l/m 6,4 km/h (2 Bft) SW 225 1 min 0,000 mm 3,0 UV-I 541 W/m 2,8 C 14,9 C 12,9 km/h (3 Bft) 91,30 %
18.09.2019 15:02 14,8 C 29,4 C 42 % 1023,7 hPa 0,0 l/m 3,2 km/h (1 Bft) SW 225 1 min 0,000 mm 3,0 UV-I 540 W/m 2,0 C 14,8 C 4,8 km/h (1 Bft) 100,00 %
18.09.2019 15:01 14,7 C 28,9 C 44 % 1023,7 hPa 0,0 l/m 1,6 km/h (1 Bft) SW 225 1 min 0,000 mm 3,1 UV-I 541 W/m 2,6 C 14,7 C 4,8 km/h (1 Bft) 95,65 %
18.09.2019 15:00 14,6 C 28,3 C 42 % 1023,8 hPa 0,0 l/m 3,2 km/h (1 Bft) W-NW 292 1 min 0,330 mm 3,1 UV-I 543 W/m 1,8 C 14,6 C 6,4 km/h (2 Bft) 100,00 %
18.09.2019 14:59 14,6 C 28,3 C 42 % 1023,7 hPa 0,0 l/m 4,8 km/h (1 Bft) W 270 1 min 0,000 mm 3,1 UV-I 545 W/m 1,8 C 14,6 C 9,7 km/h (2 Bft) 100,00 %
18.09.2019 14:58 14,7 C 28,3 C 40 % 1023,8 hPa 0,0 l/m 11,3 km/h (2 Bft) W-NW 292 1 min 0,000 mm 3,1 UV-I 547 W/m 1,2 C 12,2 C 16,1 km/h (3 Bft) 100,00 %
18.09.2019 14:57 14,7 C 28,9 C 42 % 1023,7 hPa 0,0 l/m 9,7 km/h (2 Bft) W 270 1 min 0,000 mm 3,1 UV-I 547 W/m 1,9 C 12,9 C 14,5 km/h (3 Bft) 100,00 %
18.09.2019 14:56 14,6 C 28,9 C 43 % 1023,7 hPa 0,0 l/m 4,8 km/h (1 Bft) SW 225 1 min 0,000 mm 3,1 UV-I 547 W/m 2,2 C 14,6 C 6,4 km/h (2 Bft) 100,00 %
18.09.2019 14:55 14,4 C 28,3 C 44 % 1023,7 hPa 0,0 l/m 1,6 km/h (1 Bft) SW 225 1 min 0,000 mm 3,2 UV-I 550 W/m 2,3 C 14,4 C 4,8 km/h (1 Bft) 100,00 %
18.09.2019 14:54 14,3 C 28,3 C 42 % 1023,7 hPa 0,0 l/m 4,8 km/h (1 Bft) W-SW 247 1 min 0,000 mm 3,2 UV-I 552 W/m 1,6 C 14,3 C 9,7 km/h (2 Bft) 95,65 %
18.09.2019 14:53 14,2 C 28,9 C 44 % 1023,7 hPa 0,0 l/m 3,2 km/h (1 Bft) W-SW 247 1 min 0,000 mm 3,2 UV-I 554 W/m 2,1 C 14,2 C 6,4 km/h (2 Bft) 95,65 %
18.09.2019 14:52 14,3 C 28,9 C 41 % 1023,8 hPa 0,0 l/m 6,4 km/h (2 Bft) SW 225 1 min 0,000 mm 3,2 UV-I 555 W/m 1,2 C 14,3 C 12,9 km/h (3 Bft) 100,00 %
18.09.2019 14:51 14,3 C 28,9 C 42 % 1023,8 hPa 0,0 l/m 9,7 km/h (2 Bft) W-SW 247 1 min 0,000 mm 3,2 UV-I 557 W/m 1,6 C 12,5 C 12,9 km/h (3 Bft) 95,65 %
18.09.2019 14:50 14,4 C 28,3 C 43 % 1023,7 hPa 0,0 l/m 6,4 km/h (2 Bft) W-SW 247 1 min 0,000 mm 3,3 UV-I 555 W/m 2,0 C 14,4 C 11,3 km/h (2 Bft) 91,30 %
18.09.2019 14:49 14,4 C 27,2 C 44 % 1023,7 hPa 0,0 l/m 3,2 km/h (1 Bft) W 270 1 min 0,000 mm 3,3 UV-I 559 W/m 2,3 C 14,4 C 4,8 km/h (1 Bft) 95,65 %
18.09.2019 14:48 14,3 C 26,7 C 44 % 1023,8 hPa 0,0 l/m 3,2 km/h (1 Bft) SW 225 1 min 0,000 mm 3,3 UV-I 561 W/m 2,2 C 14,3 C 3,2 km/h (1 Bft) 100,00 %
18.09.2019 14:47 14,3 C 27,2 C 43 % 1023,8 hPa 0,0 l/m 6,4 km/h (2 Bft) SW 225 1 min 0,000 mm 3,3 UV-I 563 W/m 1,9 C 14,3 C 11,3 km/h (2 Bft) 95,65 %
18.09.2019 14:46 14,3 C 29,4 C 43 % 1023,7 hPa 0,0 l/m 8,0 km/h (2 Bft) SW 225 1 min 0,000 mm 3,3 UV-I 564 W/m 1,9 C 13,4 C 14,5 km/h (3 Bft) 95,65 %
18.09.2019 14:45 14,3 C 30,0 C 43 % 1023,8 hPa 0,0 l/m 6,4 km/h (2 Bft) S-SW 202 1 min 0,000 mm 3,3 UV-I 563 W/m 1,9 C 14,3 C 11,3 km/h (2 Bft) 95,65 %
18.09.2019 14:44 14,3 C 31,1 C 44 % 1023,8 hPa 0,0 l/m 6,4 km/h (2 Bft) SW 225 1 min 0,000 mm 3,4 UV-I 564 W/m 2,2 C 14,3 C 11,3 km/h (2 Bft) 100,00 %
18.09.2019 14:43 14,3 C 30,6 C 44 % 1023,8 hPa 0,0 l/m 4,8 km/h (1 Bft) W-SW 247 1 min 0,000 mm 3,4 UV-I 568 W/m 2,2 C 14,3 C 11,3 km/h (2 Bft) 100,00 %
18.09.2019 14:42 14,3 C 30,0 C 43 % 1023,9 hPa 0,0 l/m 4,8 km/h (1 Bft) W-SW 247 1 min 0,000 mm 3,4 UV-I 568 W/m 1,9 C 14,3 C 9,7 km/h (2 Bft) 95,65 %
18.09.2019 14:41 14,3 C 30,0 C 43 % 1023,9 hPa 0,0 l/m 9,7 km/h (2 Bft) W 270 1 min 0,000 mm 3,4 UV-I 573 W/m 1,9 C 12,5 C 14,5 km/h (3 Bft) 100,00 %
18.09.2019 14:40 14,2 C 29,4 C 46 % 1023,9 hPa 0,0 l/m 4,8 km/h (1 Bft) W-SW 247 1 min 0,000 mm 3,4 UV-I 571 W/m 2,8 C 14,2 C 16,1 km/h (3 Bft) 100,00 %
18.09.2019 14:39 14,1 C 28,9 C 45 % 1023,9 hPa 0,0 l/m 3,2 km/h (1 Bft) W-SW 247 1 min 0,000 mm 3,4 UV-I 548 W/m 2,4 C 14,1 C 4,8 km/h (1 Bft) 95,65 %
18.09.2019 14:38 14,1 C 29,4 C 44 % 1023,9 hPa 0,0 l/m 4,8 km/h (1 Bft) W-SW 247 1 min 0,000 mm 3,5 UV-I 575 W/m 2,0 C 14,1 C 6,4 km/h (2 Bft) 95,65 %
18.09.2019 14:37 14,2 C 30,0 C 44 % 1023,9 hPa 0,0 l/m 9,7 km/h (2 Bft) W 270 1 min 0,000 mm 3,5 UV-I 575 W/m 2,1 C 12,4 C 16,1 km/h (3 Bft) 100,00 %
18.09.2019 14:36 14,2 C 30,0 C 45 % 1023,9 hPa 0,0 l/m 4,8 km/h (1 Bft) W-SW 247 1 min 0,000 mm 3,5 UV-I 577 W/m 2,4 C 14,2 C 11,3 km/h (2 Bft) 100,00 %
18.09.2019 14:35 14,3 C 29,4 C 44 % 1023,8 hPa 0,0 l/m 8,0 km/h (2 Bft) W 270 1 min 0,000 mm 3,5 UV-I 578 W/m 2,2 C 13,4 C 12,9 km/h (3 Bft) 100,00 %
18.09.2019 14:34 14,3 C 29,4 C 46 % 1023,9 hPa 0,0 l/m 1,6 km/h (1 Bft) W 270 1 min 0,000 mm 3,5 UV-I 578 W/m 2,8 C 14,3 C 8,0 km/h (2 Bft) 100,00 %
18.09.2019 14:33 14,2 C 29,4 C 45 % 1023,9 hPa 0,0 l/m 4,8 km/h (1 Bft) SW 225 1 min 0,000 mm 3,6 UV-I 580 W/m 2,4 C 14,2 C 6,4 km/h (2 Bft) 100,00 %
18.09.2019 14:32 14,2 C 30,6 C 45 % 1023,9 hPa 0,0 l/m 4,8 km/h (1 Bft) W 270 1 min 0,000 mm 3,6 UV-I 580 W/m 2,4 C 14,2 C 8,0 km/h (2 Bft) 91,30 %
18.09.2019 14:31 14,2 C 29,4 C 45 % 1023,9 hPa 0,0 l/m 4,8 km/h (1 Bft) W 270 1 min 0,000 mm 3,6 UV-I 582 W/m 2,4 C 14,2 C 9,7 km/h (2 Bft) 100,00 %
18.09.2019 14:30 14,2 C 30,0 C 45 % 1023,9 hPa 0,0 l/m 6,4 km/h (2 Bft) W-SW 247 1 min 0,000 mm 3,6 UV-I 584 W/m 2,4 C 14,2 C 9,7 km/h (2 Bft) 95,65 %
18.09.2019 14:29 14,2 C 30,0 C 46 % 1023,9 hPa 0,0 l/m 4,8 km/h (1 Bft) W-SW 247 1 min 0,000 mm 3,6 UV-I 585 W/m 2,8 C 14,2 C 9,7 km/h (2 Bft) 95,65 %
18.09.2019 14:28 14,1 C 29,4 C 46 % 1023,9 hPa 0,0 l/m 4,8 km/h (1 Bft) W 270 1 min 0,000 mm 3,6 UV-I 585 W/m 2,7 C 14,1 C 8,0 km/h (2 Bft) 100,00 %
18.09.2019 14:27 14,0 C 28,9 C 45 % 1023,9 hPa 0,0 l/m 3,2 km/h (1 Bft) NW 315 1 min 0,000 mm 3,6 UV-I 585 W/m 2,3 C 14,0 C 6,4 km/h (2 Bft) 91,30 %
18.09.2019 14:26 13,9 C 28,3 C 45 % 1023,8 hPa 0,0 l/m 3,2 km/h (1 Bft) NW 315 1 min 0,000 mm 3,6 UV-I 587 W/m 2,2 C 13,9 C 6,4 km/h (2 Bft) 100,00 %
18.09.2019 14:25 13,8 C 27,2 C 44 % 1024,0 hPa 0,0 l/m 3,2 km/h (1 Bft) NW 315 1 min 0,000 mm 3,6 UV-I 589 W/m 1,8 C 13,8 C 3,2 km/h (1 Bft) 91,30 %
18.09.2019 14:24 13,9 C 27,2 C 43 % 1024,0 hPa 0,0 l/m 9,7 km/h (2 Bft) W-NW 292 1 min 0,000 mm 3,7 UV-I 589 W/m 1,5 C 12,0 C 14,5 km/h (3 Bft) 100,00 %
18.09.2019 14:23 14,1 C 26,7 C 44 % 1024,0 hPa 0,0 l/m 4,8 km/h (1 Bft) W-NW 292 1 min 0,000 mm 3,7 UV-I 591 W/m 2,0 C 14,1 C 11,3 km/h (2 Bft) 100,00 %
18.09.2019 14:22 14,1 C 25,6 C 47 % 1023,9 hPa 0,0 l/m 8,0 km/h (2 Bft) W-NW 292 1 min 0,000 mm 3,7 UV-I 591 W/m 3,0 C 13,2 C 12,9 km/h (3 Bft) 100,00 %
18.09.2019 14:21 14,1 C 24,4 C 47 % 1024,0 hPa 0,0 l/m 6,4 km/h (2 Bft) NW 315 1 min 0,000 mm 3,7 UV-I 594 W/m 3,0 C 14,1 C 9,7 km/h (2 Bft) 100,00 %
18.09.2019 14:20 13,9 C 24,4 C 45 % 1024,0 hPa 0,0 l/m 6,4 km/h (2 Bft) S-SW 202 1 min 0,000 mm 3,8 UV-I 596 W/m 2,2 C 13,9 C 9,7 km/h (2 Bft) 95,65 %
18.09.2019 14:19 13,9 C 24,4 C 44 % 1024,0 hPa 0,0 l/m 3,2 km/h (1 Bft) S 180 1 min 0,000 mm 3,8 UV-I 594 W/m 1,9 C 13,9 C 6,4 km/h (2 Bft) 100,00 %
18.09.2019 14:18 14,1 C 24,4 C 44 % 1024,0 hPa 0,0 l/m 6,4 km/h (2 Bft) S 180 1 min 0,000 mm 3,8 UV-I 596 W/m 2,0 C 14,1 C 9,7 km/h (2 Bft) 100,00 %
18.09.2019 14:17 14,1 C 26,1 C 45 % 1024,0 hPa 0,0 l/m 11,3 km/h (2 Bft) SW 225 1 min 0,000 mm 3,8 UV-I 596 W/m 2,4 C 11,5 C 16,1 km/h (3 Bft) 100,00 %
18.09.2019 14:16 14,1 C 26,1 C 50 % 1024,0 hPa 0,0 l/m 3,2 km/h (1 Bft) S-SW 202 1 min 0,000 mm 3,8 UV-I 598 W/m 3,8 C 14,1 C 6,4 km/h (2 Bft) 100,00 %
18.09.2019 14:15 13,9 C 26,1 C 45 % 1024,0 hPa 0,0 l/m 4,8 km/h (1 Bft) W 270 1 min 0,000 mm 3,8 UV-I 601 W/m 2,2 C 13,9 C 9,7 km/h (2 Bft) 100,00 %
18.09.2019 14:14 14,1 C 26,7 C 45 % 1024,0 hPa 0,0 l/m 8,0 km/h (2 Bft) W-SW 247 1 min 0,000 mm 3,8 UV-I 601 W/m 2,4 C 13,2 C 11,3 km/h (2 Bft) 100,00 %
18.09.2019 14:13 14,2 C 28,3 C 44 % 1024,1 hPa 0,0 l/m 11,3 km/h (2 Bft) S-SW 202 1 min 0,000 mm 3,9 UV-I 603 W/m 2,1 C 11,6 C 14,5 km/h (3 Bft) 95,65 %
18.09.2019 14:12 14,2 C 28,9 C 47 % 1024,0 hPa 0,0 l/m 6,4 km/h (2 Bft) W-NW 292 1 min 0,000 mm 3,9 UV-I 606 W/m 3,1 C 14,2 C 9,7 km/h (2 Bft) 95,65 %
18.09.2019 14:11 14,1 C 29,4 C 47 % 1024,1 hPa 0,0 l/m 8,0 km/h (2 Bft) W-SW 247 1 min 0,000 mm 3,9 UV-I 605 W/m 3,0 C 13,2 C 12,9 km/h (3 Bft) 100,00 %
18.09.2019 14:10 14,1 C 30,0 C 46 % 1024,1 hPa 0,0 l/m 3,2 km/h (1 Bft) W-NW 292 1 min 0,000 mm 3,9 UV-I 605 W/m 2,7 C 14,1 C 6,4 km/h (2 Bft) 100,00 %
18.09.2019 14:09 14,1 C 29,4 C 47 % 1024,0 hPa 0,0 l/m 6,4 km/h (2 Bft) W 270 1 min 0,000 mm 3,9 UV-I 606 W/m 3,0 C 14,1 C 11,3 km/h (2 Bft) 100,00 %
18.09.2019 14:08 14,1 C 28,9 C 46 % 1024,1 hPa 0,0 l/m 9,7 km/h (2 Bft) W 270 1 min 0,000 mm 3,9 UV-I 606 W/m 2,7 C 12,3 C 14,5 km/h (3 Bft) 100,00 %
18.09.2019 14:07 14,1 C 29,4 C 46 % 1024,0 hPa 0,0 l/m 6,4 km/h (2 Bft) SW 225 1 min 0,000 mm 4,0 UV-I 608 W/m 2,7 C 14,1 C 11,3 km/h (2 Bft) 100,00 %
18.09.2019 14:06 14,1 C 30,0 C 45 % 1024,1 hPa 0,0 l/m 6,4 km/h (2 Bft) SW 225 1 min 0,000 mm 4,0 UV-I 606 W/m 2,4 C 14,1 C 12,9 km/h (3 Bft) 95,65 %
18.09.2019 14:05 14,1 C 30,0 C 48 % 1024,1 hPa 0,0 l/m 3,2 km/h (1 Bft) SW 225 1 min 0,000 mm 4,0 UV-I 608 W/m 3,3 C 14,1 C 6,4 km/h (2 Bft) 91,30 %
18.09.2019 14:04 13,9 C 30,6 C 47 % 1024,1 hPa 0,0 l/m 4,8 km/h (1 Bft) W 270 1 min 0,000 mm 4,0 UV-I 610 W/m 2,8 C 13,9 C 9,7 km/h (2 Bft) 100,00 %
18.09.2019 14:03 13,9 C 31,1 C 48 % 1024,1 hPa 0,0 l/m 6,4 km/h (2 Bft) W 270 1 min 0,000 mm 4,0 UV-I 612 W/m 3,1 C 13,9 C 12,9 km/h (3 Bft) 100,00 %
18.09.2019 14:02 13,8 C 30,6 C 49 % 1024,0 hPa 0,0 l/m 6,4 km/h (2 Bft) S-SW 202 1 min 0,000 mm 4,0 UV-I 613 W/m 3,3 C 13,8 C 11,3 km/h (2 Bft) 100,00 %
18.09.2019 14:01 13,7 C 30,6 C 47 % 1024,1 hPa 0,0 l/m 3,2 km/h (1 Bft) W-NW 292 1 min 0,000 mm 4,0 UV-I 615 W/m 2,6 C 13,7 C 9,7 km/h (2 Bft) 100,00 %
18.09.2019 14:00 13,7 C 29,4 C 46 % 1024,1 hPa 0,0 l/m 4,8 km/h (1 Bft) W-NW 292 1 min 0,356 mm 4,0 UV-I 615 W/m 2,3 C 13,7 C 6,4 km/h (2 Bft) 100,00 %
18.09.2019 13:59 13,7 C 28,3 C 47 % 1024,1 hPa 0,0 l/m 4,8 km/h (1 Bft) W 270 1 min 0,000 mm 3,9 UV-I 619 W/m 2,6 C 13,7 C 8,0 km/h (2 Bft) 100,00 %
18.09.2019 13:58 13,7 C 27,8 C 46 % 1024,2 hPa 0,0 l/m 4,8 km/h (1 Bft) W-SW 247 1 min 0,000 mm 4,0 UV-I 619 W/m 2,3 C 13,7 C 8,0 km/h (2 Bft) 95,65 %
18.09.2019 13:57 13,8 C 29,4 C 45 % 1024,2 hPa 0,0 l/m 9,7 km/h (2 Bft) SW 225 1 min 0,000 mm 4,0 UV-I 619 W/m 2,1 C 11,9 C 12,9 km/h (3 Bft) 100,00 %
18.09.2019 13:56 13,8 C 30,0 C 48 % 1024,1 hPa 0,0 l/m 4,8 km/h (1 Bft) W-SW 247 1 min 0,000 mm 4,1 UV-I 621 W/m 3,0 C 13,8 C 8,0 km/h (2 Bft) 95,65 %
18.09.2019 13:55 13,8 C 31,1 C 46 % 1024,2 hPa 0,0 l/m 8,0 km/h (2 Bft) SW 225 1 min 0,000 mm 4,1 UV-I 619 W/m 2,4 C 12,8 C 12,9 km/h (3 Bft) 100,00 %
18.09.2019 13:54 13,8 C 31,7 C 46 % 1024,1 hPa 0,0 l/m 4,8 km/h (1 Bft) W-SW 247 1 min 0,000 mm 4,1 UV-I 621 W/m 2,4 C 13,8 C 9,7 km/h (2 Bft) 100,00 %
18.09.2019 13:53 13,8 C 30,6 C 46 % 1024,1 hPa 0,0 l/m 4,8 km/h (1 Bft) W-SW 247 1 min 0,000 mm 4,1 UV-I 621 W/m 2,4 C 13,8 C 8,0 km/h (2 Bft) 95,65 %
18.09.2019 13:52 13,8 C 29,4 C 46 % 1024,2 hPa 0,0 l/m 1,6 km/h (1 Bft) W-NW 292 1 min 0,000 mm 4,1 UV-I 621 W/m 2,4 C 13,8 C 8,0 km/h (2 Bft) 100,00 %
18.09.2019 13:51 13,7 C 29,4 C 46 % 1024,1 hPa 0,0 l/m 4,8 km/h (1 Bft) W-NW 292 1 min 0,000 mm 4,1 UV-I 621 W/m 2,3 C 13,7 C 11,3 km/h (2 Bft) 100,00 %
18.09.2019 13:50 13,6 C 30,0 C 47 % 1024,2 hPa 0,0 l/m 9,7 km/h (2 Bft) NW 315 1 min 0,000 mm 4,1 UV-I 622 W/m 2,5 C 11,7 C 14,5 km/h (3 Bft) 100,00 %
18.09.2019 13:49 13,6 C 30,0 C 47 % 1024,3 hPa 0,0 l/m 11,3 km/h (2 Bft) NW 315 1 min 0,000 mm 4,1 UV-I 621 W/m 2,5 C 11,0 C 16,1 km/h (3 Bft) 100,00 %
18.09.2019 13:48 13,6 C 28,9 C 47 % 1024,2 hPa 0,0 l/m 8,0 km/h (2 Bft) W-NW 292 1 min 0,000 mm 4,2 UV-I 622 W/m 2,5 C 12,6 C 12,9 km/h (3 Bft) 100,00 %
18.09.2019 13:47 13,4 C 28,3 C 48 % 1024,2 hPa 0,0 l/m 4,8 km/h (1 Bft) W 270 1 min 0,000 mm 4,2 UV-I 622 W/m 2,6 C 13,4 C 6,4 km/h (2 Bft) 100,00 %
18.09.2019 13:46 13,5 C 27,2 C 49 % 1024,2 hPa 0,0 l/m 4,8 km/h (1 Bft) W-SW 247 1 min 0,000 mm 4,2 UV-I 624 W/m 3,0 C 13,5 C 9,7 km/h (2 Bft) 95,65 %
18.09.2019 13:45 13,5 C 27,2 C 48 % 1024,1 hPa 0,0 l/m 4,8 km/h (1 Bft) W-SW 247 1 min 0,000 mm 4,2 UV-I 626 W/m 2,7 C 13,5 C 6,4 km/h (2 Bft) 100,00 %
18.09.2019 13:44 13,6 C 27,2 C 48 % 1024,2 hPa 0,0 l/m 4,8 km/h (1 Bft) W 270 1 min 0,000 mm 4,2 UV-I 559 W/m 2,8 C 13,6 C 6,4 km/h (2 Bft) 95,65 %
18.09.2019 13:43 13,7 C 27,2 C 47 % 1024,3 hPa 0,0 l/m 6,4 km/h (2 Bft) W 270 1 min 0,000 mm 4,2 UV-I 577 W/m 2,6 C 13,7 C 9,7 km/h (2 Bft) 100,00 %
18.09.2019 13:42 13,7 C 27,8 C 49 % 1024,3 hPa 0,0 l/m 6,4 km/h (2 Bft) SW 225 1 min 0,000 mm 4,2 UV-I 629 W/m 3,2 C 13,7 C 9,7 km/h (2 Bft) 95,65 %
18.09.2019 13:41 13,8 C 29,4 C 49 % 1024,2 hPa 0,0 l/m 6,4 km/h (2 Bft) W-SW 247 1 min 0,000 mm 4,3 UV-I 631 W/m 3,3 C 13,8 C 16,1 km/h (3 Bft) 100,00 %
18.09.2019 13:40 13,7 C 29,4 C 50 % 1024,2 hPa 0,0 l/m 6,4 km/h (2 Bft) SW 225 1 min 0,000 mm 4,3 UV-I 629 W/m 3,5 C 13,7 C 12,9 km/h (3 Bft) 100,00 %
18.09.2019 13:39 13,6 C 30,6 C 49 % 1024,2 hPa 0,0 l/m 1,6 km/h (1 Bft) W-NW 292 1 min 0,000 mm 4,3 UV-I 629 W/m 3,1 C 13,6 C 3,2 km/h (1 Bft) 100,00 %
18.09.2019 13:38 13,5 C 30,0 C 50 % 1024,2 hPa 0,0 l/m 3,2 km/h (1 Bft) W-NW 292 1 min 0,000 mm 4,3 UV-I 631 W/m 3,3 C 13,5 C 8,0 km/h (2 Bft) 100,00 %
18.09.2019 13:37 13,4 C 30,0 C 48 % 1024,2 hPa 0,0 l/m 6,4 km/h (2 Bft) W-SW 247 1 min 0,000 mm 4,3 UV-I 631 W/m 2,6 C 13,4 C 11,3 km/h (2 Bft) 100,00 %
18.09.2019 13:36 13,4 C 30,6 C 49 % 1024,2 hPa 0,0 l/m 3,2 km/h (1 Bft) W-SW 247 1 min 0,000 mm 4,3 UV-I 629 W/m 2,9 C 13,4 C 6,4 km/h (2 Bft) 95,65 %
18.09.2019 13:35 13,3 C 30,0 C 50 % 1024,3 hPa 0,0 l/m 3,2 km/h (1 Bft) SW 225 1 min 0,000 mm 4,3 UV-I 629 W/m 3,1 C 13,3 C 4,8 km/h (1 Bft) 100,00 %
18.09.2019 13:34 13,2 C 30,0 C 50 % 1024,3 hPa 0,0 l/m 4,8 km/h (1 Bft) W 270 1 min 0,000 mm 4,3 UV-I 633 W/m 3,0 C 13,2 C 6,4 km/h (2 Bft) 100,00 %
18.09.2019 13:33 13,3 C 30,0 C 48 % 1024,3 hPa 0,0 l/m 6,4 km/h (2 Bft) W 270 1 min 0,000 mm 4,3 UV-I 631 W/m 2,5 C 13,3 C 9,7 km/h (2 Bft) 100,00 %
18.09.2019 13:32 13,3 C 29,4 C 48 % 1024,3 hPa 0,0 l/m 6,4 km/h (2 Bft) W 270 1 min 0,000 mm 4,3 UV-I 631 W/m 2,5 C 13,3 C 9,7 km/h (2 Bft) 100,00 %
18.09.2019 13:31 13,3 C 28,9 C 49 % 1024,3 hPa 0,0 l/m 3,2 km/h (1 Bft) SW 225 1 min 0,000 mm 4,3 UV-I 631 W/m 2,8 C 13,3 C 4,8 km/h (1 Bft) 100,00 %
18.09.2019 13:30 13,3 C 28,9 C 48 % 1024,2 hPa 0,0 l/m 3,2 km/h (1 Bft) SW 225 1 min 0,000 mm 4,3 UV-I 628 W/m 2,5 C 13,3 C 4,8 km/h (1 Bft) 100,00 %
18.09.2019 13:29 13,4 C 29,4 C 49 % 1024,3 hPa 0,0 l/m 6,4 km/h (2 Bft) W-SW 247 1 min 0,000 mm 4,3 UV-I 629 W/m 2,9 C 13,4 C 11,3 km/h (2 Bft) 100,00 %
18.09.2019 13:28 13,4 C 30,6 C 53 % 1024,3 hPa 0,0 l/m 4,8 km/h (1 Bft) S-SW 202 1 min 0,000 mm 4,3 UV-I 629 W/m 4,0 C 13,4 C 6,4 km/h (2 Bft) 100,00 %
18.09.2019 13:27 13,2 C 30,0 C 51 % 1024,3 hPa 0,0 l/m 3,2 km/h (1 Bft) W 270 1 min 0,000 mm 4,3 UV-I 633 W/m 3,3 C 13,2 C 4,8 km/h (1 Bft) 95,65 %
18.09.2019 13:26 13,2 C 30,0 C 48 % 1024,2 hPa 0,0 l/m 3,2 km/h (1 Bft) W 270 1 min 0,000 mm 4,3 UV-I 633 W/m 2,4 C 13,2 C 4,8 km/h (1 Bft) 100,00 %
18.09.2019 13:25 13,3 C 29,4 C 48 % 1024,3 hPa 0,0 l/m 6,4 km/h (2 Bft) W-NW 292 1 min 0,000 mm 4,3 UV-I 636 W/m 2,5 C 13,3 C 12,9 km/h (3 Bft) 100,00 %
18.09.2019 13:24 13,3 C 30,6 C 50 % 1024,3 hPa 0,0 l/m 6,4 km/h (2 Bft) W-SW 247 1 min 0,000 mm 4,4 UV-I 635 W/m 3,1 C 13,3 C 9,7 km/h (2 Bft) 95,65 %
18.09.2019 13:23 13,3 C 30,6 C 51 % 1024,3 hPa 0,0 l/m 6,4 km/h (2 Bft) S-SW 202 1 min 0,000 mm 4,4 UV-I 636 W/m 3,4 C 13,3 C 11,3 km/h (2 Bft) 100,00 %
18.09.2019 13:22 13,3 C 30,6 C 52 % 1024,3 hPa 0,0 l/m 1,6 km/h (1 Bft) S-SW 202 1 min 0,000 mm 4,4 UV-I 638 W/m 3,7 C 13,3 C 6,4 km/h (2 Bft) 95,65 %
18.09.2019 13:21 13,3 C 30,6 C 52 % 1024,3 hPa 0,0 l/m 3,2 km/h (1 Bft) SW 225 1 min 0,000 mm 4,4 UV-I 635 W/m 3,7 C 13,3 C 8,0 km/h (2 Bft) 100,00 %
18.09.2019 13:20 13,3 C 29,4 C 50 % 1024,3 hPa 0,0 l/m 3,2 km/h (1 Bft) SW 225 1 min 0,000 mm 4,4 UV-I 638 W/m 3,1 C 13,3 C 6,4 km/h (2 Bft) 95,65 %
18.09.2019 13:19 13,3 C 29,4 C 50 % 1024,2 hPa 0,0 l/m 6,4 km/h (2 Bft) W-SW 247 1 min 0,000 mm 4,4 UV-I 631 W/m 3,1 C 13,3 C 11,3 km/h (2 Bft) 100,00 %
18.09.2019 13:18 13,3 C 31,7 C 50 % 1024,4 hPa 0,0 l/m 4,8 km/h (1 Bft) W-SW 247 1 min 0,000 mm 4,3 UV-I 629 W/m 3,1 C 13,3 C 9,7 km/h (2 Bft) 100,00 %
18.09.2019 13:17 13,3 C 31,7 C 53 % 1024,3 hPa 0,0 l/m 6,4 km/h (2 Bft) SW 225 1 min 0,000 mm 4,4 UV-I 631 W/m 3,9 C 13,3 C 9,7 km/h (2 Bft) 100,00 %
18.09.2019 13:16 13,3 C 31,1 C 50 % 1024,3 hPa 0,0 l/m 4,8 km/h (1 Bft) W 270 1 min 0,000 mm 4,4 UV-I 636 W/m 3,1 C 13,3 C 11,3 km/h (2 Bft) 100,00 %
18.09.2019 13:15 13,4 C 30,6 C 47 % 1024,4 hPa 0,0 l/m 4,8 km/h (1 Bft) W 270 1 min 0,000 mm 4,4 UV-I 636 W/m 2,3 C 13,4 C 6,4 km/h (2 Bft) 95,65 %
18.09.2019 13:14 13,5 C 30,0 C 43 % 1024,3 hPa 0,0 l/m 4,8 km/h (1 Bft) W 270 1 min 0,000 mm 4,4 UV-I 638 W/m 1,2 C 13,5 C 9,7 km/h (2 Bft) 100,00 %
18.09.2019 13:13 13,6 C 29,4 C 46 % 1024,4 hPa 0,0 l/m 4,8 km/h (1 Bft) W 270 1 min 0,000 mm 4,4 UV-I 638 W/m 2,2 C 13,6 C 6,4 km/h (2 Bft) 100,00 %
18.09.2019 13:12 13,4 C 28,3 C 45 % 1024,4 hPa 0,0 l/m 4,8 km/h (1 Bft) W-SW 247 1 min 0,000 mm 4,4 UV-I 638 W/m 1,7 C 13,4 C 8,0 km/h (2 Bft) 95,65 %
18.09.2019 13:11 13,5 C 28,3 C 45 % 1024,4 hPa 0,0 l/m 6,4 km/h (2 Bft) W 270 1 min 0,000 mm 4,4 UV-I 638 W/m 1,8 C 13,5 C 22,5 km/h (4 Bft) 100,00 %
18.09.2019 13:10 13,6 C 28,9 C 48 % 1024,5 hPa 0,0 l/m 6,4 km/h (2 Bft) SW 225 1 min 0,000 mm 4,4 UV-I 636 W/m 2,8 C 13,6 C 14,5 km/h (3 Bft) 95,65 %
18.09.2019 13:09 13,5 C 30,0 C 48 % 1024,4 hPa 0,0 l/m 6,4 km/h (2 Bft) SW 225 1 min 0,000 mm 4,4 UV-I 636 W/m 2,7 C 13,5 C 22,5 km/h (4 Bft) 100,00 %
18.09.2019 13:08 13,4 C 29,4 C 49 % 1024,4 hPa 0,0 l/m 3,2 km/h (1 Bft) SW 225 1 min 0,000 mm 4,4 UV-I 640 W/m 2,9 C 13,4 C 4,8 km/h (1 Bft) 100,00 %
18.09.2019 13:07 13,4 C 28,9 C 45 % 1024,4 hPa 0,0 l/m 6,4 km/h (2 Bft) W-NW 292 1 min 0,000 mm 4,4 UV-I 638 W/m 1,7 C 13,4 C 12,9 km/h (3 Bft) 100,00 %
18.09.2019 13:06 13,5 C 28,3 C 46 % 1024,5 hPa 0,0 l/m 4,8 km/h (1 Bft) W-SW 247 1 min 0,000 mm 4,4 UV-I 640 W/m 2,1 C 13,5 C 8,0 km/h (2 Bft) 100,00 %
18.09.2019 13:05 13,5 C 28,3 C 48 % 1024,5 hPa 0,0 l/m 3,2 km/h (1 Bft) SW 225 1 min 0,000 mm 4,4 UV-I 640 W/m 2,7 C 13,5 C 8,0 km/h (2 Bft) 100,00 %
18.09.2019 13:04 13,5 C 28,9 C 46 % 1024,4 hPa 0,0 l/m 6,4 km/h (2 Bft) SW 225 1 min 0,000 mm 4,4 UV-I 638 W/m 2,1 C 13,5 C 11,3 km/h (2 Bft) 100,00 %
18.09.2019 13:03 13,4 C 28,3 C 47 % 1024,5 hPa 0,0 l/m 4,8 km/h (1 Bft) S-SW 202 1 min 0,000 mm 4,4 UV-I 640 W/m 2,3 C 13,4 C 6,4 km/h (2 Bft) 95,65 %
18.09.2019 13:02 13,4 C 27,8 C 49 % 1024,4 hPa 0,0 l/m 3,2 km/h (1 Bft) W 270 1 min 0,000 mm 4,4 UV-I 638 W/m 2,9 C 13,4 C 4,8 km/h (1 Bft) 100,00 %
18.09.2019 13:01 13,2 C 26,1 C 49 % 1024,4 hPa 0,0 l/m 1,6 km/h (1 Bft) NW 315 1 min 0,000 mm 4,4 UV-I 640 W/m 2,7 C 13,2 C 4,8 km/h (1 Bft) 95,65 %
18.09.2019 13:00 13,2 C 27,2 C 46 % 1024,4 hPa 0,0 l/m 8,0 km/h (2 Bft) SW 225 1 min 0,356 mm 4,4 UV-I 638 W/m 1,8 C 12,2 C 12,9 km/h (3 Bft) 100,00 %
18.09.2019 12:59 13,2 C 28,3 C 50 % 1024,5 hPa 0,0 l/m 4,8 km/h (1 Bft) S-SW 202 1 min 0,000 mm 4,4 UV-I 638 W/m 3,0 C 13,2 C 8,0 km/h (2 Bft) 95,65 %
18.09.2019 12:58 13,1 C 29,4 C 47 % 1024,5 hPa 0,0 l/m 3,2 km/h (1 Bft) W 270 1 min 0,000 mm 4,4 UV-I 638 W/m 2,0 C 13,1 C 6,4 km/h (2 Bft) 100,00 %
18.09.2019 12:57 13,1 C 29,4 C 47 % 1024,5 hPa 0,0 l/m 6,4 km/h (2 Bft) SW 225 1 min 0,000 mm 4,4 UV-I 640 W/m 2,0 C 13,1 C 11,3 km/h (2 Bft) 100,00 %
18.09.2019 12:56 13,0 C 30,0 C 47 % 1024,5 hPa 0,0 l/m 4,8 km/h (1 Bft) W-SW 247 1 min 0,000 mm 4,4 UV-I 638 W/m 2,0 C 13,0 C 9,7 km/h (2 Bft) 100,00 %
18.09.2019 12:55 12,9 C 30,6 C 47 % 1024,5 hPa 0,0 l/m 4,8 km/h (1 Bft) W 270 1 min 0,000 mm 4,4 UV-I 640 W/m 1,9 C 12,9 C 6,4 km/h (2 Bft) 100,00 %
18.09.2019 12:54 13,0 C 29,4 C 45 % 1024,5 hPa 0,0 l/m 4,8 km/h (1 Bft) W-NW 292 1 min 0,000 mm 4,4 UV-I 638 W/m 1,4 C 13,0 C 6,4 km/h (2 Bft) 100,00 %
18.09.2019 12:53 13,2 C 28,9 C 46 % 1024,6 hPa 0,0 l/m 6,4 km/h (2 Bft) SW 225 1 min 0,000 mm 4,4 UV-I 640 W/m 1,8 C 13,2 C 12,9 km/h (3 Bft) 95,65 %
18.09.2019 12:52 13,3 C 29,4 C 49 % 1024,5 hPa 0,0 l/m 4,8 km/h (1 Bft) S-SW 202 1 min 0,000 mm 4,4 UV-I 638 W/m 2,8 C 13,3 C 9,7 km/h (2 Bft) 100,00 %
18.09.2019 12:51 13,2 C 28,9 C 47 % 1024,5 hPa 0,0 l/m 4,8 km/h (1 Bft) S-SW 202 1 min 0,000 mm 4,4 UV-I 636 W/m 2,1 C 13,2 C 9,7 km/h (2 Bft) 100,00 %
18.09.2019 12:50 13,1 C 28,3 C 49 % 1024,6 hPa 0,0 l/m 3,2 km/h (1 Bft) SW 225 1 min 0,000 mm 4,4 UV-I 636 W/m 2,6 C 13,1 C 4,8 km/h (1 Bft) 100,00 %
18.09.2019 12:49 13,0 C 28,3 C 47 % 1024,6 hPa 0,0 l/m 3,2 km/h (1 Bft) S-SW 202 1 min 0,000 mm 4,4 UV-I 636 W/m 2,0 C 13,0 C 8,0 km/h (2 Bft) 100,00 %
18.09.2019 12:48 12,9 C 27,8 C 47 % 1024,6 hPa 0,0 l/m 4,8 km/h (1 Bft) W 270 1 min 0,000 mm 4,4 UV-I 636 W/m 1,9 C 12,9 C 6,4 km/h (2 Bft) 100,00 %
18.09.2019 12:47 13,0 C 27,8 C 46 % 1024,6 hPa 0,0 l/m 6,4 km/h (2 Bft) W 270 1 min 0,000 mm 4,4 UV-I 636 W/m 1,7 C 13,0 C 9,7 km/h (2 Bft) 100,00 %
18.09.2019 12:46 13,1 C 27,8 C 47 % 1024,6 hPa 0,0 l/m 6,4 km/h (2 Bft) W 270 1 min 0,000 mm 4,4 UV-I 636 W/m 2,0 C 13,1 C 11,3 km/h (2 Bft) 100,00 %
18.09.2019 12:45 13,2 C 28,3 C 48 % 1024,6 hPa 0,0 l/m 8,0 km/h (2 Bft) W-SW 247 1 min 0,000 mm 4,4 UV-I 635 W/m 2,4 C 12,2 C 12,9 km/h (3 Bft) 100,00 %
18.09.2019 12:44 13,2 C 28,3 C 47 % 1024,5 hPa 0,0 l/m 6,4 km/h (2 Bft) W 270 1 min 0,000 mm 4,4 UV-I 635 W/m 2,1 C 13,2 C 11,3 km/h (2 Bft) 100,00 %
18.09.2019 12:43 13,1 C 27,8 C 50 % 1024,6 hPa 0,0 l/m 3,2 km/h (1 Bft) SW 225 1 min 0,000 mm 4,4 UV-I 635 W/m 2,9 C 13,1 C 6,4 km/h (2 Bft) 95,65 %
18.09.2019 12:42 13,0 C 27,8 C 48 % 1024,6 hPa 0,0 l/m 3,2 km/h (1 Bft) S-SW 202 1 min 0,000 mm 4,4 UV-I 633 W/m 2,3 C 13,0 C 4,8 km/h (1 Bft) 100,00 %
18.09.2019 12:41 12,9 C 28,3 C 46 % 1024,5 hPa 0,0 l/m 3,2 km/h (1 Bft) S-SW 202 1 min 0,000 mm 4,4 UV-I 635 W/m 1,6 C 12,9 C 6,4 km/h (2 Bft) 95,65 %
18.09.2019 12:40 12,9 C 28,9 C 46 % 1024,6 hPa 0,0 l/m 4,8 km/h (1 Bft) SW 225 1 min 0,000 mm 4,4 UV-I 635 W/m 1,6 C 12,9 C 8,0 km/h (2 Bft) 100,00 %
18.09.2019 12:39 13,1 C 27,8 C 45 % 1024,6 hPa 0,0 l/m 6,4 km/h (2 Bft) W-NW 292 1 min 0,000 mm 4,4 UV-I 635 W/m 1,4 C 13,1 C 11,3 km/h (2 Bft) 95,65 %
18.09.2019 12:38 13,1 C 27,2 C 47 % 1024,6 hPa 0,0 l/m 4,8 km/h (1 Bft) W-NW 292 1 min 0,000 mm 4,4 UV-I 635 W/m 2,0 C 13,1 C 11,3 km/h (2 Bft) 95,65 %
18.09.2019 12:37 13,1 C 26,1 C 47 % 1024,7 hPa 0,0 l/m 6,4 km/h (2 Bft) W 270 1 min 0,000 mm 4,4 UV-I 635 W/m 2,0 C 13,1 C 12,9 km/h (3 Bft) 100,00 %
18.09.2019 12:36 13,1 C 26,1 C 48 % 1024,5 hPa 0,0 l/m 8,0 km/h (2 Bft) W-NW 292 1 min 0,000 mm 4,4 UV-I 635 W/m 2,3 C 12,1 C 14,5 km/h (3 Bft) 91,30 %
18.09.2019 12:35 13,1 C 25,6 C 50 % 1024,5 hPa 0,0 l/m 4,8 km/h (1 Bft) SW 225 1 min 0,000 mm 4,4 UV-I 633 W/m 2,9 C 13,1 C 9,7 km/h (2 Bft) 100,00 %
18.09.2019 12:34 12,9 C 24,4 C 50 % 1024,6 hPa 0,0 l/m 3,2 km/h (1 Bft) SW 225 1 min 0,000 mm 4,3 UV-I 633 W/m 2,7 C 12,9 C 6,4 km/h (2 Bft) 100,00 %
18.09.2019 12:33 12,9 C 25,0 C 49 % 1024,6 hPa 0,0 l/m 6,4 km/h (2 Bft) S-SW 202 1 min 0,000 mm 4,3 UV-I 633 W/m 2,5 C 12,9 C 9,7 km/h (2 Bft) 100,00 %
18.09.2019 12:32 12,9 C 25,6 C 48 % 1024,6 hPa 0,0 l/m 4,8 km/h (1 Bft) W-SW 247 1 min 0,000 mm 4,3 UV-I 633 W/m 2,2 C 12,9 C 8,0 km/h (2 Bft) 100,00 %
18.09.2019 12:31 12,9 C 27,2 C 50 % 1024,6 hPa 0,0 l/m 6,4 km/h (2 Bft) SW 225 1 min 0,000 mm 4,3 UV-I 633 W/m 2,7 C 12,9 C 11,3 km/h (2 Bft) 95,65 %
18.09.2019 12:30 12,8 C 28,9 C 50 % 1024,6 hPa 0,0 l/m 3,2 km/h (1 Bft) S 180 1 min 0,000 mm 4,3 UV-I 631 W/m 2,6 C 12,8 C 4,8 km/h (1 Bft) 100,00 %
18.09.2019 12:29 12,7 C 28,9 C 49 % 1024,6 hPa 0,0 l/m 4,8 km/h (1 Bft) SW 225 1 min 0,000 mm 4,3 UV-I 631 W/m 2,3 C 12,7 C 8,0 km/h (2 Bft) 95,65 %
18.09.2019 12:28 12,6 C 28,9 C 50 % 1024,7 hPa 0,0 l/m 3,2 km/h (1 Bft) W 270 1 min 0,000 mm 4,3 UV-I 629 W/m 2,5 C 12,6 C 4,8 km/h (1 Bft) 100,00 %
18.09.2019 12:27 12,4 C 28,3 C 46 % 1024,7 hPa 0,0 l/m 4,8 km/h (1 Bft) W-NW 292 1 min 0,000 mm 4,3 UV-I 631 W/m 1,1 C 12,4 C 11,3 km/h (2 Bft) 100,00 %
18.09.2019 12:26 12,5 C 27,2 C 48 % 1024,7 hPa 0,0 l/m 4,8 km/h (1 Bft) W-SW 247 1 min 0,000 mm 4,3 UV-I 628 W/m 1,8 C 12,5 C 14,5 km/h (3 Bft) 100,00 %
18.09.2019 12:25 12,6 C 27,8 C 46 % 1024,7 hPa 0,0 l/m 4,8 km/h (1 Bft) W-SW 247 1 min 0,000 mm 4,3 UV-I 628 W/m 1,3 C 12,6 C 6,4 km/h (2 Bft) 100,00 %
18.09.2019 12:24 12,7 C 27,8 C 46 % 1024,6 hPa 0,0 l/m 6,4 km/h (2 Bft) W-SW 247 1 min 0,000 mm 4,3 UV-I 628 W/m 1,4 C 12,7 C 9,7 km/h (2 Bft) 100,00 %
18.09.2019 12:23 12,8 C 27,2 C 46 % 1024,6 hPa 0,0 l/m 4,8 km/h (1 Bft) SW 225 1 min 0,000 mm 4,3 UV-I 628 W/m 1,5 C 12,8 C 11,3 km/h (2 Bft) 100,00 %
18.09.2019 12:22 12,9 C 26,1 C 50 % 1024,7 hPa 0,0 l/m 4,8 km/h (1 Bft) W-NW 292 1 min 0,000 mm 4,3 UV-I 626 W/m 2,7 C 12,9 C 9,7 km/h (2 Bft) 95,65 %
18.09.2019 12:21 12,7 C 26,7 C 51 % 1024,6 hPa 0,0 l/m 3,2 km/h (1 Bft) SW 225 1 min 0,000 mm 4,2 UV-I 624 W/m 2,8 C 12,7 C 6,4 km/h (2 Bft) 100,00 %
18.09.2019 12:20 12,6 C 28,9 C 49 % 1024,7 hPa 0,0 l/m 8,0 km/h (2 Bft) SW 225 1 min 0,000 mm 4,2 UV-I 624 W/m 2,2 C 11,6 C 11,3 km/h (2 Bft) 100,00 %
18.09.2019 12:19 12,6 C 28,3 C 48 % 1024,7 hPa 0,0 l/m 4,8 km/h (1 Bft) N-NW 337 1 min 0,000 mm 4,2 UV-I 626 W/m 1,9 C 12,6 C 9,7 km/h (2 Bft) 100,00 %
18.09.2019 12:18 12,6 C 27,2 C 48 % 1024,7 hPa 0,0 l/m 4,8 km/h (1 Bft) W 270 1 min 0,000 mm 4,2 UV-I 626 W/m 1,9 C 12,6 C 6,4 km/h (2 Bft) 95,65 %
18.09.2019 12:17 12,6 C 28,3 C 48 % 1024,7 hPa 0,0 l/m 4,8 km/h (1 Bft) W-SW 247 1 min 0,000 mm 4,2 UV-I 628 W/m 1,9 C 12,6 C 11,3 km/h (2 Bft) 100,00 %
18.09.2019 12:16 12,6 C 28,3 C 48 % 1024,7 hPa 0,0 l/m 6,4 km/h (2 Bft) W-SW 247 1 min 0,000 mm 4,2 UV-I 622 W/m 1,9 C 12,6 C 11,3 km/h (2 Bft) 95,65 %
18.09.2019 12:15 12,6 C 27,8 C 47 % 1024,7 hPa 0,0 l/m 4,8 km/h (1 Bft) W-NW 292 1 min 0,000 mm 4,2 UV-I 621 W/m 1,6 C 12,6 C 9,7 km/h (2 Bft) 95,65 %
18.09.2019 12:14 12,6 C 26,1 C 48 % 1024,7 hPa 0,0 l/m 4,8 km/h (1 Bft) W-SW 247 1 min 0,000 mm 4,2 UV-I 621 W/m 1,9 C 12,6 C 9,7 km/h (2 Bft) 91,30 %
18.09.2019 12:13 12,6 C 24,4 C 48 % 1024,7 hPa 0,0 l/m 3,2 km/h (1 Bft) W-SW 247 1 min 0,000 mm 4,2 UV-I 621 W/m 1,9 C 12,6 C 4,8 km/h (1 Bft) 100,00 %
18.09.2019 12:12 12,6 C 23,9 C 48 % 1024,8 hPa 0,0 l/m 4,8 km/h (1 Bft) W 270 1 min 0,000 mm 4,2 UV-I 622 W/m 1,9 C 12,6 C 9,7 km/h (2 Bft) 100,00 %
18.09.2019 12:11 12,6 C 24,4 C 47 % 1024,8 hPa 0,0 l/m 11,3 km/h (2 Bft) SW 225 1 min 0,000 mm 4,2 UV-I 621 W/m 1,6 C 9,8 C 17,7 km/h (3 Bft) 100,00 %
18.09.2019 12:10 12,6 C 26,1 C 48 % 1024,8 hPa 0,0 l/m 8,0 km/h (2 Bft) S-SW 202 1 min 0,000 mm 4,1 UV-I 617 W/m 1,9 C 11,6 C 14,5 km/h (3 Bft) 100,00 %
18.09.2019 12:09 12,6 C 27,8 C 47 % 1024,8 hPa 0,0 l/m 8,0 km/h (2 Bft) SW 225 1 min 0,000 mm 4,1 UV-I 619 W/m 1,6 C 11,6 C 11,3 km/h (2 Bft) 100,00 %
18.09.2019 12:08 12,6 C 26,7 C 46 % 1024,7 hPa 0,0 l/m 3,2 km/h (1 Bft) W-SW 247 1 min 0,000 mm 4,1 UV-I 619 W/m 1,3 C 12,6 C 6,4 km/h (2 Bft) 100,00 %
18.09.2019 12:07 12,6 C 26,1 C 49 % 1024,7 hPa 0,0 l/m 6,4 km/h (2 Bft) W 270 1 min 0,000 mm 4,1 UV-I 619 W/m 2,2 C 12,6 C 11,3 km/h (2 Bft) 100,00 %
18.09.2019 12:06 12,6 C 27,2 C 50 % 1024,7 hPa 0,0 l/m 8,0 km/h (2 Bft) SW 225 1 min 0,000 mm 4,1 UV-I 619 W/m 2,5 C 11,6 C 12,9 km/h (3 Bft) 100,00 %
18.09.2019 12:05 12,6 C 28,3 C 50 % 1024,6 hPa 0,0 l/m 6,4 km/h (2 Bft) SW 225 1 min 0,000 mm 4,1 UV-I 617 W/m 2,5 C 12,6 C 11,3 km/h (2 Bft) 95,65 %
18.09.2019 12:04 12,6 C 30,0 C 51 % 1024,7 hPa 0,0 l/m 6,4 km/h (2 Bft) SW 225 1 min 0,000 mm 4,1 UV-I 612 W/m 2,7 C 12,6 C 14,5 km/h (3 Bft) 100,00 %
18.09.2019 12:03 12,6 C 29,4 C 49 % 1024,7 hPa 0,0 l/m 4,8 km/h (1 Bft) W-SW 247 1 min 0,000 mm 4,1 UV-I 613 W/m 2,2 C 12,6 C 6,4 km/h (2 Bft) 95,65 %
18.09.2019 12:02 12,6 C 28,9 C 48 % 1024,7 hPa 0,0 l/m 3,2 km/h (1 Bft) W-NW 292 1 min 0,000 mm 4,1 UV-I 613 W/m 1,9 C 12,6 C 6,4 km/h (2 Bft) 91,30 %
18.09.2019 12:01 12,6 C 27,2 C 48 % 1024,8 hPa 0,0 l/m 4,8 km/h (1 Bft) W 270 1 min 0,000 mm 4,1 UV-I 613 W/m 1,9 C 12,6 C 11,3 km/h (2 Bft) 100,00 %
18.09.2019 12:00 12,6 C 26,1 C 48 % 1024,8 hPa 0,0 l/m 6,4 km/h (2 Bft) W-SW 247 1 min 0,305 mm 4,0 UV-I 612 W/m 1,9 C 12,6 C 9,7 km/h (2 Bft) 100,00 %
18.09.2019 11:59 12,6 C 26,7 C 50 % 1024,7 hPa 0,0 l/m 3,2 km/h (1 Bft) SW 225 1 min 0,000 mm 4,0 UV-I 610 W/m 2,5 C 12,6 C 8,0 km/h (2 Bft) 100,00 %
18.09.2019 11:58 12,4 C 26,7 C 50 % 1024,8 hPa 0,0 l/m 0,0 km/h (0 Bft) S-SO 157 1 min 0,000 mm 4,0 UV-I 610 W/m 2,3 C 12,4 C 3,2 km/h (1 Bft) 100,00 %
18.09.2019 11:57 12,3 C 28,9 C 48 % 1024,8 hPa 0,0 l/m 6,4 km/h (2 Bft) S 180 1 min 0,000 mm 4,0 UV-I 608 W/m 1,6 C 12,3 C 9,7 km/h (2 Bft) 100,00 %
18.09.2019 11:56 12,4 C 30,0 C 47 % 1024,8 hPa 0,0 l/m 1,6 km/h (1 Bft) W-SW 247 1 min 0,000 mm 4,0 UV-I 608 W/m 1,4 C 12,4 C 4,8 km/h (1 Bft) 100,00 %
18.09.2019 11:55 12,4 C 28,9 C 48 % 1024,8 hPa 0,0 l/m 3,2 km/h (1 Bft) W-SW 247 1 min 0,000 mm 4,0 UV-I 606 W/m 1,7 C 12,4 C 8,0 km/h (2 Bft) 100,00 %
18.09.2019 11:54 12,5 C 27,8 C 48 % 1024,7 hPa 0,0 l/m 4,8 km/h (1 Bft) W-SW 247 1 min 0,000 mm 4,0 UV-I 608 W/m 1,8 C 12,5 C 11,3 km/h (2 Bft) 100,00 %
18.09.2019 11:53 12,4 C 26,7 C 50 % 1024,7 hPa 0,0 l/m 4,8 km/h (1 Bft) S-SW 202 1 min 0,000 mm 3,9 UV-I 606 W/m 2,3 C 12,4 C 11,3 km/h (2 Bft) 95,65 %
18.09.2019 11:52 12,3 C 25,6 C 53 % 1024,7 hPa 0,0 l/m 1,6 km/h (1 Bft) S-SW 202 1 min 0,000 mm 3,9 UV-I 605 W/m 3,0 C 12,3 C 3,2 km/h (1 Bft) 100,00 %
18.09.2019 11:51 12,1 C 25,6 C 49 % 1024,7 hPa 0,0 l/m 3,2 km/h (1 Bft) S-SW 202 1 min 0,000 mm 3,9 UV-I 605 W/m 1,7 C 12,1 C 4,8 km/h (1 Bft) 95,65 %
18.09.2019 11:50 12,1 C 26,1 C 47 % 1024,8 hPa 0,0 l/m 3,2 km/h (1 Bft) S-SW 202 1 min 0,000 mm 3,9 UV-I 603 W/m 1,1 C 12,1 C 6,4 km/h (2 Bft) 100,00 %
18.09.2019 11:49 12,1 C 25,6 C 47 % 1024,8 hPa 0,0 l/m 6,4 km/h (2 Bft) S-SO 157 1 min 0,000 mm 3,9 UV-I 603 W/m 1,1 C 12,1 C 9,7 km/h (2 Bft) 100,00 %
18.09.2019 11:48 12,3 C 25,6 C 48 % 1024,8 hPa 0,0 l/m 6,4 km/h (2 Bft) S-SW 202 1 min 0,000 mm 3,9 UV-I 601 W/m 1,6 C 12,3 C 8,0 km/h (2 Bft) 100,00 %
18.09.2019 11:47 12,4 C 26,1 C 50 % 1024,9 hPa 0,0 l/m 6,4 km/h (2 Bft) SW 225 1 min 0,000 mm 3,9 UV-I 598 W/m 2,3 C 12,4 C 9,7 km/h (2 Bft) 100,00 %
18.09.2019 11:46 12,4 C 25,0 C 50 % 1024,8 hPa 0,0 l/m 6,4 km/h (2 Bft) SW 225 1 min 0,000 mm 3,8 UV-I 596 W/m 2,3 C 12,4 C 8,0 km/h (2 Bft) 100,00 %
18.09.2019 11:45 12,4 C 25,6 C 49 % 1024,8 hPa 0,0 l/m 4,8 km/h (1 Bft) S-SO 157 1 min 0,000 mm 3,8 UV-I 596 W/m 2,0 C 12,4 C 9,7 km/h (2 Bft) 100,00 %
18.09.2019 11:44 12,3 C 26,1 C 51 % 1024,8 hPa 0,0 l/m 4,8 km/h (1 Bft) SW 225 1 min 0,000 mm 3,8 UV-I 596 W/m 2,5 C 12,3 C 11,3 km/h (2 Bft) 100,00 %
18.09.2019 11:43 12,2 C 25,6 C 51 % 1024,7 hPa 0,0 l/m 3,2 km/h (1 Bft) S 180 1 min 0,000 mm 3,8 UV-I 596 W/m 2,4 C 12,2 C 9,7 km/h (2 Bft) 100,00 %
18.09.2019 11:42 12,2 C 25,6 C 49 % 1024,8 hPa 0,0 l/m 3,2 km/h (1 Bft) S 180 1 min 0,000 mm 3,8 UV-I 594 W/m 1,8 C 12,2 C 8,0 km/h (2 Bft) 100,00 %
18.09.2019 11:41 12,3 C 25,0 C 50 % 1024,8 hPa 0,0 l/m 8,0 km/h (2 Bft) S-SW 202 1 min 0,000 mm 3,8 UV-I 592 W/m 2,2 C 11,3 C 11,3 km/h (2 Bft) 100,00 %
18.09.2019 11:40 12,3 C 25,0 C 50 % 1024,8 hPa 0,0 l/m 6,4 km/h (2 Bft) SW 225 1 min 0,000 mm 3,8 UV-I 594 W/m 2,2 C 12,3 C 11,3 km/h (2 Bft) 100,00 %
18.09.2019 11:39 12,4 C 26,1 C 49 % 1024,9 hPa 0,0 l/m 6,4 km/h (2 Bft) S 180 1 min 0,000 mm 3,8 UV-I 592 W/m 2,0 C 12,4 C 11,3 km/h (2 Bft) 95,65 %
18.09.2019 11:38 12,3 C 26,7 C 53 % 1024,8 hPa 0,0 l/m 6,4 km/h (2 Bft) S-SW 202 1 min 0,000 mm 3,7 UV-I 591 W/m 3,0 C 12,3 C 12,9 km/h (3 Bft) 95,65 %
18.09.2019 11:37 12,1 C 27,2 C 53 % 1024,9 hPa 0,0 l/m 1,6 km/h (1 Bft) SW 225 1 min 0,000 mm 3,7 UV-I 589 W/m 2,8 C 12,1 C 4,8 km/h (1 Bft) 100,00 %
18.09.2019 11:36 11,9 C 25,6 C 52 % 1024,9 hPa 0,0 l/m 3,2 km/h (1 Bft) SW 225 1 min 0,000 mm 3,7 UV-I 589 W/m 2,4 C 11,9 C 4,8 km/h (1 Bft) 95,65 %
18.09.2019 11:35 11,8 C 24,4 C 50 % 1024,9 hPa 0,0 l/m 3,2 km/h (1 Bft) S-SW 202 1 min 0,000 mm 3,7 UV-I 589 W/m 1,7 C 11,8 C 6,4 km/h (2 Bft) 100,00 %
18.09.2019 11:34 11,8 C 23,3 C 52 % 1024,8 hPa 0,0 l/m 4,8 km/h (1 Bft) SW 225 1 min 0,000 mm 3,7 UV-I 584 W/m 2,3 C 11,8 C 6,4 km/h (2 Bft) 100,00 %
18.09.2019 11:33 11,9 C 23,3 C 51 % 1024,9 hPa 0,0 l/m 6,4 km/h (2 Bft) S-SO 157 1 min 0,000 mm 3,7 UV-I 582 W/m 2,1 C 11,9 C 8,0 km/h (2 Bft) 100,00 %
18.09.2019 11:32 12,0 C 23,9 C 51 % 1024,9 hPa 0,0 l/m 6,4 km/h (2 Bft) S-SO 157 1 min 0,000 mm 3,7 UV-I 585 W/m 2,2 C 12,0 C 9,7 km/h (2 Bft) 100,00 %
18.09.2019 11:31 12,0 C 23,9 C 52 % 1024,9 hPa 0,0 l/m 8,0 km/h (2 Bft) S-SO 157 1 min 0,000 mm 3,7 UV-I 584 W/m 2,5 C 11,0 C 11,3 km/h (2 Bft) 95,65 %
18.09.2019 11:30 11,9 C 25,0 C 53 % 1024,9 hPa 0,0 l/m 6,4 km/h (2 Bft) SO 135 1 min 0,000 mm 3,6 UV-I 582 W/m 2,6 C 11,9 C 14,5 km/h (3 Bft) 100,00 %
18.09.2019 11:29 11,9 C 25,0 C 51 % 1024,9 hPa 0,0 l/m 6,4 km/h (2 Bft) S-SW 202 1 min 0,000 mm 3,6 UV-I 582 W/m 2,1 C 11,9 C 12,9 km/h (3 Bft) 95,65 %
18.09.2019 11:28 11,9 C 25,0 C 51 % 1024,9 hPa 0,0 l/m 6,4 km/h (2 Bft) S-SW 202 1 min 0,000 mm 3,6 UV-I 573 W/m 2,1 C 11,9 C 9,7 km/h (2 Bft) 91,30 %
18.09.2019 11:27 11,9 C 23,9 C 51 % 1024,9 hPa 0,0 l/m 3,2 km/h (1 Bft) S 180 1 min 0,000 mm 3,6 UV-I 577 W/m 2,1 C 11,9 C 6,4 km/h (2 Bft) 100,00 %
18.09.2019 11:26 11,9 C 24,4 C 51 % 1025,0 hPa 0,0 l/m 6,4 km/h (2 Bft) SO 135 1 min 0,000 mm 3,6 UV-I 577 W/m 2,1 C 11,9 C 11,3 km/h (2 Bft) 91,30 %
18.09.2019 11:25 11,9 C 26,1 C 51 % 1024,9 hPa 0,0 l/m 9,7 km/h (2 Bft) S-SO 157 1 min 0,000 mm 3,6 UV-I 575 W/m 2,1 C 9,9 C 14,5 km/h (3 Bft) 100,00 %
18.09.2019 11:24 11,9 C 26,7 C 52 % 1024,9 hPa 0,0 l/m 6,4 km/h (2 Bft) S-SO 157 1 min 0,000 mm 3,6 UV-I 575 W/m 2,4 C 11,9 C 9,7 km/h (2 Bft) 95,65 %
18.09.2019 11:23 11,8 C 30,0 C 51 % 1024,9 hPa 0,0 l/m 3,2 km/h (1 Bft) SW 225 1 min 0,000 mm 3,6 UV-I 573 W/m 2,0 C 11,8 C 4,8 km/h (1 Bft) 100,00 %
18.09.2019 11:22 11,7 C 29,4 C 52 % 1025,1 hPa 0,0 l/m 3,2 km/h (1 Bft) SW 225 1 min 0,000 mm 3,6 UV-I 573 W/m 2,2 C 11,7 C 4,8 km/h (1 Bft) 100,00 %
18.09.2019 11:21 11,5 C 28,3 C 52 % 1025,0 hPa 0,0 l/m 1,6 km/h (1 Bft) NW 315 1 min 0,000 mm 3,6 UV-I 571 W/m 2,0 C 11,5 C 4,8 km/h (1 Bft) 100,00 %
18.09.2019 11:20 11,4 C 28,3 C 52 % 1024,9 hPa 0,0 l/m 3,2 km/h (1 Bft) NW 315 1 min 0,000 mm 3,5 UV-I 571 W/m 1,9 C 11,4 C 4,8 km/h (1 Bft) 100,00 %
18.09.2019 11:19 11,5 C 28,9 C 52 % 1025,0 hPa 0,0 l/m 4,8 km/h (1 Bft) N-NW 337 1 min 0,000 mm 3,5 UV-I 571 W/m 2,0 C 11,5 C 6,4 km/h (2 Bft) 100,00 %
18.09.2019 11:18 11,5 C 28,9 C 52 % 1024,9 hPa 0,0 l/m 4,8 km/h (1 Bft) W 270 1 min 0,000 mm 3,5 UV-I 568 W/m 2,0 C 11,5 C 6,4 km/h (2 Bft) 100,00 %
18.09.2019 11:17 11,4 C 28,9 C 52 % 1024,9 hPa 0,0 l/m 1,6 km/h (1 Bft) W 270 1 min 0,000 mm 3,5 UV-I 564 W/m 1,9 C 11,4 C 3,2 km/h (1 Bft) 95,65 %
18.09.2019 11:16 11,3 C 28,9 C 52 % 1024,9 hPa 0,0 l/m 1,6 km/h (1 Bft) W 270 1 min 0,000 mm 3,5 UV-I 564 W/m 1,8 C 11,3 C 4,8 km/h (1 Bft) 100,00 %
18.09.2019 11:15 11,4 C 30,0 C 53 % 1025,0 hPa 0,0 l/m 1,6 km/h (1 Bft) W 270 1 min 0,000 mm 3,5 UV-I 564 W/m 2,2 C 11,4 C 3,2 km/h (1 Bft) 100,00 %
18.09.2019 11:14 11,4 C 30,0 C 52 % 1025,0 hPa 0,0 l/m 3,2 km/h (1 Bft) W 270 1 min 0,000 mm 3,4 UV-I 561 W/m 1,9 C 11,4 C 4,8 km/h (1 Bft) 100,00 %
18.09.2019 11:13 11,4 C 31,1 C 52 % 1024,9 hPa 0,0 l/m 4,8 km/h (1 Bft) W-SW 247 1 min 0,000 mm 3,4 UV-I 563 W/m 1,9 C 11,4 C 6,4 km/h (2 Bft) 100,00 %
18.09.2019 11:12 11,4 C 30,0 C 53 % 1024,9 hPa 0,0 l/m 3,2 km/h (1 Bft) W-NW 292 1 min 0,000 mm 3,4 UV-I 563 W/m 2,2 C 11,4 C 6,4 km/h (2 Bft) 100,00 %
18.09.2019 11:11 11,4 C 29,4 C 54 % 1025,0 hPa 0,0 l/m 1,6 km/h (1 Bft) N-NW 337 1 min 0,000 mm 3,4 UV-I 561 W/m 2,4 C 11,4 C 3,2 km/h (1 Bft) 100,00 %
18.09.2019 11:10 11,4 C 28,9 C 52 % 1024,9 hPa 0,0 l/m 4,8 km/h (1 Bft) N-NW 337 1 min 0,000 mm 3,3 UV-I 563 W/m 1,9 C 11,4 C 6,4 km/h (2 Bft) 100,00 %
18.09.2019 11:09 11,4 C 28,3 C 54 % 1025,0 hPa 0,0 l/m 4,8 km/h (1 Bft) NW 315 1 min 0,000 mm 3,3 UV-I 559 W/m 2,4 C 11,4 C 6,4 km/h (2 Bft) 95,65 %
18.09.2019 11:08 11,4 C 27,8 C 54 % 1025,0 hPa 0,0 l/m 4,8 km/h (1 Bft) NW 315 1 min 0,000 mm 3,3 UV-I 563 W/m 2,4 C 11,4 C 6,4 km/h (2 Bft) 100,00 %
18.09.2019 11:07 11,3 C 26,7 C 53 % 1025,0 hPa 0,0 l/m 3,2 km/h (1 Bft) NW 315 1 min 0,000 mm 3,3 UV-I 566 W/m 2,1 C 11,3 C 4,8 km/h (1 Bft) 100,00 %
18.09.2019 11:06 11,4 C 25,6 C 53 % 1024,9 hPa 0,0 l/m 4,8 km/h (1 Bft) W 270 1 min 0,000 mm 3,3 UV-I 568 W/m 2,2 C 11,4 C 6,4 km/h (2 Bft) 100,00 %
18.09.2019 11:05 11,5 C 25,6 C 53 % 1025,0 hPa 0,0 l/m 3,2 km/h (1 Bft) W 270 1 min 0,000 mm 3,3 UV-I 557 W/m 2,3 C 11,5 C 6,4 km/h (2 Bft) 95,65 %
18.09.2019 11:04 11,5 C 25,0 C 53 % 1025,0 hPa 0,0 l/m 3,2 km/h (1 Bft) W-SW 247 1 min 0,000 mm 3,3 UV-I 552 W/m 2,3 C 11,5 C 4,8 km/h (1 Bft) 100,00 %
18.09.2019 11:03 11,4 C 25,0 C 55 % 1025,0 hPa 0,0 l/m 0,0 km/h (0 Bft) W-SW 247 1 min 0,000 mm 3,2 UV-I 547 W/m 2,7 C 11,4 C 1,6 km/h (1 Bft) 95,65 %
18.09.2019 11:02 11,3 C 24,4 C 54 % 1025,0 hPa 0,0 l/m 1,6 km/h (1 Bft) W-SW 247 1 min 0,000 mm 3,2 UV-I 548 W/m 2,3 C 11,3 C 3,2 km/h (1 Bft) 100,00 %
18.09.2019 11:01 11,2 C 23,3 C 53 % 1025,0 hPa 0,0 l/m 1,6 km/h (1 Bft) W-SW 247 1 min 0,000 mm 3,2 UV-I 545 W/m 2,0 C 11,2 C 4,8 km/h (1 Bft) 100,00 %
18.09.2019 11:00 11,2 C 22,2 C 53 % 1025,0 hPa 0,0 l/m 1,6 km/h (1 Bft) W-SW 247 1 min 0,254 mm 3,2 UV-I 548 W/m 2,0 C 11,2 C 3,2 km/h (1 Bft) 95,65 %
18.09.2019 10:59 11,3 C 22,2 C 54 % 1025,0 hPa 0,0 l/m 1,6 km/h (1 Bft) SW 225 1 min 0,000 mm 3,1 UV-I 552 W/m 2,3 C 11,3 C 3,2 km/h (1 Bft) 100,00 %
18.09.2019 10:58 11,4 C 22,8 C 52 % 1025,0 hPa 0,0 l/m 4,8 km/h (1 Bft) SW 225 1 min 0,000 mm 3,1 UV-I 547 W/m 1,9 C 11,4 C 6,4 km/h (2 Bft) 100,00 %
18.09.2019 10:57 11,5 C 22,8 C 55 % 1025,0 hPa 0,0 l/m 3,2 km/h (1 Bft) SW 225 1 min 0,000 mm 3,1 UV-I 547 W/m 2,8 C 11,5 C 6,4 km/h (2 Bft) 100,00 %
18.09.2019 10:56 11,5 C 22,8 C 53 % 1025,0 hPa 0,0 l/m 0,0 km/h (0 Bft) S-SW 202 1 min 0,000 mm 3,1 UV-I 540 W/m 2,3 C 11,5 C 1,6 km/h (1 Bft) 100,00 %
18.09.2019 10:55 11,4 C 23,3 C 55 % 1025,0 hPa 0,0 l/m 1,6 km/h (1 Bft) S-SW 202 1 min 0,000 mm 3,1 UV-I 536 W/m 2,7 C 11,4 C 4,8 km/h (1 Bft) 95,65 %
18.09.2019 10:54 11,4 C 25,6 C 54 % 1025,0 hPa 0,0 l/m 4,8 km/h (1 Bft) S-SW 202 1 min 0,000 mm 3,1 UV-I 529 W/m 2,4 C 11,4 C 8,0 km/h (2 Bft) 100,00 %
18.09.2019 10:53 11,4 C 26,7 C 55 % 1025,0 hPa 0,0 l/m 3,2 km/h (1 Bft) SW 225 1 min 0,000 mm 3,0 UV-I 529 W/m 2,7 C 11,4 C 4,8 km/h (1 Bft) 100,00 %
18.09.2019 10:52 11,3 C 26,7 C 54 % 1024,9 hPa 0,0 l/m 1,6 km/h (1 Bft) SW 225 1 min 0,000 mm 3,0 UV-I 527 W/m 2,3 C 11,3 C 4,8 km/h (1 Bft) 100,00 %
18.09.2019 10:51 11,2 C 26,1 C 54 % 1025,0 hPa 0,0 l/m 0,0 km/h (0 Bft) W-NW 292 1 min 0,000 mm 3,0 UV-I 527 W/m 2,2 C 11,2 C 3,2 km/h (1 Bft) 100,00 %
18.09.2019 10:50 11,2 C 25,0 C 54 % 1025,0 hPa 0,0 l/m 3,2 km/h (1 Bft) W-NW 292 1 min 0,000 mm 3,0 UV-I 522 W/m 2,2 C 11,2 C 4,8 km/h (1 Bft) 100,00 %
18.09.2019 10:49 11,1 C 25,0 C 56 % 1025,0 hPa 0,0 l/m 1,6 km/h (1 Bft) W-NW 292 1 min 0,000 mm 2,9 UV-I 522 W/m 2,7 C 11,1 C 4,8 km/h (1 Bft) 100,00 %
18.09.2019 10:48 11,1 C 23,9 C 55 % 1024,9 hPa 0,0 l/m 3,2 km/h (1 Bft) SW 225 1 min 0,000 mm 2,9 UV-I 519 W/m 2,4 C 11,1 C 4,8 km/h (1 Bft) 95,65 %
18.09.2019 10:47 11,1 C 23,9 C 54 % 1025,0 hPa 0,0 l/m 1,6 km/h (1 Bft) SW 225 1 min 0,000 mm 2,9 UV-I 517 W/m 2,2 C 11,1 C 3,2 km/h (1 Bft) 100,00 %
18.09.2019 10:46 11,1 C 25,0 C 54 % 1024,9 hPa 0,0 l/m 4,8 km/h (1 Bft) SW 225 1 min 0,000 mm 2,9 UV-I 510 W/m 2,2 C 11,1 C 6,4 km/h (2 Bft) 100,00 %
18.09.2019 10:45 11,2 C 25,0 C 54 % 1024,9 hPa 0,0 l/m 3,2 km/h (1 Bft) W-SW 247 1 min 0,000 mm 2,9 UV-I 510 W/m 2,2 C 11,2 C 6,4 km/h (2 Bft) 91,30 %
18.09.2019 10:44 11,2 C 26,1 C 55 % 1024,9 hPa 0,0 l/m 4,8 km/h (1 Bft) NW 315 1 min 0,000 mm 2,8 UV-I 512 W/m 2,5 C 11,2 C 6,4 km/h (2 Bft) 100,00 %
18.09.2019 10:43 11,2 C 27,8 C 57 % 1024,9 hPa 0,0 l/m 0,0 km/h (0 Bft) N-NW 337 1 min 0,000 mm 2,8 UV-I 512 W/m 3,0 C 11,2 C 1,6 km/h (1 Bft) 95,65 %
18.09.2019 10:42 11,1 C 27,8 C 55 % 1024,9 hPa 0,0 l/m 1,6 km/h (1 Bft) N-NW 337 1 min 0,000 mm 2,8 UV-I 512 W/m 2,4 C 11,1 C 4,8 km/h (1 Bft) 100,00 %
18.09.2019 10:41 11,1 C 27,8 C 55 % 1025,0 hPa 0,0 l/m 3,2 km/h (1 Bft) N-NW 337 1 min 0,000 mm 2,8 UV-I 504 W/m 2,4 C 11,1 C 3,2 km/h (1 Bft) 95,65 %
18.09.2019 10:40 10,9 C 28,9 C 55 % 1025,0 hPa 0,0 l/m 1,6 km/h (1 Bft) N 360 1 min 0,000 mm 2,7 UV-I 504 W/m 2,2 C 10,9 C 4,8 km/h (1 Bft) 100,00 %
18.09.2019 10:39 10,8 C 27,8 C 56 % 1025,0 hPa 0,0 l/m 1,6 km/h (1 Bft) N-NW 337 1 min 0,000 mm 2,7 UV-I 503 W/m 2,4 C 10,8 C 3,2 km/h (1 Bft) 100,00 %
18.09.2019 10:38 10,6 C 27,8 C 55 % 1025,0 hPa 0,0 l/m 3,2 km/h (1 Bft) N 360 1 min 0,000 mm 2,7 UV-I 503 W/m 1,9 C 10,6 C 3,2 km/h (1 Bft) 100,00 %
18.09.2019 10:37 10,6 C 27,2 C 55 % 1025,0 hPa 0,0 l/m 3,2 km/h (1 Bft) N 360 1 min 0,000 mm 2,6 UV-I 501 W/m 1,9 C 10,6 C 4,8 km/h (1 Bft) 100,00 %
18.09.2019 10:36 10,6 C 28,3 C 56 % 1025,0 hPa 0,0 l/m 3,2 km/h (1 Bft) NW 315 1 min 0,000 mm 2,6 UV-I 496 W/m 2,2 C 10,6 C 4,8 km/h (1 Bft) 100,00 %
18.09.2019 10:35 10,7 C 29,4 C 55 % 1025,0 hPa 0,0 l/m 1,6 km/h (1 Bft) NW 315 1 min 0,000 mm 2,6 UV-I 496 W/m 2,0 C 10,7 C 3,2 km/h (1 Bft) 100,00 %
18.09.2019 10:34 10,7 C 30,0 C 57 % 1025,0 hPa 0,0 l/m 1,6 km/h (1 Bft) NW 315 1 min 0,000 mm 2,6 UV-I 494 W/m 2,5 C 10,7 C 3,2 km/h (1 Bft) 100,00 %
18.09.2019 10:33 10,6 C 29,4 C 57 % 1025,0 hPa 0,0 l/m 3,2 km/h (1 Bft) NW 315 1 min 0,000 mm 2,6 UV-I 492 W/m 2,4 C 10,6 C 4,8 km/h (1 Bft) 95,65 %
18.09.2019 10:32 10,6 C 30,0 C 56 % 1025,1 hPa 0,0 l/m 1,6 km/h (1 Bft) NW 315 1 min 0,000 mm 2,5 UV-I 490 W/m 2,2 C 10,6 C 3,2 km/h (1 Bft) 100,00 %
18.09.2019 10:31 10,6 C 30,0 C 56 % 1025,0 hPa 0,0 l/m 1,6 km/h (1 Bft) NW 315 1 min 0,000 mm 2,5 UV-I 489 W/m 2,2 C 10,6 C 3,2 km/h (1 Bft) 95,65 %
18.09.2019 10:30 10,6 C 30,0 C 57 % 1025,0 hPa 0,0 l/m 3,2 km/h (1 Bft) NW 315 1 min 0,000 mm 2,5 UV-I 485 W/m 2,4 C 10,6 C 4,8 km/h (1 Bft) 100,00 %
18.09.2019 10:29 10,6 C 30,0 C 58 % 1025,0 hPa 0,0 l/m 3,2 km/h (1 Bft) NW 315 1 min 0,000 mm 2,5 UV-I 485 W/m 2,7 C 10,6 C 4,8 km/h (1 Bft) 100,00 %
18.09.2019 10:28 10,4 C 29,4 C 57 % 1025,0 hPa 0,0 l/m 3,2 km/h (1 Bft) N-NW 337 1 min 0,000 mm 2,4 UV-I 483 W/m 2,3 C 10,4 C 4,8 km/h (1 Bft) 95,65 %
18.09.2019 10:27 10,4 C 28,3 C 56 % 1025,0 hPa 0,0 l/m 3,2 km/h (1 Bft) N-NW 337 1 min 0,000 mm 2,4 UV-I 482 W/m 2,0 C 10,4 C 4,8 km/h (1 Bft) 100,00 %
18.09.2019 10:26 10,4 C 27,8 C 56 % 1025,0 hPa 0,0 l/m 3,2 km/h (1 Bft) N-NW 337 1 min 0,000 mm 2,4 UV-I 480 W/m 2,0 C 10,4 C 6,4 km/h (2 Bft) 95,65 %
18.09.2019 10:25 10,4 C 26,7 C 57 % 1024,9 hPa 0,0 l/m 6,4 km/h (2 Bft) N-NW 337 1 min 0,000 mm 2,4 UV-I 478 W/m 2,3 C 10,4 C 8,0 km/h (2 Bft) 100,00 %
18.09.2019 10:24 10,3 C 26,7 C 57 % 1024,9 hPa 0,0 l/m 0,0 km/h (0 Bft) N 360 1 min 0,000 mm 2,4 UV-I 475 W/m 2,2 C 10,3 C 3,2 km/h (1 Bft) 100,00 %
18.09.2019 10:23 10,3 C 26,1 C 57 % 1025,0 hPa 0,0 l/m 0,0 km/h (0 Bft) O-NO 67 1 min 0,000 mm 2,3 UV-I 471 W/m 2,2 C 10,3 C 1,6 km/h (1 Bft) 100,00 %
18.09.2019 10:22 10,2 C 27,2 C 56 % 1025,0 hPa 0,0 l/m 1,6 km/h (1 Bft) O-NO 67 1 min 0,000 mm 2,3 UV-I 469 W/m 1,8 C 10,2 C 4,8 km/h (1 Bft) 95,65 %
18.09.2019 10:21 10,2 C 28,3 C 57 % 1025,1 hPa 0,0 l/m 3,2 km/h (1 Bft) N-NW 337 1 min 0,000 mm 2,3 UV-I 469 W/m 2,1 C 10,2 C 4,8 km/h (1 Bft) 95,65 %
18.09.2019 10:20 10,2 C 28,9 C 56 % 1025,1 hPa 0,0 l/m 3,2 km/h (1 Bft) N-NW 337 1 min 0,000 mm 2,3 UV-I 469 W/m 1,8 C 10,2 C 3,2 km/h (1 Bft) 100,00 %
18.09.2019 10:19 10,3 C 28,9 C 57 % 1025,0 hPa 0,0 l/m 4,8 km/h (1 Bft) NW 315 1 min 0,000 mm 2,3 UV-I 468 W/m 2,2 C 10,3 C 4,8 km/h (1 Bft) 100,00 %
18.09.2019 10:18 10,3 C 28,3 C 58 % 1025,0 hPa 0,0 l/m 3,2 km/h (1 Bft) NW 315 1 min 0,000 mm 2,2 UV-I 464 W/m 2,4 C 10,3 C 4,8 km/h (1 Bft) 100,00 %
18.09.2019 10:17 10,2 C 27,8 C 57 % 1025,0 hPa 0,0 l/m 3,2 km/h (1 Bft) N 360 1 min 0,000 mm 2,2 UV-I 462 W/m 2,1 C 10,2 C 6,4 km/h (2 Bft) 100,00 %
18.09.2019 10:16 10,1 C 27,2 C 58 % 1025,0 hPa 0,0 l/m 3,2 km/h (1 Bft) NW 315 1 min 0,000 mm 2,2 UV-I 461 W/m 2,2 C 10,1 C 4,8 km/h (1 Bft) 100,00 %
18.09.2019 10:15 10,1 C 27,2 C 57 % 1025,0 hPa 0,0 l/m 3,2 km/h (1 Bft) NW 315 1 min 0,000 mm 2,2 UV-I 459 W/m 2,0 C 10,1 C 4,8 km/h (1 Bft) 100,00 %
18.09.2019 10:14 10,1 C 26,7 C 56 % 1025,0 hPa 0,0 l/m 4,8 km/h (1 Bft) NW 315 1 min 0,000 mm 2,2 UV-I 457 W/m 1,7 C 10,1 C 6,4 km/h (2 Bft) 95,65 %
18.09.2019 10:13 10,2 C 26,1 C 56 % 1025,0 hPa 0,0 l/m 6,4 km/h (2 Bft) N-NW 337 1 min 0,000 mm 2,2 UV-I 452 W/m 1,8 C 10,2 C 8,0 km/h (2 Bft) 100,00 %
18.09.2019 10:12 10,3 C 26,1 C 57 % 1025,0 hPa 0,0 l/m 4,8 km/h (1 Bft) NW 315 1 min 0,000 mm 2,2 UV-I 452 W/m 2,2 C 10,3 C 8,0 km/h (2 Bft) 95,65 %
18.09.2019 10:11 10,4 C 26,1 C 57 % 1025,0 hPa 0,0 l/m 4,8 km/h (1 Bft) N-NW 337 1 min 0,000 mm 2,1 UV-I 448 W/m 2,3 C 10,4 C 8,0 km/h (2 Bft) 100,00 %
18.09.2019 10:10 10,4 C 26,1 C 58 % 1025,0 hPa 0,0 l/m 6,4 km/h (2 Bft) N 360 1 min 0,000 mm 2,1 UV-I 446 W/m 2,5 C 10,4 C 8,0 km/h (2 Bft) 100,00 %
18.09.2019 10:09 10,4 C 25,6 C 57 % 1024,9 hPa 0,0 l/m 3,2 km/h (1 Bft) N-NW 337 1 min 0,000 mm 2,1 UV-I 445 W/m 2,3 C 10,4 C 4,8 km/h (1 Bft) 95,65 %
18.09.2019 10:08 10,3 C 25,6 C 57 % 1025,0 hPa 0,0 l/m 1,6 km/h (1 Bft) NW 315 1 min 0,000 mm 2,1 UV-I 443 W/m 2,2 C 10,3 C 3,2 km/h (1 Bft) 100,00 %
18.09.2019 10:07 10,3 C 25,0 C 57 % 1025,0 hPa 0,0 l/m 3,2 km/h (1 Bft) NW 315 1 min 0,000 mm 2,1 UV-I 439 W/m 2,2 C 10,3 C 3,2 km/h (1 Bft) 100,00 %
18.09.2019 10:06 10,3 C 24,4 C 57 % 1025,0 hPa 0,0 l/m 1,6 km/h (1 Bft) NW 315 1 min 0,000 mm 2,0 UV-I 439 W/m 2,2 C 10,3 C 1,6 km/h (1 Bft) 100,00 %
18.09.2019 10:05 10,3 C 24,4 C 57 % 1025,0 hPa 0,0 l/m 0,0 km/h (0 Bft) N 0 1 min 0,000 mm 2,0 UV-I 438 W/m 2,2 C 10,3 C 0,0 km/h (0 Bft) 95,65 %
18.09.2019 10:04 10,2 C 25,0 C 56 % 1025,0 hPa 0,0 l/m 1,6 km/h (1 Bft) NW 315 1 min 0,000 mm 2,0 UV-I 438 W/m 1,8 C 10,2 C 4,8 km/h (1 Bft) 95,65 %
18.09.2019 10:03 10,2 C 25,6 C 58 % 1025,1 hPa 0,0 l/m 1,6 km/h (1 Bft) NW 315 1 min 0,000 mm 2,0 UV-I 434 W/m 2,3 C 10,2 C 3,2 km/h (1 Bft) 100,00 %
18.09.2019 10:02 10,2 C 26,1 C 58 % 1025,0 hPa 0,0 l/m 0,0 km/h (0 Bft) NW 315 1 min 0,000 mm 1,9 UV-I 431 W/m 2,3 C 10,2 C 1,6 km/h (1 Bft) 95,65 %
18.09.2019 10:01 10,2 C 26,1 C 58 % 1025,1 hPa 0,0 l/m 1,6 km/h (1 Bft) NW 315 1 min 0,000 mm 1,9 UV-I 425 W/m 2,3 C 10,2 C 3,2 km/h (1 Bft) 100,00 %
18.09.2019 10:00 10,1 C 26,7 C 59 % 1025,0 hPa 0,0 l/m 1,6 km/h (1 Bft) NW 315 1 min 0,178 mm 1,9 UV-I 424 W/m 2,5 C 10,1 C 3,2 km/h (1 Bft) 91,30 %
18.09.2019 09:59 10,0 C 26,7 C 60 % 1025,0 hPa 0,0 l/m 1,6 km/h (1 Bft) NW 315 1 min 0,000 mm 1,9 UV-I 420 W/m 2,6 C 10,0 C 1,6 km/h (1 Bft) 100,00 %
18.09.2019 09:58 9,9 C 26,1 C 58 % 1024,9 hPa 0,0 l/m 1,6 km/h (1 Bft) NW 315 1 min 0,000 mm 1,9 UV-I 422 W/m 2,0 C 9,9 C 1,6 km/h (1 Bft) 95,65 %
18.09.2019 09:57 9,9 C 25,6 C 59 % 1025,0 hPa 0,0 l/m 1,6 km/h (1 Bft) NW 315 1 min 0,000 mm 1,8 UV-I 420 W/m 2,3 C 9,9 C 3,2 km/h (1 Bft) 95,65 %
18.09.2019 09:56 9,8 C 25,6 C 58 % 1025,0 hPa 0,0 l/m 1,6 km/h (1 Bft) NW 315 1 min 0,000 mm 1,8 UV-I 420 W/m 1,9 C 9,8 C 3,2 km/h (1 Bft) 100,00 %
18.09.2019 09:55 9,8 C 26,1 C 58 % 1024,9 hPa 0,0 l/m 1,6 km/h (1 Bft) N 360 1 min 0,000 mm 1,8 UV-I 417 W/m 1,9 C 9,8 C 3,2 km/h (1 Bft) 100,00 %
18.09.2019 09:54 9,7 C 27,2 C 58 % 1024,9 hPa 0,0 l/m 0,0 km/h (0 Bft) N 360 1 min 0,000 mm 1,8 UV-I 415 W/m 1,8 C 9,7 C 3,2 km/h (1 Bft) 100,00 %
18.09.2019 09:53 9,6 C 27,2 C 58 % 1025,0 hPa 0,0 l/m 1,6 km/h (1 Bft) N 360 1 min 0,000 mm 1,8 UV-I 413 W/m 1,8 C 9,6 C 3,2 km/h (1 Bft) 100,00 %
18.09.2019 09:52 9,6 C 26,7 C 57 % 1025,0 hPa 0,0 l/m 1,6 km/h (1 Bft) N 360 1 min 0,000 mm 1,7 UV-I 411 W/m 1,5 C 9,6 C 4,8 km/h (1 Bft) 100,00 %
18.09.2019 09:51 9,6 C 27,2 C 58 % 1025,0 hPa 0,0 l/m 4,8 km/h (1 Bft) N 360 1 min 0,000 mm 1,7 UV-I 410 W/m 1,8 C 9,6 C 6,4 km/h (2 Bft) 100,00 %
18.09.2019 09:50 9,6 C 26,7 C 58 % 1025,0 hPa 0,0 l/m 4,8 km/h (1 Bft) N 360 1 min 0,000 mm 1,7 UV-I 408 W/m 1,8 C 9,6 C 8,0 km/h (2 Bft) 100,00 %
18.09.2019 09:49 9,7 C 26,7 C 58 % 1025,0 hPa 0,0 l/m 6,4 km/h (2 Bft) N 360 1 min 0,000 mm 1,7 UV-I 404 W/m 1,8 C 9,7 C 9,7 km/h (2 Bft) 100,00 %
18.09.2019 09:48 9,7 C 26,1 C 58 % 1024,9 hPa 0,0 l/m 6,4 km/h (2 Bft) N-NW 337 1 min 0,000 mm 1,7 UV-I 401 W/m 1,8 C 9,7 C 8,0 km/h (2 Bft) 100,00 %
18.09.2019 09:47 9,7 C 26,1 C 58 % 1024,9 hPa 0,0 l/m 1,6 km/h (1 Bft) N-NW 337 1 min 0,000 mm 1,6 UV-I 399 W/m 1,8 C 9,7 C 4,8 km/h (1 Bft) 100,00 %
18.09.2019 09:46 9,7 C 25,6 C 57 % 1025,0 hPa 0,0 l/m 4,8 km/h (1 Bft) N-NW 337 1 min 0,000 mm 1,6 UV-I 396 W/m 1,6 C 9,7 C 8,0 km/h (2 Bft) 95,65 %
18.09.2019 09:45 9,8 C 25,6 C 58 % 1025,0 hPa 0,0 l/m 4,8 km/h (1 Bft) N-NW 337 1 min 0,000 mm 1,6 UV-I 394 W/m 1,9 C 9,8 C 8,0 km/h (2 Bft) 100,00 %
18.09.2019 09:44 9,8 C 25,0 C 58 % 1025,0 hPa 0,0 l/m 1,6 km/h (1 Bft) N 360 1 min 0,000 mm 1,6 UV-I 392 W/m 1,9 C 9,8 C 4,8 km/h (1 Bft) 100,00 %
18.09.2019 09:43 9,6 C 25,0 C 58 % 1025,0 hPa 0,0 l/m 0,0 km/h (0 Bft) N 360 1 min 0,000 mm 1,6 UV-I 388 W/m 1,8 C 9,6 C 1,6 km/h (1 Bft) 95,65 %
18.09.2019 09:42 9,4 C 25,6 C 58 % 1025,0 hPa 0,0 l/m 3,2 km/h (1 Bft) N 360 1 min 0,000 mm 1,6 UV-I 387 W/m 1,6 C 9,4 C 4,8 km/h (1 Bft) 100,00 %
18.09.2019 09:41 9,4 C 25,0 C 58 % 1025,0 hPa 0,0 l/m 3,2 km/h (1 Bft) N 360 1 min 0,000 mm 1,5 UV-I 385 W/m 1,6 C 9,4 C 4,8 km/h (1 Bft) 100,00 %
18.09.2019 09:40 9,4 C 25,0 C 58 % 1025,1 hPa 0,0 l/m 1,6 km/h (1 Bft) N 360 1 min 0,000 mm 1,5 UV-I 383 W/m 1,6 C 9,4 C 3,2 km/h (1 Bft) 100,00 %
18.09.2019 09:39 9,4 C 25,0 C 57 % 1025,0 hPa 0,0 l/m 3,2 km/h (1 Bft) N 360 1 min 0,000 mm 1,5 UV-I 381 W/m 1,3 C 9,4 C 4,8 km/h (1 Bft) 100,00 %
18.09.2019 09:38 9,5 C 24,4 C 57 % 1025,0 hPa 0,0 l/m 4,8 km/h (1 Bft) N 360 1 min 0,000 mm 1,5 UV-I 378 W/m 1,4 C 9,5 C 8,0 km/h (2 Bft) 95,65 %
18.09.2019 09:37 9,6 C 23,3 C 58 % 1024,9 hPa 0,0 l/m 6,4 km/h (2 Bft) N 360 1 min 0,000 mm 1,5 UV-I 373 W/m 1,8 C 9,6 C 8,0 km/h (2 Bft) 95,65 %
18.09.2019 09:36 9,7 C 22,8 C 58 % 1025,0 hPa 0,0 l/m 4,8 km/h (1 Bft) N-NW 337 1 min 0,000 mm 1,4 UV-I 373 W/m 1,8 C 9,7 C 6,4 km/h (2 Bft) 100,00 %
18.09.2019 09:35 9,7 C 22,2 C 58 % 1024,9 hPa 0,0 l/m 4,8 km/h (1 Bft) N 360 1 min 0,000 mm 1,4 UV-I 371 W/m 1,8 C 9,7 C 6,4 km/h (2 Bft) 95,65 %
18.09.2019 09:34 9,7 C 21,7 C 58 % 1025,0 hPa 0,0 l/m 3,2 km/h (1 Bft) N-NW 337 1 min 0,000 mm 1,4 UV-I 367 W/m 1,8 C 9,7 C 8,0 km/h (2 Bft) 100,00 %
18.09.2019 09:33 9,7 C 21,7 C 58 % 1024,9 hPa 0,0 l/m 4,8 km/h (1 Bft) N-NW 337 1 min 0,000 mm 1,4 UV-I 366 W/m 1,8 C 9,7 C 6,4 km/h (2 Bft) 95,65 %
18.09.2019 09:32 9,7 C 21,1 C 58 % 1024,9 hPa 0,0 l/m 1,6 km/h (1 Bft) NO 45 1 min 0,000 mm 1,4 UV-I 362 W/m 1,8 C 9,7 C 3,2 km/h (1 Bft) 100,00 %
18.09.2019 09:31 9,7 C 21,7 C 58 % 1024,9 hPa 0,0 l/m 3,2 km/h (1 Bft) NO 45 1 min 0,000 mm 1,4 UV-I 362 W/m 1,8 C 9,7 C 6,4 km/h (2 Bft) 95,65 %
18.09.2019 09:30 9,6 C 22,2 C 59 % 1024,9 hPa 0,0 l/m 4,8 km/h (1 Bft) NO 45 1 min 0,000 mm 1,3 UV-I 362 W/m 2,0 C 9,6 C 6,4 km/h (2 Bft) 95,65 %
18.09.2019 09:29 9,6 C 22,8 C 60 % 1024,9 hPa 0,0 l/m 0,0 km/h (0 Bft) N 360 1 min 0,000 mm 1,3 UV-I 359 W/m 2,2 C 9,6 C 1,6 km/h (1 Bft) 100,00 %
18.09.2019 09:28 9,6 C 23,9 C 59 % 1024,9 hPa 0,0 l/m 1,6 km/h (1 Bft) N 360 1 min 0,000 mm 1,3 UV-I 357 W/m 2,0 C 9,6 C 3,2 km/h (1 Bft) 95,65 %
18.09.2019 09:27 9,5 C 23,9 C 59 % 1024,8 hPa 0,0 l/m 1,6 km/h (1 Bft) N 360 1 min 0,000 mm 1,3 UV-I 353 W/m 1,9 C 9,5 C 3,2 km/h (1 Bft) 100,00 %
18.09.2019 09:26 9,4 C 23,9 C 58 % 1024,8 hPa 0,0 l/m 3,2 km/h (1 Bft) N 360 1 min 0,000 mm 1,3 UV-I 350 W/m 1,6 C 9,4 C 4,8 km/h (1 Bft) 91,30 %
18.09.2019 09:25 9,4 C 23,9 C 58 % 1024,8 hPa 0,0 l/m 3,2 km/h (1 Bft) NO 45 1 min 0,000 mm 1,3 UV-I 346 W/m 1,6 C 9,4 C 6,4 km/h (2 Bft) 95,65 %
18.09.2019 09:24 9,4 C 25,0 C 58 % 1024,8 hPa 0,0 l/m 6,4 km/h (2 Bft) N 360 1 min 0,000 mm 1,3 UV-I 345 W/m 1,6 C 9,4 C 8,0 km/h (2 Bft) 95,65 %
18.09.2019 09:23 9,4 C 24,4 C 60 % 1024,8 hPa 0,0 l/m 3,2 km/h (1 Bft) N-NW 337 1 min 0,000 mm 1,2 UV-I 343 W/m 2,0 C 9,4 C 4,8 km/h (1 Bft) 95,65 %
18.09.2019 09:22 9,4 C 24,4 C 59 % 1024,8 hPa 0,0 l/m 3,2 km/h (1 Bft) N-NW 337 1 min 0,000 mm 1,2 UV-I 343 W/m 1,8 C 9,4 C 4,8 km/h (1 Bft) 100,00 %
18.09.2019 09:21 9,4 C 23,9 C 59 % 1024,8 hPa 0,0 l/m 4,8 km/h (1 Bft) N-NW 337 1 min 0,000 mm 1,2 UV-I 336 W/m 1,8 C 9,4 C 6,4 km/h (2 Bft) 91,30 %
18.09.2019 09:20 9,3 C 23,9 C 60 % 1024,8 hPa 0,0 l/m 3,2 km/h (1 Bft) N-NW 337 1 min 0,000 mm 1,2 UV-I 334 W/m 1,9 C 9,3 C 8,0 km/h (2 Bft) 100,00 %
18.09.2019 09:19 9,3 C 23,3 C 60 % 1024,8 hPa 0,0 l/m 0,0 km/h (0 Bft) NW 315 1 min 0,000 mm 1,2 UV-I 330 W/m 1,9 C 9,3 C 1,6 km/h (1 Bft) 91,30 %
18.09.2019 09:18 9,3 C 22,8 C 59 % 1024,7 hPa 0,0 l/m 1,6 km/h (1 Bft) NW 315 1 min 0,000 mm 1,2 UV-I 330 W/m 1,7 C 9,3 C 4,8 km/h (1 Bft) 100,00 %
18.09.2019 09:17 9,3 C 22,2 C 59 % 1024,7 hPa 0,0 l/m 4,8 km/h (1 Bft) NW 315 1 min 0,000 mm 1,1 UV-I 327 W/m 1,7 C 9,3 C 6,4 km/h (2 Bft) 95,65 %
18.09.2019 09:16 9,2 C 22,2 C 59 % 1024,7 hPa 0,0 l/m 3,2 km/h (1 Bft) N 360 1 min 0,000 mm 1,1 UV-I 325 W/m 1,6 C 9,2 C 4,8 km/h (1 Bft) 100,00 %
18.09.2019 09:15 9,2 C 22,2 C 59 % 1024,7 hPa 0,0 l/m 1,6 km/h (1 Bft) N 360 1 min 0,000 mm 1,1 UV-I 323 W/m 1,6 C 9,2 C 4,8 km/h (1 Bft) 95,65 %
18.09.2019 09:14 9,2 C 22,8 C 59 % 1024,7 hPa 0,0 l/m 3,2 km/h (1 Bft) N 360 1 min 0,000 mm 1,1 UV-I 322 W/m 1,6 C 9,2 C 4,8 km/h (1 Bft) 100,00 %
18.09.2019 09:13 9,2 C 22,2 C 58 % 1024,7 hPa 0,0 l/m 4,8 km/h (1 Bft) N 360 1 min 0,000 mm 1,1 UV-I 322 W/m 1,4 C 9,2 C 6,4 km/h (2 Bft) 100,00 %
18.09.2019 09:12 9,3 C 22,2 C 59 % 1024,7 hPa 0,0 l/m 4,8 km/h (1 Bft) N-NW 337 1 min 0,000 mm 1,1 UV-I 322 W/m 1,7 C 9,3 C 6,4 km/h (2 Bft) 95,65 %
18.09.2019 09:11 9,2 C 22,8 C 58 % 1024,6 hPa 0,0 l/m 0,0 km/h (0 Bft) N 0 1 min 0,000 mm 1,0 UV-I 322 W/m 1,4 C 9,2 C 0,0 km/h (0 Bft) 100,00 %
18.09.2019 09:10 9,2 C 22,8 C 59 % 1024,6 hPa 0,0 l/m 1,6 km/h (1 Bft) NW 315 1 min 0,000 mm 1,0 UV-I 322 W/m 1,6 C 9,2 C 4,8 km/h (1 Bft) 100,00 %
18.09.2019 09:09 9,2 C 22,8 C 59 % 1024,7 hPa 0,0 l/m 3,2 km/h (1 Bft) N-NW 337 1 min 0,000 mm 1,0 UV-I 320 W/m 1,6 C 9,2 C 4,8 km/h (1 Bft) 100,00 %
18.09.2019 09:08 9,1 C 22,2 C 59 % 1024,6 hPa 0,0 l/m 3,2 km/h (1 Bft) N-NW 337 1 min 0,000 mm 1,0 UV-I 313 W/m 1,5 C 9,1 C 6,4 km/h (2 Bft) 100,00 %
18.09.2019 09:07 9,2 C 22,8 C 59 % 1024,6 hPa 0,0 l/m 3,2 km/h (1 Bft) N-NW 337 1 min 0,000 mm 1,0 UV-I 309 W/m 1,6 C 9,2 C 6,4 km/h (2 Bft) 100,00 %
18.09.2019 09:06 9,1 C 22,8 C 60 % 1024,6 hPa 0,0 l/m 3,2 km/h (1 Bft) N 360 1 min 0,000 mm 1,0 UV-I 304 W/m 1,8 C 9,1 C 6,4 km/h (2 Bft) 95,65 %
18.09.2019 09:05 9,1 C 22,8 C 59 % 1024,6 hPa 0,0 l/m 4,8 km/h (1 Bft) N-NW 337 1 min 0,000 mm 0,9 UV-I 302 W/m 1,5 C 9,1 C 8,0 km/h (2 Bft) 95,65 %
18.09.2019 09:04 9,2 C 22,2 C 60 % 1024,6 hPa 0,0 l/m 6,4 km/h (2 Bft) N-NW 337 1 min 0,000 mm 0,9 UV-I 299 W/m 1,8 C 9,2 C 8,0 km/h (2 Bft) 100,00 %
18.09.2019 09:03 9,1 C 21,7 C 59 % 1024,5 hPa 0,0 l/m 4,8 km/h (1 Bft) W-NW 292 1 min 0,000 mm 0,9 UV-I 297 W/m 1,5 C 9,1 C 6,4 km/h (2 Bft) 100,00 %
18.09.2019 09:02 9,1 C 21,1 C 59 % 1024,5 hPa 0,0 l/m 3,2 km/h (1 Bft) W-NW 292 1 min 0,000 mm 0,9 UV-I 292 W/m 1,5 C 9,1 C 4,8 km/h (1 Bft) 100,00 %
18.09.2019 09:01 9,1 C 21,1 C 59 % 1024,5 hPa 0,0 l/m 3,2 km/h (1 Bft) NW 315 1 min 0,000 mm 0,9 UV-I 287 W/m 1,5 C 9,1 C 4,8 km/h (1 Bft) 100,00 %
18.09.2019 09:00 9,1 C 21,1 C 60 % 1024,5 hPa 0,0 l/m 3,2 km/h (1 Bft) NW 315 1 min 0,102 mm 0,9 UV-I 287 W/m 1,8 C 9,1 C 8,0 km/h (2 Bft) 100,00 %
18.09.2019 08:59 9,0 C 21,1 C 60 % 1024,5 hPa 0,0 l/m 1,6 km/h (1 Bft) NW 315 1 min 0,000 mm 0,9 UV-I 285 W/m 1,7 C 9,0 C 3,2 km/h (1 Bft) 100,00 %
18.09.2019 08:58 9,0 C 20,6 C 60 % 1024,5 hPa 0,0 l/m 1,6 km/h (1 Bft) NW 315 1 min 0,000 mm 0,8 UV-I 281 W/m 1,7 C 9,0 C 3,2 km/h (1 Bft) 100,00 %
18.09.2019 08:57 9,0 C 20,0 C 60 % 1024,5 hPa 0,0 l/m 4,8 km/h (1 Bft) NW 315 1 min 0,000 mm 0,8 UV-I 278 W/m 1,7 C 9,0 C 6,4 km/h (2 Bft) 100,00 %
18.09.2019 08:56 9,0 C 20,0 C 60 % 1024,4 hPa 0,0 l/m 4,8 km/h (1 Bft) W-NW 292 1 min 0,000 mm 0,8 UV-I 274 W/m 1,7 C 9,0 C 6,4 km/h (2 Bft) 100,00 %
18.09.2019 08:55 9,0 C 18,9 C 60 % 1024,4 hPa 0,0 l/m 4,8 km/h (1 Bft) NW 315 1 min 0,000 mm 0,8 UV-I 272 W/m 1,7 C 9,0 C 6,4 km/h (2 Bft) 100,00 %
18.09.2019 08:54 9,0 C 18,9 C 61 % 1024,4 hPa 0,0 l/m 4,8 km/h (1 Bft) NW 315 1 min 0,000 mm 0,8 UV-I 271 W/m 1,9 C 9,0 C 8,0 km/h (2 Bft) 100,00 %
18.09.2019 08:53 8,9 C 19,4 C 60 % 1024,4 hPa 0,0 l/m 4,8 km/h (1 Bft) NW 315 1 min 0,000 mm 0,8 UV-I 267 W/m 1,6 C 8,9 C 6,4 km/h (2 Bft) 100,00 %
18.09.2019 08:52 8,9 C 18,9 C 60 % 1024,4 hPa 0,0 l/m 4,8 km/h (1 Bft) W-NW 292 1 min 0,000 mm 0,8 UV-I 265 W/m 1,6 C 8,9 C 8,0 km/h (2 Bft) 95,65 %
18.09.2019 08:51 8,9 C 18,3 C 59 % 1024,4 hPa 0,0 l/m 4,8 km/h (1 Bft) W-NW 292 1 min 0,000 mm 0,7 UV-I 262 W/m 1,3 C 8,9 C 8,0 km/h (2 Bft) 100,00 %
18.09.2019 08:50 8,9 C 17,8 C 59 % 1024,4 hPa 0,0 l/m 6,4 km/h (2 Bft) NW 315 1 min 0,000 mm 0,7 UV-I 258 W/m 1,3 C 8,9 C 11,3 km/h (2 Bft) 100,00 %
18.09.2019 08:49 8,9 C 17,2 C 60 % 1024,3 hPa 0,0 l/m 4,8 km/h (1 Bft) W-NW 292 1 min 0,000 mm 0,7 UV-I 257 W/m 1,6 C 8,9 C 8,0 km/h (2 Bft) 100,00 %
18.09.2019 08:48 8,9 C 16,1 C 60 % 1024,4 hPa 0,0 l/m 3,2 km/h (1 Bft) W-NW 292 1 min 0,000 mm 0,7 UV-I 255 W/m 1,6 C 8,9 C 8,0 km/h (2 Bft) 95,65 %
18.09.2019 08:47 8,9 C 15,0 C 60 % 1024,4 hPa 0,0 l/m 3,2 km/h (1 Bft) W 270 1 min 0,000 mm 0,7 UV-I 251 W/m 1,6 C 8,9 C 6,4 km/h (2 Bft) 100,00 %
18.09.2019 08:46 8,9 C 13,3 C 63 % 1024,4 hPa 0,0 l/m 3,2 km/h (1 Bft) W-NW 292 1 min 0,000 mm 0,7 UV-I 250 W/m 2,2 C 8,9 C 9,7 km/h (2 Bft) 100,00 %
18.09.2019 08:45 8,8 C 12,2 C 63 % 1024,2 hPa 0,0 l/m 1,6 km/h (1 Bft) W-NW 292 1 min 0,000 mm 0,7 UV-I 246 W/m 2,2 C 8,8 C 3,2 km/h (1 Bft) 100,00 %
18.09.2019 08:44 8,8 C 11,1 C 62 % 1024,2 hPa 0,0 l/m 3,2 km/h (1 Bft) W-NW 292 1 min 0,000 mm 0,7 UV-I 244 W/m 1,9 C 8,8 C 4,8 km/h (1 Bft) 100,00 %
18.09.2019 08:43 8,7 C 10,6 C 61 % 1024,2 hPa 0,0 l/m 1,6 km/h (1 Bft) W-NW 292 1 min 0,000 mm 0,6 UV-I 241 W/m 1,6 C 8,7 C 3,2 km/h (1 Bft) 91,30 %
18.09.2019 08:42 8,7 C 10,0 C 62 % 1024,2 hPa 0,0 l/m 1,6 km/h (1 Bft) W-NW 292 1 min 0,000 mm 0,6 UV-I 239 W/m 1,8 C 8,7 C 3,2 km/h (1 Bft) 100,00 %
18.09.2019 08:41 8,6 C 9,4 C 61 % 1024,2 hPa 0,0 l/m 4,8 km/h (1 Bft) W-NW 292 1 min 0,000 mm 0,6 UV-I 237 W/m 1,5 C 8,6 C 4,8 km/h (1 Bft) 100,00 %
18.09.2019 08:40 8,6 C 8,9 C 61 % 1024,2 hPa 0,0 l/m 3,2 km/h (1 Bft) W-NW 292 1 min 0,000 mm 0,6 UV-I 236 W/m 1,5 C 8,6 C 4,8 km/h (1 Bft) 95,65 %
18.09.2019 08:39 8,6 C 8,9 C 61 % 1024,3 hPa 0,0 l/m 4,8 km/h (1 Bft) W 270 1 min 0,000 mm 0,6 UV-I 232 W/m 1,5 C 8,6 C 6,4 km/h (2 Bft) 95,65 %
18.09.2019 08:38 8,7 C 8,3 C 62 % 1024,2 hPa 0,0 l/m 3,2 km/h (1 Bft) W-NW 292 1 min 0,000 mm 0,6 UV-I 227 W/m 1,8 C 8,7 C 4,8 km/h (1 Bft) 91,30 %
18.09.2019 08:37 8,6 C 8,3 C 61 % 1024,2 hPa 0,0 l/m 4,8 km/h (1 Bft) W-NW 292 1 min 0,000 mm 0,6 UV-I 227 W/m 1,5 C 8,6 C 6,4 km/h (2 Bft) 100,00 %
18.09.2019 08:36 8,7 C 8,3 C 62 % 1024,1 hPa 0,0 l/m 4,8 km/h (1 Bft) W-NW 292 1 min 0,000 mm 0,5 UV-I 225 W/m 1,8 C 8,7 C 6,4 km/h (2 Bft) 91,30 %
18.09.2019 08:35 8,7 C 8,3 C 64 % 1024,2 hPa 0,0 l/m 3,2 km/h (1 Bft) W-NW 292 1 min 0,000 mm 0,5 UV-I 221 W/m 2,3 C 8,7 C 4,8 km/h (1 Bft) 95,65 %
18.09.2019 08:34 8,6 C 7,8 C 63 % 1024,2 hPa 0,0 l/m 1,6 km/h (1 Bft) W 270 1 min 0,000 mm 0,5 UV-I 220 W/m 2,0 C 8,6 C 3,2 km/h (1 Bft) 100,00 %
18.09.2019 08:33 8,6 C 7,8 C 63 % 1024,2 hPa 0,0 l/m 3,2 km/h (1 Bft) W 270 1 min 0,000 mm 0,5 UV-I 214 W/m 2,0 C 8,6 C 4,8 km/h (1 Bft) 100,00 %
18.09.2019 08:32 8,5 C 7,8 C 63 % 1024,1 hPa 0,0 l/m 4,8 km/h (1 Bft) W 270 1 min 0,000 mm 0,5 UV-I 213 W/m 1,9 C 8,5 C 4,8 km/h (1 Bft) 100,00 %
18.09.2019 08:31 8,5 C 7,8 C 63 % 1024,1 hPa 0,0 l/m 3,2 km/h (1 Bft) W-NW 292 1 min 0,000 mm 0,5 UV-I 204 W/m 1,9 C 8,5 C 6,4 km/h (2 Bft) 100,00 %
18.09.2019 08:30 8,5 C 7,8 C 63 % 1024,2 hPa 0,0 l/m 1,6 km/h (1 Bft) W-NW 292 1 min 0,000 mm 0,5 UV-I 209 W/m 1,9 C 8,5 C 3,2 km/h (1 Bft) 95,65 %
18.09.2019 08:29 8,4 C 7,8 C 63 % 1024,1 hPa 0,0 l/m 1,6 km/h (1 Bft) W-NW 292 1 min 0,000 mm 0,5 UV-I 207 W/m 1,8 C 8,4 C 3,2 km/h (1 Bft) 100,00 %
18.09.2019 08:28 8,4 C 7,2 C 63 % 1024,1 hPa 0,0 l/m 3,2 km/h (1 Bft) W-NW 292 1 min 0,000 mm 0,5 UV-I 204 W/m 1,8 C 8,4 C 6,4 km/h (2 Bft) 100,00 %
18.09.2019 08:27 8,3 C 7,2 C 63 % 1024,1 hPa 0,0 l/m 4,8 km/h (1 Bft) W 270 1 min 0,000 mm 0,5 UV-I 197 W/m 1,7 C 8,3 C 9,7 km/h (2 Bft) 100,00 %
18.09.2019 08:26 8,3 C 7,2 C 62 % 1024,1 hPa 0,0 l/m 8,0 km/h (2 Bft) W-NW 292 1 min 0,000 mm 0,5 UV-I 197 W/m 1,5 C 7,1 C 11,3 km/h (2 Bft) 100,00 %
18.09.2019 08:25 8,4 C 7,2 C 65 % 1024,1 hPa 0,0 l/m 6,4 km/h (2 Bft) W 270 1 min 0,000 mm 0,0 UV-I 195 W/m 2,2 C 8,4 C 9,7 km/h (2 Bft) 100,00 %
18.09.2019 08:24 8,3 C 7,2 C 65 % 1024,1 hPa 0,0 l/m 1,6 km/h (1 Bft) W 270 1 min 0,000 mm 0,0 UV-I 192 W/m 2,1 C 8,3 C 4,8 km/h (1 Bft) 100,00 %
18.09.2019 08:23 8,3 C 7,2 C 65 % 1024,2 hPa 0,0 l/m 0,0 km/h (0 Bft) W 270 1 min 0,000 mm 0,0 UV-I 190 W/m 2,1 C 8,3 C 1,6 km/h (1 Bft) 91,30 %
18.09.2019 08:22 8,3 C 6,7 C 64 % 1024,1 hPa 0,0 l/m 1,6 km/h (1 Bft) W 270 1 min 0,000 mm 0,0 UV-I 186 W/m 1,9 C 8,3 C 3,2 km/h (1 Bft) 100,00 %
18.09.2019 08:21 8,2 C 6,7 C 64 % 1024,1 hPa 0,0 l/m 3,2 km/h (1 Bft) W 270 1 min 0,000 mm 0,0 UV-I 183 W/m 1,8 C 8,2 C 4,8 km/h (1 Bft) 100,00 %
18.09.2019 08:20 8,2 C 6,7 C 64 % 1024,1 hPa 0,0 l/m 4,8 km/h (1 Bft) W 270 1 min 0,000 mm 0,0 UV-I 181 W/m 1,8 C 8,2 C 6,4 km/h (2 Bft) 100,00 %
18.09.2019 08:19 8,1 C 6,7 C 65 % 1024,2 hPa 0,0 l/m 1,6 km/h (1 Bft) W 270 1 min 0,000 mm 0,0 UV-I 178 W/m 1,9 C 8,1 C 4,8 km/h (1 Bft) 95,65 %
18.09.2019 08:18 8,1 C 6,7 C 65 % 1024,1 hPa 0,0 l/m 1,6 km/h (1 Bft) W 270 1 min 0,000 mm 0,0 UV-I 176 W/m 1,9 C 8,1 C 4,8 km/h (1 Bft) 95,65 %
18.09.2019 08:17 8,1 C 6,7 C 65 % 1024,1 hPa 0,0 l/m 3,2 km/h (1 Bft) W 270 1 min 0,000 mm 0,0 UV-I 172 W/m 1,9 C 8,1 C 4,8 km/h (1 Bft) 100,00 %
18.09.2019 08:16 8,1 C 6,7 C 65 % 1024,2 hPa 0,0 l/m 4,8 km/h (1 Bft) W 270 1 min 0,000 mm 0,0 UV-I 167 W/m 1,9 C 8,1 C 6,4 km/h (2 Bft) 100,00 %
18.09.2019 08:15 8,0 C 6,7 C 66 % 1024,2 hPa 0,0 l/m 1,6 km/h (1 Bft) W 270 1 min 0,000 mm 0,0 UV-I 163 W/m 2,0 C 8,0 C 3,2 km/h (1 Bft) 100,00 %
18.09.2019 08:14 7,9 C 6,7 C 66 % 1024,2 hPa 0,0 l/m 1,6 km/h (1 Bft) W 270 1 min 0,000 mm 0,0 UV-I 162 W/m 1,9 C 7,9 C 3,2 km/h (1 Bft) 100,00 %
18.09.2019 08:13 7,9 C 6,7 C 66 % 1024,1 hPa 0,0 l/m 1,6 km/h (1 Bft) W 270 1 min 0,000 mm 0,0 UV-I 158 W/m 1,9 C 7,9 C 3,2 km/h (1 Bft) 100,00 %
18.09.2019 08:12 7,9 C 6,7 C 66 % 1024,2 hPa 0,0 l/m 4,8 km/h (1 Bft) W 270 1 min 0,000 mm 0,0 UV-I 156 W/m 1,9 C 7,9 C 6,4 km/h (2 Bft) 95,65 %
18.09.2019 08:11 7,8 C 6,7 C 66 % 1024,1 hPa 0,0 l/m 3,2 km/h (1 Bft) W-SW 247 1 min 0,000 mm 0,0 UV-I 155 W/m 1,9 C 7,8 C 4,8 km/h (1 Bft) 95,65 %
18.09.2019 08:10 7,8 C 6,7 C 67 % 1024,1 hPa 0,0 l/m 1,6 km/h (1 Bft) W-SW 247 0 min 0,000 mm 0,0 UV-I 149 W/m 2,1 C 7,8 C 4,8 km/h (1 Bft) 100,00 %
18.09.2019 08:09 7,8 C 6,7 C 67 % 1024,2 hPa 0,0 l/m 3,2 km/h (1 Bft) W-SW 247 0 min 0,000 mm 0,0 UV-I 146 W/m 2,1 C 7,8 C 4,8 km/h (1 Bft) 95,65 %
18.09.2019 08:08 7,8 C 6,7 C 66 % 1024,1 hPa 0,0 l/m 3,2 km/h (1 Bft) W-SW 247 0 min 0,000 mm 0,0 UV-I 144 W/m 1,9 C 7,8 C 4,8 km/h (1 Bft) 100,00 %
18.09.2019 08:07 7,8 C 6,7 C 67 % 1024,1 hPa 0,0 l/m 1,6 km/h (1 Bft) W-SW 247 0 min 0,000 mm 0,0 UV-I 141 W/m 2,1 C 7,8 C 3,2 km/h (1 Bft) 91,30 %
18.09.2019 08:06 7,7 C 6,1 C 67 % 1024,1 hPa 0,0 l/m 3,2 km/h (1 Bft) W-NW 292 0 min 0,000 mm 0,0 UV-I 139 W/m 2,0 C 7,7 C 4,8 km/h (1 Bft) 95,65 %
18.09.2019 08:05 7,7 C 6,1 C 67 % 1024,0 hPa 0,0 l/m 3,2 km/h (1 Bft) W-NW 292 0 min 0,000 mm 0,0 UV-I 137 W/m 2,0 C 7,7 C 4,8 km/h (1 Bft) 100,00 %
18.09.2019 08:04 7,6 C 6,1 C 68 % 1024,0 hPa 0,0 l/m 3,2 km/h (1 Bft) W-NW 292 0 min 0,000 mm 0,0 UV-I 132 W/m 2,1 C 7,6 C 4,8 km/h (1 Bft) 95,65 %
18.09.2019 08:03 7,7 C 6,1 C 68 % 1024,0 hPa 0,0 l/m 1,6 km/h (1 Bft) W-NW 292 0 min 0,000 mm 0,0 UV-I 125 W/m 2,2 C 7,7 C 1,6 km/h (1 Bft) 95,65 %
18.09.2019 08:02 7,6 C 6,1 C 68 % 1023,9 hPa 0,0 l/m 1,6 km/h (1 Bft) W-NW 292 0 min 0,000 mm 0,0 UV-I 127 W/m 2,1 C 7,6 C 3,2 km/h (1 Bft) 100,00 %
18.09.2019 08:01 7,6 C 6,1 C 68 % 1023,9 hPa 0,0 l/m 0,0 km/h (0 Bft) N 0 0 min 0,000 mm 0,0 UV-I 125 W/m 2,1 C 7,6 C 0,0 km/h (0 Bft) 100,00 %
18.09.2019 08:00 7,7 C 6,1 C 67 % 1023,9 hPa 0,0 l/m 1,6 km/h (1 Bft) W-NW 292 0 min 0,025 mm 0,0 UV-I 121 W/m 2,0 C 7,7 C 1,6 km/h (1 Bft) 95,65 %
18.09.2019 07:59 7,7 C 6,1 C 67 % 1023,9 hPa 0,0 l/m 1,6 km/h (1 Bft) W-NW 292 0 min 0,000 mm 0,0 UV-I 118 W/m 2,0 C 7,7 C 3,2 km/h (1 Bft) 95,65 %
18.09.2019 07:58 7,7 C 6,1 C 67 % 1023,8 hPa 0,0 l/m 1,6 km/h (1 Bft) W-NW 292 0 min 0,000 mm 0,0 UV-I 113 W/m 2,0 C 7,7 C 3,2 km/h (1 Bft) 100,00 %
18.09.2019 07:57 7,7 C 6,1 C 66 % 1023,9 hPa 0,0 l/m 0,0 km/h (0 Bft) W-NW 292 0 min 0,000 mm 0,0 UV-I 107 W/m 1,8 C 7,7 C 1,6 km/h (1 Bft) 100,00 %
18.09.2019 07:56 7,7 C 6,1 C 66 % 1023,9 hPa 0,0 l/m 0,0 km/h (0 Bft) W-NW 292 0 min 0,000 mm 0,0 UV-I 98 W/m 1,8 C 7,7 C 3,2 km/h (1 Bft) 95,65 %
18.09.2019 07:55 7,6 C 6,1 C 66 % 1023,8 hPa 0,0 l/m 0,0 km/h (0 Bft) W-NW 292 0 min 0,000 mm 0,0 UV-I 104 W/m 1,7 C 7,6 C 1,6 km/h (1 Bft) 95,65 %
18.09.2019 07:54 7,6 C 6,1 C 66 % 1023,8 hPa 0,0 l/m 1,6 km/h (1 Bft) W-NW 292 0 min 0,000 mm 0,0 UV-I 100 W/m 1,7 C 7,6 C 3,2 km/h (1 Bft) 100,00 %
18.09.2019 07:53 7,6 C 6,1 C 67 % 1023,8 hPa 0,0 l/m 1,6 km/h (1 Bft) W-NW 292 0 min 0,000 mm 0,0 UV-I 97 W/m 1,9 C 7,6 C 3,2 km/h (1 Bft) 100,00 %
18.09.2019 07:52 7,6 C 6,1 C 66 % 1023,8 hPa 0,0 l/m 1,6 km/h (1 Bft) W-NW 292 0 min 0,000 mm 0,0 UV-I 91 W/m 1,7 C 7,6 C 4,8 km/h (1 Bft) 100,00 %
18.09.2019 07:51 7,4 C 6,1 C 66 % 1023,8 hPa 0,0 l/m 1,6 km/h (1 Bft) W-NW 292 0 min 0,000 mm 0,0 UV-I 90 W/m 1,5 C 7,4 C 4,8 km/h (1 Bft) 100,00 %
18.09.2019 07:50 7,4 C 6,1 C 67 % 1023,7 hPa 0,0 l/m 1,6 km/h (1 Bft) W-NW 292 0 min 0,000 mm 0,0 UV-I 86 W/m 1,7 C 7,4 C 3,2 km/h (1 Bft) 95,65 %
18.09.2019 07:49 7,3 C 6,1 C 67 % 1023,8 hPa 0,0 l/m 1,6 km/h (1 Bft) W-NW 292 0 min 0,000 mm 0,0 UV-I 84 W/m 1,6 C 7,3 C 3,2 km/h (1 Bft) 100,00 %
18.09.2019 07:48 7,3 C 6,1 C 67 % 1023,7 hPa 0,0 l/m 1,6 km/h (1 Bft) W-NW 292 0 min 0,000 mm 0,0 UV-I 81 W/m 1,6 C 7,3 C 3,2 km/h (1 Bft) 100,00 %
18.09.2019 07:47 7,3 C 6,1 C 67 % 1023,8 hPa 0,0 l/m 1,6 km/h (1 Bft) W-NW 292 0 min 0,000 mm 0,0 UV-I 79 W/m 1,6 C 7,3 C 3,2 km/h (1 Bft) 100,00 %
18.09.2019 07:46 7,3 C 6,1 C 67 % 1023,7 hPa 0,0 l/m 0,0 km/h (0 Bft) W-NW 292 0 min 0,000 mm 0,0 UV-I 74 W/m 1,6 C 7,3 C 1,6 km/h (1 Bft) 100,00 %
18.09.2019 07:45 7,2 C 6,1 C 67 % 1023,7 hPa 0,0 l/m 3,2 km/h (1 Bft) W-NW 292 0 min 0,000 mm 0,0 UV-I 67 W/m 1,5 C 7,2 C 3,2 km/h (1 Bft) 95,65 %
18.09.2019 07:44 7,1 C 6,1 C 68 % 1023,6 hPa 0,0 l/m 1,6 km/h (1 Bft) W-NW 292 0 min 0,000 mm 0,0 UV-I 49 W/m 1,6 C 7,1 C 3,2 km/h (1 Bft) 95,65 %
18.09.2019 07:43 7,1 C 6,1 C 68 % 1023,7 hPa 0,0 l/m 1,6 km/h (1 Bft) W-NW 292 0 min 0,000 mm 0,0 UV-I 30 W/m 1,6 C 7,1 C 1,6 km/h (1 Bft) 95,65 %
18.09.2019 07:42 7,1 C 6,1 C 68 % 1023,7 hPa 0,0 l/m 1,6 km/h (1 Bft) W-NW 292 0 min 0,000 mm 0,0 UV-I 23 W/m 1,6 C 7,1 C 3,2 km/h (1 Bft) 91,30 %
18.09.2019 07:41 7,1 C 5,6 C 68 % 1023,7 hPa 0,0 l/m 0,0 km/h (0 Bft) W-NW 292 0 min 0,000 mm 0,0 UV-I 23 W/m 1,6 C 7,1 C 1,6 km/h (1 Bft) 100,00 %
18.09.2019 07:40 7,1 C 5,6 C 67 % 1023,7 hPa 0,0 l/m 3,2 km/h (1 Bft) W-NW 292 0 min 0,000 mm 0,0 UV-I 23 W/m 1,4 C 7,1 C 4,8 km/h (1 Bft) 100,00 %
18.09.2019 07:39 7,1 C 5,0 C 68 % 1023,6 hPa 0,0 l/m 1,6 km/h (1 Bft) W-NW 292 0 min 0,000 mm 0,0 UV-I 23 W/m 1,6 C 7,1 C 3,2 km/h (1 Bft) 100,00 %
18.09.2019 07:38 7,0 C 5,0 C 69 % 1023,6 hPa 0,0 l/m 1,6 km/h (1 Bft) W-NW 292 0 min 0,000 mm 0,0 UV-I 23 W/m 1,7 C 7,0 C 4,8 km/h (1 Bft) 100,00 %
18.09.2019 07:37 6,9 C 4,4 C 69 % 1023,5 hPa 0,0 l/m 1,6 km/h (1 Bft) W-NW 292 0 min 0,000 mm 0,0 UV-I 25 W/m 1,6 C 6,9 C 3,2 km/h (1 Bft) 95,65 %
18.09.2019 07:36 6,9 C 4,4 C 69 % 1023,5 hPa 0,0 l/m 1,6 km/h (1 Bft) W-NW 292 0 min 0,000 mm 0,0 UV-I 28 W/m 1,6 C 6,9 C 3,2 km/h (1 Bft) 100,00 %
18.09.2019 07:35 6,8 C 4,4 C 69 % 1023,6 hPa 0,0 l/m 1,6 km/h (1 Bft) W-NW 292 0 min 0,000 mm 0,0 UV-I 26 W/m 1,5 C 6,8 C 1,6 km/h (1 Bft) 100,00 %
18.09.2019 07:34 6,8 C 4,4 C 69 % 1023,5 hPa 0,0 l/m 0,0 km/h (0 Bft) W-NW 292 0 min 0,000 mm 0,0 UV-I 26 W/m 1,5 C 6,8 C 1,6 km/h (1 Bft) 100,00 %
18.09.2019 07:33 6,7 C 4,4 C 70 % 1023,5 hPa 0,0 l/m 1,6 km/h (1 Bft) W-NW 292 0 min 0,000 mm 0,0 UV-I 30 W/m 1,6 C 6,7 C 3,2 km/h (1 Bft) 91,30 %
18.09.2019 07:32 6,7 C 4,4 C 70 % 1023,5 hPa 0,0 l/m 1,6 km/h (1 Bft) W-NW 292 0 min 0,000 mm 0,0 UV-I 33 W/m 1,6 C 6,7 C 3,2 km/h (1 Bft) 100,00 %
18.09.2019 07:31 6,7 C 4,4 C 70 % 1023,5 hPa 0,0 l/m 0,0 km/h (0 Bft) W-NW 292 0 min 0,000 mm 0,0 UV-I 30 W/m 1,6 C 6,7 C 1,6 km/h (1 Bft) 95,65 %
18.09.2019 07:30 6,6 C 4,4 C 70 % 1023,5 hPa 0,0 l/m 1,6 km/h (1 Bft) W-NW 292 0 min 0,000 mm 0,0 UV-I 28 W/m 1,5 C 6,6 C 3,2 km/h (1 Bft) 100,00 %
18.09.2019 07:29 6,6 C 4,4 C 70 % 1023,5 hPa 0,0 l/m 0,0 km/h (0 Bft) W-NW 292 0 min 0,000 mm 0,0 UV-I 21 W/m 1,5 C 6,6 C 1,6 km/h (1 Bft) 100,00 %
18.09.2019 07:28 6,6 C 4,4 C 70 % 1023,5 hPa 0,0 l/m 1,6 km/h (1 Bft) W-NW 292 0 min 0,000 mm 0,0 UV-I 19 W/m 1,5 C 6,6 C 3,2 km/h (1 Bft) 100,00 %
18.09.2019 07:27 6,6 C 3,9 C 70 % 1023,5 hPa 0,0 l/m 1,6 km/h (1 Bft) W-NW 292 0 min 0,000 mm 0,0 UV-I 19 W/m 1,5 C 6,6 C 3,2 km/h (1 Bft) 100,00 %
18.09.2019 07:26 6,6 C 3,9 C 70 % 1023,5 hPa 0,0 l/m 1,6 km/h (1 Bft) W-NW 292 0 min 0,000 mm 0,0 UV-I 19 W/m 1,5 C 6,6 C 1,6 km/h (1 Bft) 100,00 %
18.09.2019 07:25 6,6 C 3,9 C 70 % 1023,4 hPa 0,0 l/m 1,6 km/h (1 Bft) W-NW 292 0 min 0,000 mm 0,0 UV-I 19 W/m 1,5 C 6,6 C 3,2 km/h (1 Bft) 100,00 %
18.09.2019 07:24 6,6 C 3,9 C 70 % 1023,4 hPa 0,0 l/m 1,6 km/h (1 Bft) W-NW 292 0 min 0,000 mm 0,0 UV-I 18 W/m 1,5 C 6,6 C 3,2 km/h (1 Bft) 100,00 %
18.09.2019 07:23 6,6 C 3,9 C 70 % 1023,4 hPa 0,0 l/m 3,2 km/h (1 Bft) W-NW 292 0 min 0,000 mm 0,0 UV-I 18 W/m 1,5 C 6,6 C 3,2 km/h (1 Bft) 100,00 %
18.09.2019 07:22 6,6 C 3,9 C 70 % 1023,3 hPa 0,0 l/m 1,6 km/h (1 Bft) NW 315 0 min 0,000 mm 0,0 UV-I 16 W/m 1,5 C 6,6 C 3,2 km/h (1 Bft) 100,00 %
18.09.2019 07:21 6,6 C 3,9 C 70 % 1023,4 hPa 0,0 l/m 0,0 km/h (0 Bft) N-NW 337 0 min 0,000 mm 0,0 UV-I 16 W/m 1,5 C 6,6 C 1,6 km/h (1 Bft) 100,00 %
18.09.2019 07:20 6,6 C 3,9 C 70 % 1023,4 hPa 0,0 l/m 0,0 km/h (0 Bft) N 0 0 min 0,000 mm 0,0 UV-I 16 W/m 1,5 C 6,6 C 0,0 km/h (0 Bft) 100,00 %
18.09.2019 07:19 6,6 C 3,9 C 70 % 1023,4 hPa 0,0 l/m 0,0 km/h (0 Bft) N-NW 337 0 min 0,000 mm 0,0 UV-I 16 W/m 1,5 C 6,6 C 1,6 km/h (1 Bft) 100,00 %
18.09.2019 07:18 6,5 C 3,9 C 70 % 1023,3 hPa 0,0 l/m 1,6 km/h (1 Bft) N-NW 337 0 min 0,000 mm 0,0 UV-I 14 W/m 1,4 C 6,5 C 3,2 km/h (1 Bft) 91,30 %
18.09.2019 07:17 6,5 C 3,9 C 70 % 1023,3 hPa 0,0 l/m 1,6 km/h (1 Bft) N-NW 337 0 min 0,000 mm 0,0 UV-I 14 W/m 1,4 C 6,5 C 3,2 km/h (1 Bft) 100,00 %
18.09.2019 07:16 6,5 C 3,9 C 70 % 1023,3 hPa 0,0 l/m 1,6 km/h (1 Bft) N-NW 337 0 min 0,000 mm 0,0 UV-I 14 W/m 1,4 C 6,5 C 1,6 km/h (1 Bft) 91,30 %
18.09.2019 07:15 6,5 C 3,9 C 70 % 1023,3 hPa 0,0 l/m 1,6 km/h (1 Bft) N-NW 337 0 min 0,000 mm 0,0 UV-I 14 W/m 1,4 C 6,5 C 1,6 km/h (1 Bft) 100,00 %
18.09.2019 07:14 6,5 C 3,9 C 70 % 1023,4 hPa 0,0 l/m 1,6 km/h (1 Bft) N-NW 337 0 min 0,000 mm 0,0 UV-I 14 W/m 1,4 C 6,5 C 1,6 km/h (1 Bft) 100,00 %
18.09.2019 07:13 6,5 C 3,9 C 70 % 1023,3 hPa 0,0 l/m 0,0 km/h (0 Bft) N-NW 337 0 min 0,000 mm 0,0 UV-I 14 W/m 1,4 C 6,5 C 1,6 km/h (1 Bft) 95,65 %
18.09.2019 07:12 6,5 C 3,9 C 70 % 1023,2 hPa 0,0 l/m 1,6 km/h (1 Bft) N-NW 337 0 min 0,000 mm 0,0 UV-I 14 W/m 1,4 C 6,5 C 1,6 km/h (1 Bft) 100,00 %
18.09.2019 07:11 6,6 C 3,9 C 70 % 1023,2 hPa 0,0 l/m 0,0 km/h (0 Bft) N-NW 337 0 min 0,000 mm 0,0 UV-I 14 W/m 1,5 C 6,6 C 1,6 km/h (1 Bft) 100,00 %
18.09.2019 07:10 6,6 C 3,9 C 70 % 1023,3 hPa 0,0 l/m 0,0 km/h (0 Bft) N-NW 337 0 min 0,000 mm 0,0 UV-I 14 W/m 1,5 C 6,6 C 1,6 km/h (1 Bft) 100,00 %
18.09.2019 07:09 6,6 C 3,9 C 70 % 1023,3 hPa 0,0 l/m 1,6 km/h (1 Bft) N-NW 337 0 min 0,000 mm 0,0 UV-I 12 W/m 1,5 C 6,6 C 3,2 km/h (1 Bft) 95,65 %
18.09.2019 07:08 6,6 C 3,9 C 70 % 1023,3 hPa 0,0 l/m 0,0 km/h (0 Bft) N-NW 337 0 min 0,000 mm 0,0 UV-I 12 W/m 1,5 C 6,6 C 1,6 km/h (1 Bft) 95,65 %
18.09.2019 07:07 6,6 C 3,9 C 69 % 1023,3 hPa 0,0 l/m 0,0 km/h (0 Bft) N-NW 337 0 min 0,000 mm 0,0 UV-I 12 W/m 1,3 C 6,6 C 1,6 km/h (1 Bft) 100,00 %
18.09.2019 07:06 6,7 C 3,9 C 69 % 1023,3 hPa 0,0 l/m 0,0 km/h (0 Bft) N 0 0 min 0,000 mm 0,0 UV-I 12 W/m 1,4 C 6,7 C 0,0 km/h (0 Bft) 95,65 %
18.09.2019 07:05 6,8 C 3,9 C 69 % 1023,3 hPa 0,0 l/m 0,0 km/h (0 Bft) N 0 0 min 0,000 mm 0,0 UV-I 12 W/m 1,5 C 6,8 C 0,0 km/h (0 Bft) 100,00 %
18.09.2019 07:04 6,8 C 3,9 C 69 % 1023,4 hPa 0,0 l/m 0,0 km/h (0 Bft) N-NW 337 0 min 0,000 mm 0,0 UV-I 11 W/m 1,5 C 6,8 C 1,6 km/h (1 Bft) 95,65 %
18.09.2019 07:03 6,8 C 3,9 C 68 % 1023,3 hPa 0,0 l/m 1,6 km/h (1 Bft) N-NW 337 0 min 0,000 mm 0,0 UV-I 11 W/m 1,3 C 6,8 C 3,2 km/h (1 Bft) 100,00 %
18.09.2019 07:02 6,9 C 3,9 C 68 % 1023,3 hPa 0,0 l/m 1,6 km/h (1 Bft) N-NW 337 0 min 0,000 mm 0,0 UV-I 11 W/m 1,4 C 6,9 C 3,2 km/h (1 Bft) 95,65 %
18.09.2019 07:01 6,8 C 3,9 C 68 % 1023,3 hPa 0,0 l/m 0,0 km/h (0 Bft) N-NW 337 0 min 0,000 mm 0,0 UV-I 11 W/m 1,3 C 6,8 C 1,6 km/h (1 Bft) 100,00 %
18.09.2019 07:00 6,8 C 3,9 C 68 % 1023,3 hPa 0,0 l/m 0,0 km/h (0 Bft) N 0 0 min 0,000 mm 0,0 UV-I 11 W/m 1,3 C 6,8 C 0,0 km/h (0 Bft) 100,00 %
18.09.2019 06:59 6,8 C 3,9 C 68 % 1023,3 hPa 0,0 l/m 0,0 km/h (0 Bft) N 0 0 min 0,000 mm 0,0 UV-I 9 W/m 1,3 C 6,8 C 0,0 km/h (0 Bft) 100,00 %
18.09.2019 06:58 6,8 C 3,9 C 68 % 1023,3 hPa 0,0 l/m 0,0 km/h (0 Bft) N 0 0 min 0,000 mm 0,0 UV-I 9 W/m 1,3 C 6,8 C 0,0 km/h (0 Bft) 95,65 %
18.09.2019 06:57 6,8 C 3,9 C 68 % 1023,3 hPa 0,0 l/m 0,0 km/h (0 Bft) N 0 0 min 0,000 mm 0,0 UV-I 9 W/m 1,3 C 6,8 C 0,0 km/h (0 Bft) 100,00 %
18.09.2019 06:56 6,8 C 3,9 C 68 % 1023,2 hPa 0,0 l/m 0,0 km/h (0 Bft) N 0 0 min 0,000 mm 0,0 UV-I 9 W/m 1,3 C 6,8 C 0,0 km/h (0 Bft) 100,00 %
18.09.2019 06:55 6,9 C 3,9 C 68 % 1023,2 hPa 0,0 l/m 0,0 km/h (0 Bft) N 0 0 min 0,000 mm 0,0 UV-I 7 W/m 1,4 C 6,9 C 0,0 km/h (0 Bft) 100,00 %
18.09.2019 06:54 6,9 C 3,9 C 68 % 1023,1 hPa 0,0 l/m 0,0 km/h (0 Bft) N 0 0 min 0,000 mm 0,0 UV-I 7 W/m 1,4 C 6,9 C 0,0 km/h (0 Bft) 100,00 %
18.09.2019 06:53 6,9 C 3,9 C 68 % 1023,3 hPa 0,0 l/m 0,0 km/h (0 Bft) N 0 0 min 0,000 mm 0,0 UV-I 7 W/m 1,4 C 6,9 C 0,0 km/h (0 Bft) 95,65 %
18.09.2019 06:52 6,9 C 3,9 C 68 % 1023,2 hPa 0,0 l/m 0,0 km/h (0 Bft) N 0 0 min 0,000 mm 0,0 UV-I 7 W/m 1,4 C 6,9 C 0,0 km/h (0 Bft) 100,00 %
18.09.2019 06:51 6,9 C 3,9 C 68 % 1023,2 hPa 0,0 l/m 0,0 km/h (0 Bft) N 0 0 min 0,000 mm 0,0 UV-I 5 W/m 1,4 C 6,9 C 0,0 km/h (0 Bft) 100,00 %
18.09.2019 06:50 6,9 C 3,9 C 68 % 1023,2 hPa 0,0 l/m 0,0 km/h (0 Bft) N 0 0 min 0,000 mm 0,0 UV-I 5 W/m 1,4 C 6,9 C 0,0 km/h (0 Bft) 100,00 %
18.09.2019 06:49 6,9 C 3,9 C 68 % 1023,1 hPa 0,0 l/m 0,0 km/h (0 Bft) N 0 0 min 0,000 mm 0,0 UV-I 5 W/m 1,4 C 6,9 C 0,0 km/h (0 Bft) 100,00 %
18.09.2019 06:48 6,9 C 3,9 C 68 % 1023,1 hPa 0,0 l/m 0,0 km/h (0 Bft) N 0 0 min 0,000 mm 0,0 UV-I 5 W/m 1,4 C 6,9 C 0,0 km/h (0 Bft) 100,00 %
18.09.2019 06:47 6,9 C 4,4 C 68 % 1023,0 hPa 0,0 l/m 0,0 km/h (0 Bft) N 0 0 min 0,000 mm 0,0 UV-I 0 W/m 1,4 C 6,9 C 0,0 km/h (0 Bft) 100,00 %
18.09.2019 06:46 6,9 C 4,4 C 68 % 1023,1 hPa 0,0 l/m 0,0 km/h (0 Bft) N-NW 337 0 min 0,000 mm 0,0 UV-I 0 W/m 1,4 C 6,9 C 1,6 km/h (1 Bft) 100,00 %
18.09.2019 06:45 6,9 C 4,4 C 68 % 1023,1 hPa 0,0 l/m 0,0 km/h (0 Bft) N 0 0 min 0,000 mm 0,0 UV-I 0 W/m 1,4 C 6,9 C 0,0 km/h (0 Bft) 95,65 %
18.09.2019 06:44 6,9 C 4,4 C 68 % 1023,1 hPa 0,0 l/m 0,0 km/h (0 Bft) N 0 0 min 0,000 mm 0,0 UV-I 0 W/m 1,4 C 6,9 C 0,0 km/h (0 Bft) 100,00 %
18.09.2019 06:43 6,9 C 4,4 C 68 % 1023,1 hPa 0,0 l/m 1,6 km/h (1 Bft) N-NW 337 0 min 0,000 mm 0,0 UV-I 0 W/m 1,4 C 6,9 C 1,6 km/h (1 Bft) 100,00 %
18.09.2019 06:42 7,0 C 4,4 C 68 % 1023,1 hPa 0,0 l/m 1,6 km/h (1 Bft) N-NW 337 0 min 0,000 mm 0,0 UV-I 0 W/m 1,5 C 7,0 C 3,2 km/h (1 Bft) 95,65 %
18.09.2019 06:41 7,0 C 4,4 C 68 % 1023,1 hPa 0,0 l/m 1,6 km/h (1 Bft) N-NW 337 0 min 0,000 mm 0,0 UV-I 0 W/m 1,5 C 7,0 C 3,2 km/h (1 Bft) 95,65 %
18.09.2019 06:40 7,1 C 4,4 C 68 % 1023,0 hPa 0,0 l/m 3,2 km/h (1 Bft) N-NW 337 0 min 0,000 mm 0,0 UV-I 0 W/m 1,6 C 7,1 C 4,8 km/h (1 Bft) 95,65 %
18.09.2019 06:39 7,1 C 4,4 C 68 % 1023,0 hPa 0,0 l/m 1,6 km/h (1 Bft) N-NW 337 0 min 0,000 mm 0,0 UV-I 0 W/m 1,6 C 7,1 C 3,2 km/h (1 Bft) 100,00 %
18.09.2019 06:38 7,1 C 4,4 C 68 % 1023,0 hPa 0,0 l/m 3,2 km/h (1 Bft) N-NW 337 0 min 0,000 mm 0,0 UV-I 0 W/m 1,6 C 7,1 C 4,8 km/h (1 Bft) 100,00 %
18.09.2019 06:37 7,1 C 4,4 C 68 % 1023,0 hPa 0,0 l/m 3,2 km/h (1 Bft) N-NW 337 0 min 0,000 mm 0,0 UV-I 0 W/m 1,6 C 7,1 C 4,8 km/h (1 Bft) 100,00 %
18.09.2019 06:36 7,1 C 4,4 C 68 % 1023,0 hPa 0,0 l/m 4,8 km/h (1 Bft) NW 315 0 min 0,000 mm 0,0 UV-I 0 W/m 1,6 C 7,1 C 4,8 km/h (1 Bft) 100,00 %
18.09.2019 06:35 7,1 C 4,4 C 68 % 1023,0 hPa 0,0 l/m 3,2 km/h (1 Bft) NW 315 0 min 0,000 mm 0,0 UV-I 0 W/m 1,6 C 7,1 C 4,8 km/h (1 Bft) 100,00 %
18.09.2019 06:34 7,1 C 4,4 C 68 % 1022,9 hPa 0,0 l/m 3,2 km/h (1 Bft) W-NW 292 0 min 0,000 mm 0,0 UV-I 0 W/m 1,6 C 7,1 C 4,8 km/h (1 Bft) 100,00 %
18.09.2019 06:33 7,1 C 4,4 C 68 % 1022,9 hPa 0,0 l/m 4,8 km/h (1 Bft) W-NW 292 0 min 0,000 mm 0,0 UV-I 0 W/m 1,6 C 7,1 C 6,4 km/h (2 Bft) 91,30 %
18.09.2019 06:32 7,1 C 4,4 C 68 % 1022,9 hPa 0,0 l/m 3,2 km/h (1 Bft) NW 315 0 min 0,000 mm 0,0 UV-I 0 W/m 1,6 C 7,1 C 6,4 km/h (2 Bft) 100,00 %
18.09.2019 06:31 7,1 C 3,9 C 68 % 1022,9 hPa 0,0 l/m 4,8 km/h (1 Bft) NW 315 0 min 0,000 mm 0,0 UV-I 0 W/m 1,6 C 7,1 C 6,4 km/h (2 Bft) 100,00 %
18.09.2019 06:30 7,1 C 3,9 C 68 % 1022,8 hPa 0,0 l/m 4,8 km/h (1 Bft) W-NW 292 0 min 0,000 mm 0,0 UV-I 0 W/m 1,6 C 7,1 C 6,4 km/h (2 Bft) 95,65 %
18.09.2019 06:29 7,1 C 3,9 C 68 % 1022,8 hPa 0,0 l/m 3,2 km/h (1 Bft) W-NW 292 0 min 0,000 mm 0,0 UV-I 0 W/m 1,6 C 7,1 C 4,8 km/h (1 Bft) 100,00 %
18.09.2019 06:28 7,1 C 4,4 C 68 % 1022,8 hPa 0,0 l/m 3,2 km/h (1 Bft) W 270 0 min 0,000 mm 0,0 UV-I 0 W/m 1,6 C 7,1 C 4,8 km/h (1 Bft) 95,65 %
18.09.2019 06:27 7,2 C 3,9 C 68 % 1022,8 hPa 0,0 l/m 1,6 km/h (1 Bft) W 270 0 min 0,000 mm 0,0 UV-I 0 W/m 1,7 C 7,2 C 3,2 km/h (1 Bft) 95,65 %
18.09.2019 06:26 7,2 C 3,9 C 68 % 1022,8 hPa 0,0 l/m 3,2 km/h (1 Bft) W 270 0 min 0,000 mm 0,0 UV-I 0 W/m 1,7 C 7,2 C 3,2 km/h (1 Bft) 100,00 %
18.09.2019 06:25 7,2 C 3,9 C 68 % 1022,8 hPa 0,0 l/m 1,6 km/h (1 Bft) W 270 0 min 0,000 mm 0,0 UV-I 0 W/m 1,7 C 7,2 C 3,2 km/h (1 Bft) 100,00 %
18.09.2019 06:24 7,2 C 3,9 C 68 % 1022,7 hPa 0,0 l/m 1,6 km/h (1 Bft) W 270 0 min 0,000 mm 0,0 UV-I 0 W/m 1,7 C 7,2 C 3,2 km/h (1 Bft) 100,00 %
18.09.2019 06:23 7,2 C 3,9 C 68 % 1022,8 hPa 0,0 l/m 3,2 km/h (1 Bft) W 270 0 min 0,000 mm 0,0 UV-I 0 W/m 1,7 C 7,2 C 6,4 km/h (2 Bft) 100,00 %
18.09.2019 06:22 7,2 C 4,4 C 68 % 1022,8 hPa 0,0 l/m 4,8 km/h (1 Bft) W 270 0 min 0,000 mm 0,0 UV-I 0 W/m 1,7 C 7,2 C 6,4 km/h (2 Bft) 100,00 %
18.09.2019 06:21 7,2 C 4,4 C 68 % 1022,8 hPa 0,0 l/m 3,2 km/h (1 Bft) W 270 0 min 0,000 mm 0,0 UV-I 0 W/m 1,7 C 7,2 C 4,8 km/h (1 Bft) 95,65 %
18.09.2019 06:20 7,2 C 4,4 C 68 % 1022,8 hPa 0,0 l/m 3,2 km/h (1 Bft) W 270 0 min 0,000 mm 0,0 UV-I 0 W/m 1,7 C 7,2 C 6,4 km/h (2 Bft) 95,65 %
18.09.2019 06:19 7,2 C 4,4 C 68 % 1022,8 hPa 0,0 l/m 3,2 km/h (1 Bft) W 270 0 min 0,000 mm 0,0 UV-I 0 W/m 1,7 C 7,2 C 3,2 km/h (1 Bft) 100,00 %
18.09.2019 06:18 7,3 C 4,4 C 68 % 1022,9 hPa 0,0 l/m 3,2 km/h (1 Bft) W 270 0 min 0,000 mm 0,0 UV-I 0 W/m 1,8 C 7,3 C 4,8 km/h (1 Bft) 100,00 %
18.09.2019 06:17 7,2 C 4,4 C 68 % 1022,8 hPa 0,0 l/m 1,6 km/h (1 Bft) W 270 0 min 0,000 mm 0,0 UV-I 0 W/m 1,7 C 7,2 C 3,2 km/h (1 Bft) 95,65 %
18.09.2019 06:16 7,3 C 4,4 C 68 % 1022,8 hPa 0,0 l/m 1,6 km/h (1 Bft) W 270 0 min 0,000 mm 0,0 UV-I 0 W/m 1,8 C 7,3 C 3,2 km/h (1 Bft) 100,00 %
18.09.2019 06:15 7,3 C 4,4 C 68 % 1022,9 hPa 0,0 l/m 3,2 km/h (1 Bft) W 270 0 min 0,000 mm 0,0 UV-I 0 W/m 1,8 C 7,3 C 4,8 km/h (1 Bft) 95,65 %
18.09.2019 06:14 7,3 C 4,4 C 68 % 1022,9 hPa 0,0 l/m 1,6 km/h (1 Bft) W 270 0 min 0,000 mm 0,0 UV-I 0 W/m 1,8 C 7,3 C 3,2 km/h (1 Bft) 100,00 %
18.09.2019 06:13 7,3 C 3,9 C 68 % 1022,9 hPa 0,0 l/m 1,6 km/h (1 Bft) W 270 0 min 0,000 mm 0,0 UV-I 0 W/m 1,8 C 7,3 C 4,8 km/h (1 Bft) 100,00 %
18.09.2019 06:12 7,3 C 3,9 C 68 % 1023,0 hPa 0,0 l/m 3,2 km/h (1 Bft) W 270 0 min 0,000 mm 0,0 UV-I 0 W/m 1,8 C 7,3 C 4,8 km/h (1 Bft) 100,00 %
18.09.2019 06:11 7,3 C 3,9 C 68 % 1022,8 hPa 0,0 l/m 3,2 km/h (1 Bft) W 270 0 min 0,000 mm 0,0 UV-I 0 W/m 1,8 C 7,3 C 4,8 km/h (1 Bft) 100,00 %
18.09.2019 06:10 7,3 C 3,9 C 68 % 1022,8 hPa 0,0 l/m 3,2 km/h (1 Bft) W 270 0 min 0,000 mm 0,0 UV-I 0 W/m 1,8 C 7,3 C 4,8 km/h (1 Bft) 100,00 %
18.09.2019 06:09 7,3 C 3,9 C 68 % 1022,9 hPa 0,0 l/m 1,6 km/h (1 Bft) W 270 0 min 0,000 mm 0,0 UV-I 0 W/m 1,8 C 7,3 C 3,2 km/h (1 Bft) 100,00 %
18.09.2019 06:08 7,4 C 3,9 C 68 % 1022,9 hPa 0,0 l/m 1,6 km/h (1 Bft) W 270 0 min 0,000 mm 0,0 UV-I 0 W/m 1,9 C 7,4 C 3,2 km/h (1 Bft) 100,00 %
18.09.2019 06:07 7,4 C 4,4 C 68 % 1022,9 hPa 0,0 l/m 1,6 km/h (1 Bft) W 270 0 min 0,000 mm 0,0 UV-I 0 W/m 1,9 C 7,4 C 1,6 km/h (1 Bft) 100,00 %
18.09.2019 06:06 7,4 C 4,4 C 67 % 1022,8 hPa 0,0 l/m 0,0 km/h (0 Bft) W 270 0 min 0,000 mm 0,0 UV-I 0 W/m 1,7 C 7,4 C 1,6 km/h (1 Bft) 100,00 %
18.09.2019 06:05 7,5 C 4,4 C 67 % 1022,8 hPa 0,0 l/m 1,6 km/h (1 Bft) W 270 0 min 0,000 mm 0,0 UV-I 0 W/m 1,8 C 7,5 C 4,8 km/h (1 Bft) 95,65 %
18.09.2019 06:04 7,6 C 4,4 C 67 % 1022,8 hPa 0,0 l/m 1,6 km/h (1 Bft) W 270 0 min 0,000 mm 0,0 UV-I 0 W/m 1,9 C 7,6 C 3,2 km/h (1 Bft) 100,00 %
18.09.2019 06:03 7,6 C 4,4 C 67 % 1022,8 hPa 0,0 l/m 1,6 km/h (1 Bft) W 270 0 min 0,000 mm 0,0 UV-I 0 W/m 1,9 C 7,6 C 1,6 km/h (1 Bft) 95,65 %
18.09.2019 06:02 7,6 C 4,4 C 67 % 1022,8 hPa 0,0 l/m 1,6 km/h (1 Bft) W 270 0 min 0,000 mm 0,0 UV-I 0 W/m 1,9 C 7,6 C 3,2 km/h (1 Bft) 100,00 %
18.09.2019 06:01 7,6 C 4,4 C 67 % 1022,7 hPa 0,0 l/m 1,6 km/h (1 Bft) W 270 0 min 0,000 mm 0,0 UV-I 0 W/m 1,9 C 7,6 C 3,2 km/h (1 Bft) 95,65 %
18.09.2019 06:00 7,7 C 4,4 C 67 % 1022,7 hPa 0,0 l/m 1,6 km/h (1 Bft) W 270 0 min 0,025 mm 0,0 UV-I 0 W/m 2,0 C 7,7 C 3,2 km/h (1 Bft) 100,00 %
18.09.2019 05:59 7,8 C 4,4 C 67 % 1022,7 hPa 0,0 l/m 1,6 km/h (1 Bft) W 270 0 min 0,000 mm 0,0 UV-I 0 W/m 2,1 C 7,8 C 3,2 km/h (1 Bft) 100,00 %
18.09.2019 05:58 7,8 C 4,4 C 66 % 1022,7 hPa 0,0 l/m 1,6 km/h (1 Bft) W 270 0 min 0,000 mm 0,0 UV-I 0 W/m 1,9 C 7,8 C 3,2 km/h (1 Bft) 100,00 %
18.09.2019 05:57 7,8 C 4,4 C 67 % 1022,7 hPa 0,0 l/m 1,6 km/h (1 Bft) W 270 0 min 0,000 mm 0,0 UV-I 0 W/m 2,1 C 7,8 C 3,2 km/h (1 Bft) 100,00 %
18.09.2019 05:56 7,8 C 4,4 C 67 % 1022,6 hPa 0,0 l/m 3,2 km/h (1 Bft) W 270 0 min 0,000 mm 0,0 UV-I 0 W/m 2,1 C 7,8 C 4,8 km/h (1 Bft) 95,65 %
18.09.2019 05:55 7,8 C 4,4 C 67 % 1022,6 hPa 0,0 l/m 3,2 km/h (1 Bft) W 270 0 min 0,000 mm 0,0 UV-I 0 W/m 2,1 C 7,8 C 6,4 km/h (2 Bft) 100,00 %
18.09.2019 05:54 7,8 C 4,4 C 67 % 1022,6 hPa 0,0 l/m 1,6 km/h (1 Bft) W 270 0 min 0,000 mm 0,0 UV-I 0 W/m 2,1 C 7,8 C 4,8 km/h (1 Bft) 100,00 %
18.09.2019 05:53 7,8 C 5,0 C 67 % 1022,6 hPa 0,0 l/m 3,2 km/h (1 Bft) W 270 0 min 0,000 mm 0,0 UV-I 0 W/m 2,1 C 7,8 C 6,4 km/h (2 Bft) 100,00 %
18.09.2019 05:52 7,9 C 4,4 C 67 % 1022,6 hPa 0,0 l/m 3,2 km/h (1 Bft) W 270 0 min 0,000 mm 0,0 UV-I 0 W/m 2,2 C 7,9 C 6,4 km/h (2 Bft) 100,00 %
18.09.2019 05:51 7,9 C 5,0 C 67 % 1022,6 hPa 0,0 l/m 3,2 km/h (1 Bft) W 270 0 min 0,000 mm 0,0 UV-I 0 W/m 2,2 C 7,9 C 6,4 km/h (2 Bft) 100,00 %
18.09.2019 05:50 7,9 C 5,0 C 66 % 1022,6 hPa 0,0 l/m 3,2 km/h (1 Bft) W-NW 292 0 min 0,000 mm 0,0 UV-I 0 W/m 1,9 C 7,9 C 4,8 km/h (1 Bft) 100,00 %
18.09.2019 05:49 7,9 C 5,0 C 67 % 1022,5 hPa 0,0 l/m 1,6 km/h (1 Bft) W 270 0 min 0,000 mm 0,0 UV-I 0 W/m 2,2 C 7,9 C 3,2 km/h (1 Bft) 100,00 %
18.09.2019 05:48 7,9 C 5,0 C 66 % 1022,5 hPa 0,0 l/m 1,6 km/h (1 Bft) W 270 0 min 0,000 mm 0,0 UV-I 0 W/m 1,9 C 7,9 C 3,2 km/h (1 Bft) 100,00 %
18.09.2019 05:47 7,9 C 5,0 C 67 % 1022,5 hPa 0,0 l/m 3,2 km/h (1 Bft) W-NW 292 0 min 0,000 mm 0,0 UV-I 0 W/m 2,2 C 7,9 C 4,8 km/h (1 Bft) 95,65 %
18.09.2019 05:46 7,9 C 5,0 C 67 % 1022,6 hPa 0,0 l/m 1,6 km/h (1 Bft) W-NW 292 0 min 0,000 mm 0,0 UV-I 0 W/m 2,2 C 7,9 C 4,8 km/h (1 Bft) 100,00 %
18.09.2019 05:45 7,9 C 5,0 C 67 % 1022,5 hPa 0,0 l/m 3,2 km/h (1 Bft) W 270 0 min 0,000 mm 0,0 UV-I 0 W/m 2,2 C 7,9 C 4,8 km/h (1 Bft) 95,65 %
18.09.2019 05:44 7,9 C 5,0 C 67 % 1022,6 hPa 0,0 l/m 3,2 km/h (1 Bft) W 270 0 min 0,000 mm 0,0 UV-I 0 W/m 2,2 C 7,9 C 4,8 km/h (1 Bft) 100,00 %
18.09.2019 05:43 7,9 C 5,0 C 67 % 1022,4 hPa 0,0 l/m 6,4 km/h (2 Bft) W 270 0 min 0,000 mm 0,0 UV-I 0 W/m 2,2 C 7,9 C 11,3 km/h (2 Bft) 100,00 %
18.09.2019 05:42 7,9 C 5,0 C 67 % 1022,5 hPa 0,0 l/m 3,2 km/h (1 Bft) W 270 0 min 0,000 mm 0,0 UV-I 0 W/m 2,2 C 7,9 C 4,8 km/h (1 Bft) 95,65 %
18.09.2019 05:41 7,9 C 5,6 C 67 % 1022,5 hPa 0,0 l/m 3,2 km/h (1 Bft) W 270 0 min 0,000 mm 0,0 UV-I 0 W/m 2,2 C 7,9 C 6,4 km/h (2 Bft) 100,00 %
18.09.2019 05:40 7,9 C 5,6 C 67 % 1022,5 hPa 0,0 l/m 1,6 km/h (1 Bft) W 270 0 min 0,000 mm 0,0 UV-I 0 W/m 2,2 C 7,9 C 4,8 km/h (1 Bft) 100,00 %
18.09.2019 05:39 7,9 C 5,0 C 67 % 1022,5 hPa 0,0 l/m 3,2 km/h (1 Bft) W 270 0 min 0,000 mm 0,0 UV-I 0 W/m 2,2 C 7,9 C 4,8 km/h (1 Bft) 100,00 %
18.09.2019 05:38 7,9 C 5,0 C 67 % 1022,5 hPa 0,0 l/m 3,2 km/h (1 Bft) W 270 0 min 0,000 mm 0,0 UV-I 0 W/m 2,2 C 7,9 C 6,4 km/h (2 Bft) 100,00 %
18.09.2019 05:37 7,9 C 5,0 C 67 % 1022,5 hPa 0,0 l/m 3,2 km/h (1 Bft) W 270 0 min 0,000 mm 0,0 UV-I 0 W/m 2,2 C 7,9 C 6,4 km/h (2 Bft) 100,00 %
18.09.2019 05:36 7,9 C 5,0 C 67 % 1022,5 hPa 0,0 l/m 3,2 km/h (1 Bft) W 270 0 min 0,000 mm 0,0 UV-I 0 W/m 2,2 C 7,9 C 4,8 km/h (1 Bft) 100,00 %
18.09.2019 05:35 7,9 C 5,6 C 68 % 1022,5 hPa 0,0 l/m 4,8 km/h (1 Bft) W 270 0 min 0,000 mm 0,0 UV-I 0 W/m 2,4 C 7,9 C 6,4 km/h (2 Bft) 100,00 %
18.09.2019 05:34 7,9 C 5,6 C 68 % 1022,5 hPa 0,0 l/m 3,2 km/h (1 Bft) W 270 0 min 0,000 mm 0,0 UV-I 0 W/m 2,4 C 7,9 C 4,8 km/h (1 Bft) 95,65 %
18.09.2019 05:33 7,9 C 5,6 C 68 % 1022,4 hPa 0,0 l/m 3,2 km/h (1 Bft) W 270 0 min 0,000 mm 0,0 UV-I 0 W/m 2,4 C 7,9 C 4,8 km/h (1 Bft) 100,00 %
18.09.2019 05:32 7,9 C 5,6 C 68 % 1022,5 hPa 0,0 l/m 1,6 km/h (1 Bft) W 270 0 min 0,000 mm 0,0 UV-I 0 W/m 2,4 C 7,9 C 3,2 km/h (1 Bft) 100,00 %
18.09.2019 05:31 7,9 C 5,6 C 68 % 1022,5 hPa 0,0 l/m 3,2 km/h (1 Bft) W 270 0 min 0,000 mm 0,0 UV-I 0 W/m 2,4 C 7,9 C 6,4 km/h (2 Bft) 100,00 %
18.09.2019 05:30 7,9 C 5,6 C 68 % 1022,5 hPa 0,0 l/m 3,2 km/h (1 Bft) W-NW 292 0 min 0,000 mm 0,0 UV-I 0 W/m 2,4 C 7,9 C 6,4 km/h (2 Bft) 100,00 %
18.09.2019 05:29 7,9 C 5,6 C 68 % 1022,5 hPa 0,0 l/m 3,2 km/h (1 Bft) W-NW 292 0 min 0,000 mm 0,0 UV-I 0 W/m 2,4 C 7,9 C 6,4 km/h (2 Bft) 100,00 %
18.09.2019 05:28 8,0 C 5,6 C 68 % 1022,4 hPa 0,0 l/m 3,2 km/h (1 Bft) W-NW 292 0 min 0,000 mm 0,0 UV-I 0 W/m 2,5 C 8,0 C 4,8 km/h (1 Bft) 91,30 %
18.09.2019 05:27 7,9 C 5,6 C 68 % 1022,4 hPa 0,0 l/m 3,2 km/h (1 Bft) W-NW 292 0 min 0,000 mm 0,0 UV-I 0 W/m 2,4 C 7,9 C 4,8 km/h (1 Bft) 100,00 %
18.09.2019 05:26 7,9 C 5,6 C 68 % 1022,4 hPa 0,0 l/m 3,2 km/h (1 Bft) W-NW 292 0 min 0,000 mm 0,0 UV-I 0 W/m 2,4 C 7,9 C 4,8 km/h (1 Bft) 100,00 %
18.09.2019 05:25 8,0 C 5,6 C 69 % 1022,4 hPa 0,0 l/m 3,2 km/h (1 Bft) W-NW 292 0 min 0,000 mm 0,0 UV-I 0 W/m 2,7 C 8,0 C 4,8 km/h (1 Bft) 100,00 %
18.09.2019 05:24 8,0 C 5,6 C 69 % 1022,4 hPa 0,0 l/m 3,2 km/h (1 Bft) W-NW 292 0 min 0,000 mm 0,0 UV-I 0 W/m 2,7 C 8,0 C 4,8 km/h (1 Bft) 100,00 %
18.09.2019 05:23 8,0 C 5,6 C 69 % 1022,4 hPa 0,0 l/m 3,2 km/h (1 Bft) W-NW 292 0 min 0,000 mm 0,0 UV-I 0 W/m 2,7 C 8,0 C 4,8 km/h (1 Bft) 95,65 %
18.09.2019 05:22 8,0 C 5,6 C 69 % 1022,3 hPa 0,0 l/m 3,2 km/h (1 Bft) W-NW 292 0 min 0,000 mm 0,0 UV-I 0 W/m 2,7 C 8,0 C 4,8 km/h (1 Bft) 100,00 %
18.09.2019 05:21 7,9 C 5,6 C 69 % 1022,3 hPa 0,0 l/m 4,8 km/h (1 Bft) W-NW 292 0 min 0,000 mm 0,0 UV-I 0 W/m 2,6 C 7,9 C 6,4 km/h (2 Bft) 100,00 %
18.09.2019 05:20 7,9 C 5,6 C 69 % 1022,3 hPa 0,0 l/m 4,8 km/h (1 Bft) W-NW 292 0 min 0,000 mm 0,0 UV-I 0 W/m 2,6 C 7,9 C 11,3 km/h (2 Bft) 100,00 %
18.09.2019 05:19 7,9 C 5,6 C 69 % 1022,3 hPa 0,0 l/m 4,8 km/h (1 Bft) W 270 0 min 0,000 mm 0,0 UV-I 0 W/m 2,6 C 7,9 C 8,0 km/h (2 Bft) 100,00 %
18.09.2019 05:18 7,9 C 5,6 C 70 % 1022,3 hPa 0,0 l/m 4,8 km/h (1 Bft) W 270 0 min 0,000 mm 0,0 UV-I 0 W/m 2,8 C 7,9 C 6,4 km/h (2 Bft) 100,00 %
18.09.2019 05:17 7,9 C 5,6 C 70 % 1022,3 hPa 0,0 l/m 3,2 km/h (1 Bft) W-NW 292 0 min 0,000 mm 0,0 UV-I 0 W/m 2,8 C 7,9 C 6,4 km/h (2 Bft) 100,00 %
18.09.2019 05:16 7,9 C 5,6 C 70 % 1022,2 hPa 0,0 l/m 3,2 km/h (1 Bft) W 270 0 min 0,000 mm 0,0 UV-I 0 W/m 2,8 C 7,9 C 4,8 km/h (1 Bft) 100,00 %
18.09.2019 05:15 7,9 C 5,6 C 70 % 1022,3 hPa 0,0 l/m 3,2 km/h (1 Bft) W 270 0 min 0,000 mm 0,0 UV-I 0 W/m 2,8 C 7,9 C 4,8 km/h (1 Bft) 100,00 %
18.09.2019 05:14 7,9 C 5,6 C 70 % 1022,2 hPa 0,0 l/m 3,2 km/h (1 Bft) W-NW 292 0 min 0,000 mm 0,0 UV-I 0 W/m 2,8 C 7,9 C 6,4 km/h (2 Bft) 100,00 %
18.09.2019 05:13 7,9 C 5,6 C 70 % 1022,3 hPa 0,0 l/m 4,8 km/h (1 Bft) W-NW 292 0 min 0,000 mm 0,0 UV-I 0 W/m 2,8 C 7,9 C 6,4 km/h (2 Bft) 100,00 %
18.09.2019 05:12 7,9 C 5,6 C 71 % 1022,3 hPa 0,0 l/m 3,2 km/h (1 Bft) W 270 0 min 0,000 mm 0,0 UV-I 0 W/m 3,0 C 7,9 C 6,4 km/h (2 Bft) 100,00 %
18.09.2019 05:11 7,9 C 5,6 C 71 % 1022,2 hPa 0,0 l/m 4,8 km/h (1 Bft) W-NW 292 0 min 0,000 mm 0,0 UV-I 0 W/m 3,0 C 7,9 C 6,4 km/h (2 Bft) 95,65 %
18.09.2019 05:10 8,0 C 5,6 C 71 % 1022,3 hPa 0,0 l/m 3,2 km/h (1 Bft) W-SW 247 0 min 0,000 mm 0,0 UV-I 0 W/m 3,1 C 8,0 C 6,4 km/h (2 Bft) 100,00 %
18.09.2019 05:09 8,0 C 5,6 C 71 % 1022,2 hPa 0,0 l/m 4,8 km/h (1 Bft) W 270 0 min 0,000 mm 0,0 UV-I 0 W/m 3,1 C 8,0 C 6,4 km/h (2 Bft) 100,00 %
18.09.2019 05:08 7,9 C 5,6 C 71 % 1022,3 hPa 0,0 l/m 4,8 km/h (1 Bft) W-NW 292 0 min 0,000 mm 0,0 UV-I 0 W/m 3,0 C 7,9 C 6,4 km/h (2 Bft) 100,00 %
18.09.2019 05:07 8,0 C 5,6 C 71 % 1022,2 hPa 0,0 l/m 4,8 km/h (1 Bft) W 270 0 min 0,000 mm 0,0 UV-I 0 W/m 3,1 C 8,0 C 9,7 km/h (2 Bft) 100,00 %
18.09.2019 05:06 8,0 C 5,6 C 71 % 1022,1 hPa 0,0 l/m 3,2 km/h (1 Bft) W 270 0 min 0,000 mm 0,0 UV-I 0 W/m 3,1 C 8,0 C 4,8 km/h (1 Bft) 100,00 %
18.09.2019 05:05 8,0 C 5,6 C 71 % 1022,1 hPa 0,0 l/m 3,2 km/h (1 Bft) W 270 0 min 0,000 mm 0,0 UV-I 0 W/m 3,1 C 8,0 C 6,4 km/h (2 Bft) 100,00 %
18.09.2019 05:04 8,1 C 5,6 C 71 % 1022,1 hPa 0,0 l/m 3,2 km/h (1 Bft) W 270 0 min 0,000 mm 0,0 UV-I 0 W/m 3,2 C 8,1 C 4,8 km/h (1 Bft) 100,00 %
18.09.2019 05:03 8,1 C 5,6 C 71 % 1022,1 hPa 0,0 l/m 3,2 km/h (1 Bft) W-NW 292 0 min 0,000 mm 0,0 UV-I 0 W/m 3,2 C 8,1 C 4,8 km/h (1 Bft) 100,00 %
18.09.2019 05:02 8,1 C 5,6 C 71 % 1022,1 hPa 0,0 l/m 4,8 km/h (1 Bft) W-NW 292 0 min 0,000 mm 0,0 UV-I 0 W/m 3,2 C 8,1 C 6,4 km/h (2 Bft) 100,00 %
18.09.2019 05:01 8,1 C 5,6 C 71 % 1022,1 hPa 0,0 l/m 3,2 km/h (1 Bft) W-NW 292 0 min 0,000 mm 0,0 UV-I 0 W/m 3,2 C 8,1 C 6,4 km/h (2 Bft) 95,65 %
18.09.2019 05:00 8,1 C 5,6 C 72 % 1022,1 hPa 0,0 l/m 4,8 km/h (1 Bft) W-NW 292 0 min 0,025 mm 0,0 UV-I 0 W/m 3,4 C 8,1 C 11,3 km/h (2 Bft) 100,00 %
18.09.2019 04:59 8,1 C 5,6 C 72 % 1022,1 hPa 0,0 l/m 4,8 km/h (1 Bft) W 270 0 min 0,000 mm 0,0 UV-I 0 W/m 3,4 C 8,1 C 6,4 km/h (2 Bft) 100,00 %
18.09.2019 04:58 8,1 C 5,6 C 72 % 1022,1 hPa 0,0 l/m 4,8 km/h (1 Bft) W 270 0 min 0,000 mm 0,0 UV-I 0 W/m 3,4 C 8,1 C 6,4 km/h (2 Bft) 100,00 %
18.09.2019 04:57 8,1 C 5,6 C 72 % 1021,9 hPa 0,0 l/m 4,8 km/h (1 Bft) W-NW 292 0 min 0,000 mm 0,0 UV-I 0 W/m 3,4 C 8,1 C 6,4 km/h (2 Bft) 100,00 %
18.09.2019 04:56 8,1 C 5,6 C 72 % 1021,9 hPa 0,0 l/m 3,2 km/h (1 Bft) W-NW 292 0 min 0,000 mm 0,0 UV-I 0 W/m 3,4 C 8,1 C 6,4 km/h (2 Bft) 100,00 %
18.09.2019 04:55 8,1 C 5,6 C 72 % 1021,9 hPa 0,0 l/m 3,2 km/h (1 Bft) W-NW 292 0 min 0,000 mm 0,0 UV-I 0 W/m 3,4 C 8,1 C 6,4 km/h (2 Bft) 100,00 %
18.09.2019 04:54 8,2 C 5,6 C 72 % 1021,9 hPa 0,0 l/m 3,2 km/h (1 Bft) W-NW 292 0 min 0,000 mm 0,0 UV-I 0 W/m 3,5 C 8,2 C 6,4 km/h (2 Bft) 95,65 %
18.09.2019 04:53 8,2 C 5,6 C 72 % 1022,0 hPa 0,0 l/m 4,8 km/h (1 Bft) W-NW 292 0 min 0,000 mm 0,0 UV-I 0 W/m 3,5 C 8,2 C 8,0 km/h (2 Bft) 95,65 %
18.09.2019 04:52 8,2 C 5,6 C 72 % 1021,9 hPa 0,0 l/m 3,2 km/h (1 Bft) W 270 0 min 0,000 mm 0,0 UV-I 0 W/m 3,5 C 8,2 C 4,8 km/h (1 Bft) 100,00 %
18.09.2019 04:51 8,2 C 5,6 C 72 % 1021,8 hPa 0,0 l/m 3,2 km/h (1 Bft) W 270 0 min 0,000 mm 0,0 UV-I 0 W/m 3,5 C 8,2 C 6,4 km/h (2 Bft) 100,00 %
18.09.2019 04:50 8,2 C 5,6 C 72 % 1021,8 hPa 0,0 l/m 4,8 km/h (1 Bft) W 270 0 min 0,000 mm 0,0 UV-I 0 W/m 3,5 C 8,2 C 6,4 km/h (2 Bft) 100,00 %
18.09.2019 04:49 8,2 C 5,6 C 72 % 1021,9 hPa 0,0 l/m 3,2 km/h (1 Bft) W-NW 292 0 min 0,000 mm 0,0 UV-I 0 W/m 3,5 C 8,2 C 6,4 km/h (2 Bft) 95,65 %
18.09.2019 04:48 8,2 C 5,6 C 72 % 1021,8 hPa 0,0 l/m 3,2 km/h (1 Bft) W-NW 292 0 min 0,000 mm 0,0 UV-I 0 W/m 3,5 C 8,2 C 6,4 km/h (2 Bft) 100,00 %
18.09.2019 04:47 8,3 C 5,6 C 72 % 1021,7 hPa 0,0 l/m 3,2 km/h (1 Bft) W-NW 292 0 min 0,000 mm 0,0 UV-I 0 W/m 3,6 C 8,3 C 6,4 km/h (2 Bft) 95,65 %
18.09.2019 04:46 8,3 C 5,6 C 72 % 1021,8 hPa 0,0 l/m 4,8 km/h (1 Bft) W 270 0 min 0,000 mm 0,0 UV-I 0 W/m 3,6 C 8,3 C 6,4 km/h (2 Bft) 95,65 %
18.09.2019 04:45 8,3 C 5,6 C 72 % 1021,8 hPa 0,0 l/m 3,2 km/h (1 Bft) W 270 0 min 0,000 mm 0,0 UV-I 0 W/m 3,6 C 8,3 C 4,8 km/h (1 Bft) 100,00 %
18.09.2019 04:44 8,3 C 5,6 C 72 % 1021,8 hPa 0,0 l/m 3,2 km/h (1 Bft) W-NW 292 0 min 0,000 mm 0,0 UV-I 0 W/m 3,6 C 8,3 C 6,4 km/h (2 Bft) 100,00 %
18.09.2019 04:43 8,4 C 5,6 C 72 % 1021,7 hPa 0,0 l/m 3,2 km/h (1 Bft) W-NW 292 0 min 0,000 mm 0,0 UV-I 0 W/m 3,7 C 8,4 C 4,8 km/h (1 Bft) 100,00 %
18.09.2019 04:42 8,4 C 6,1 C 72 % 1021,8 hPa 0,0 l/m 3,2 km/h (1 Bft) NW 315 0 min 0,000 mm 0,0 UV-I 0 W/m 3,7 C 8,4 C 9,7 km/h (2 Bft) 100,00 %
18.09.2019 04:41 8,4 C 6,1 C 72 % 1021,7 hPa 0,0 l/m 3,2 km/h (1 Bft) NW 315 0 min 0,000 mm 0,0 UV-I 0 W/m 3,7 C 8,4 C 4,8 km/h (1 Bft) 95,65 %
18.09.2019 04:40 8,4 C 6,1 C 72 % 1021,7 hPa 0,0 l/m 3,2 km/h (1 Bft) W-NW 292 0 min 0,000 mm 0,0 UV-I 0 W/m 3,7 C 8,4 C 4,8 km/h (1 Bft) 100,00 %
18.09.2019 04:39 8,4 C 6,1 C 72 % 1021,7 hPa 0,0 l/m 3,2 km/h (1 Bft) W-NW 292 0 min 0,000 mm 0,0 UV-I 0 W/m 3,7 C 8,4 C 6,4 km/h (2 Bft) 95,65 %
18.09.2019 04:38 8,4 C 6,1 C 72 % 1021,7 hPa 0,0 l/m 3,2 km/h (1 Bft) W-NW 292 0 min 0,000 mm 0,0 UV-I 0 W/m 3,7 C 8,4 C 6,4 km/h (2 Bft) 95,65 %
18.09.2019 04:37 8,4 C 6,1 C 72 % 1021,7 hPa 0,0 l/m 3,2 km/h (1 Bft) W 270 0 min 0,000 mm 0,0 UV-I 0 W/m 3,7 C 8,4 C 6,4 km/h (2 Bft) 100,00 %
18.09.2019 04:36 8,4 C 6,1 C 72 % 1021,7 hPa 0,0 l/m 4,8 km/h (1 Bft) W 270 0 min 0,000 mm 0,0 UV-I 0 W/m 3,7 C 8,4 C 8,0 km/h (2 Bft) 100,00 %
18.09.2019 04:35 8,4 C 6,1 C 72 % 1021,6 hPa 0,0 l/m 3,2 km/h (1 Bft) W-NW 292 0 min 0,000 mm 0,0 UV-I 0 W/m 3,7 C 8,4 C 4,8 km/h (1 Bft) 100,00 %
18.09.2019 04:34 8,4 C 6,1 C 72 % 1021,6 hPa 0,0 l/m 4,8 km/h (1 Bft) W-NW 292 0 min 0,000 mm 0,0 UV-I 0 W/m 3,7 C 8,4 C 6,4 km/h (2 Bft) 100,00 %
18.09.2019 04:33 8,4 C 6,1 C 72 % 1021,7 hPa 0,0 l/m 3,2 km/h (1 Bft) W-NW 292 0 min 0,000 mm 0,0 UV-I 0 W/m 3,7 C 8,4 C 6,4 km/h (2 Bft) 100,00 %
18.09.2019 04:32 8,5 C 6,1 C 72 % 1021,6 hPa 0,0 l/m 4,8 km/h (1 Bft) W-NW 292 0 min 0,000 mm 0,0 UV-I 0 W/m 3,7 C 8,5 C 6,4 km/h (2 Bft) 100,00 %
18.09.2019 04:31 8,4 C 6,1 C 72 % 1021,6 hPa 0,0 l/m 4,8 km/h (1 Bft) NW 315 0 min 0,000 mm 0,0 UV-I 0 W/m 3,7 C 8,4 C 9,7 km/h (2 Bft) 100,00 %
18.09.2019 04:30 8,5 C 6,1 C 72 % 1021,6 hPa 0,0 l/m 6,4 km/h (2 Bft) W-NW 292 0 min 0,000 mm 0,0 UV-I 0 W/m 3,7 C 8,5 C 8,0 km/h (2 Bft) 95,65 %
18.09.2019 04:29 8,5 C 6,7 C 72 % 1021,6 hPa 0,0 l/m 4,8 km/h (1 Bft) W-NW 292 0 min 0,000 mm 0,0 UV-I 0 W/m 3,7 C 8,5 C 6,4 km/h (2 Bft) 100,00 %
18.09.2019 04:28 8,6 C 6,7 C 72 % 1021,5 hPa 0,0 l/m 3,2 km/h (1 Bft) W-NW 292 0 min 0,000 mm 0,0 UV-I 0 W/m 3,8 C 8,6 C 6,4 km/h (2 Bft) 100,00 %
18.09.2019 04:27 8,6 C 6,7 C 72 % 1021,6 hPa 0,0 l/m 4,8 km/h (1 Bft) W-NW 292 0 min 0,000 mm 0,0 UV-I 0 W/m 3,8 C 8,6 C 8,0 km/h (2 Bft) 100,00 %
18.09.2019 04:26 8,6 C 6,7 C 72 % 1021,7 hPa 0,0 l/m 3,2 km/h (1 Bft) NW 315 0 min 0,000 mm 0,0 UV-I 0 W/m 3,8 C 8,6 C 4,8 km/h (1 Bft) 100,00 %
18.09.2019 04:25 8,6 C 6,7 C 72 % 1021,6 hPa 0,0 l/m 4,8 km/h (1 Bft) W-NW 292 0 min 0,000 mm 0,0 UV-I 0 W/m 3,8 C 8,6 C 6,4 km/h (2 Bft) 95,65 %
18.09.2019 04:24 8,6 C 6,7 C 72 % 1021,6 hPa 0,0 l/m 4,8 km/h (1 Bft) NW 315 0 min 0,000 mm 0,0 UV-I 0 W/m 3,8 C 8,6 C 8,0 km/h (2 Bft) 100,00 %
18.09.2019 04:23 8,7 C 6,7 C 72 % 1021,6 hPa 0,0 l/m 4,8 km/h (1 Bft) W-NW 292 0 min 0,000 mm 0,0 UV-I 0 W/m 3,9 C 8,7 C 8,0 km/h (2 Bft) 100,00 %
18.09.2019 04:22 8,7 C 6,1 C 72 % 1021,5 hPa 0,0 l/m 4,8 km/h (1 Bft) W-NW 292 0 min 0,000 mm 0,0 UV-I 0 W/m 3,9 C 8,7 C 8,0 km/h (2 Bft) 91,30 %
18.09.2019 04:21 8,7 C 6,1 C 72 % 1021,6 hPa 0,0 l/m 4,8 km/h (1 Bft) W-NW 292 0 min 0,000 mm 0,0 UV-I 0 W/m 3,9 C 8,7 C 9,7 km/h (2 Bft) 95,65 %
18.09.2019 04:20 8,7 C 6,1 C 72 % 1021,5 hPa 0,0 l/m 4,8 km/h (1 Bft) W-NW 292 0 min 0,000 mm 0,0 UV-I 0 W/m 3,9 C 8,7 C 8,0 km/h (2 Bft) 95,65 %
18.09.2019 04:19 8,7 C 6,7 C 72 % 1021,5 hPa 0,0 l/m 3,2 km/h (1 Bft) W-NW 292 0 min 0,000 mm 0,0 UV-I 0 W/m 3,9 C 8,7 C 6,4 km/h (2 Bft) 100,00 %
18.09.2019 04:18 8,7 C 6,7 C 72 % 1021,5 hPa 0,0 l/m 3,2 km/h (1 Bft) W-NW 292 0 min 0,000 mm 0,0 UV-I 0 W/m 3,9 C 8,7 C 6,4 km/h (2 Bft) 100,00 %
18.09.2019 04:17 8,7 C 6,1 C 72 % 1021,5 hPa 0,0 l/m 6,4 km/h (2 Bft) W-NW 292 0 min 0,000 mm 0,0 UV-I 0 W/m 3,9 C 8,7 C 11,3 km/h (2 Bft) 100,00 %
18.09.2019 04:16 8,7 C 6,7 C 72 % 1021,5 hPa 0,0 l/m 3,2 km/h (1 Bft) W-NW 292 0 min 0,000 mm 0,0 UV-I 0 W/m 3,9 C 8,7 C 8,0 km/h (2 Bft) 100,00 %
18.09.2019 04:15 8,7 C 6,7 C 72 % 1021,5 hPa 0,0 l/m 3,2 km/h (1 Bft) W-NW 292 0 min 0,000 mm 0,0 UV-I 0 W/m 3,9 C 8,7 C 4,8 km/h (1 Bft) 100,00 %
18.09.2019 04:14 8,7 C 6,7 C 72 % 1021,5 hPa 0,0 l/m 4,8 km/h (1 Bft) W-NW 292 0 min 0,000 mm 0,0 UV-I 0 W/m 3,9 C 8,7 C 6,4 km/h (2 Bft) 100,00 %
18.09.2019 04:13 8,7 C 6,7 C 72 % 1021,5 hPa 0,0 l/m 6,4 km/h (2 Bft) W 270 0 min 0,000 mm 0,0 UV-I 0 W/m 3,9 C 8,7 C 6,4 km/h (2 Bft) 95,65 %
18.09.2019 04:12 8,7 C 6,7 C 72 % 1021,5 hPa 0,0 l/m 4,8 km/h (1 Bft) W 270 0 min 0,000 mm 0,0 UV-I 0 W/m 3,9 C 8,7 C 8,0 km/h (2 Bft) 100,00 %
18.09.2019 04:11 8,7 C 6,7 C 72 % 1021,5 hPa 0,0 l/m 3,2 km/h (1 Bft) NW 315 0 min 0,000 mm 0,0 UV-I 0 W/m 3,9 C 8,7 C 6,4 km/h (2 Bft) 100,00 %
18.09.2019 04:10 8,7 C 6,7 C 72 % 1021,4 hPa 0,0 l/m 4,8 km/h (1 Bft) NW 315 0 min 0,000 mm 0,0 UV-I 0 W/m 3,9 C 8,7 C 8,0 km/h (2 Bft) 100,00 %
18.09.2019 04:09 8,7 C 6,7 C 72 % 1021,5 hPa 0,0 l/m 3,2 km/h (1 Bft) W-NW 292 0 min 0,000 mm 0,0 UV-I 0 W/m 3,9 C 8,7 C 6,4 km/h (2 Bft) 95,65 %
18.09.2019 04:08 8,8 C 6,7 C 72 % 1021,4 hPa 0,0 l/m 4,8 km/h (1 Bft) W-NW 292 0 min 0,000 mm 0,0 UV-I 0 W/m 4,0 C 8,8 C 6,4 km/h (2 Bft) 95,65 %
18.09.2019 04:07 8,8 C 7,2 C 72 % 1021,4 hPa 0,0 l/m 4,8 km/h (1 Bft) NW 315 0 min 0,000 mm 0,0 UV-I 0 W/m 4,0 C 8,8 C 6,4 km/h (2 Bft) 100,00 %
18.09.2019 04:06 8,8 C 7,2 C 72 % 1021,4 hPa 0,0 l/m 3,2 km/h (1 Bft) NW 315 0 min 0,000 mm 0,0 UV-I 0 W/m 4,0 C 8,8 C 6,4 km/h (2 Bft) 100,00 %
18.09.2019 04:05 8,8 C 7,2 C 72 % 1021,4 hPa 0,0 l/m 4,8 km/h (1 Bft) NW 315 0 min 0,000 mm 0,0 UV-I 0 W/m 4,0 C 8,8 C 8,0 km/h (2 Bft) 100,00 %
18.09.2019 04:04 8,8 C 7,2 C 72 % 1021,4 hPa 0,0 l/m 3,2 km/h (1 Bft) NW 315 0 min 0,000 mm 0,0 UV-I 0 W/m 4,0 C 8,8 C 4,8 km/h (1 Bft) 100,00 %
18.09.2019 04:03 8,8 C 7,2 C 72 % 1021,4 hPa 0,0 l/m 6,4 km/h (2 Bft) NW 315 0 min 0,000 mm 0,0 UV-I 0 W/m 4,0 C 8,8 C 11,3 km/h (2 Bft) 100,00 %
18.09.2019 04:02 8,8 C 7,2 C 73 % 1021,3 hPa 0,0 l/m 3,2 km/h (1 Bft) NW 315 0 min 0,000 mm 0,0 UV-I 0 W/m 4,2 C 8,8 C 6,4 km/h (2 Bft) 100,00 %
18.09.2019 04:01 8,9 C 7,2 C 73 % 1021,4 hPa 0,0 l/m 4,8 km/h (1 Bft) NW 315 0 min 0,000 mm 0,0 UV-I 0 W/m 4,3 C 8,9 C 6,4 km/h (2 Bft) 100,00 %
18.09.2019 04:00 8,9 C 7,2 C 73 % 1021,4 hPa 0,0 l/m 4,8 km/h (1 Bft) W-NW 292 0 min 0,025 mm 0,0 UV-I 0 W/m 4,3 C 8,9 C 6,4 km/h (2 Bft) 100,00 %
18.09.2019 03:59 8,9 C 7,2 C 73 % 1021,4 hPa 0,0 l/m 4,8 km/h (1 Bft) W-NW 292 0 min 0,000 mm 0,0 UV-I 0 W/m 4,3 C 8,9 C 8,0 km/h (2 Bft) 100,00 %
18.09.2019 03:58 8,9 C 7,2 C 73 % 1021,4 hPa 0,0 l/m 8,0 km/h (2 Bft) NW 315 0 min 0,000 mm 0,0 UV-I 0 W/m 4,3 C 7,7 C 12,9 km/h (3 Bft) 95,65 %
18.09.2019 03:57 8,9 C 7,2 C 73 % 1021,4 hPa 0,0 l/m 6,4 km/h (2 Bft) NW 315 0 min 0,000 mm 0,0 UV-I 0 W/m 4,3 C 8,9 C 9,7 km/h (2 Bft) 100,00 %
18.09.2019 03:56 8,9 C 7,2 C 73 % 1021,4 hPa 0,0 l/m 6,4 km/h (2 Bft) W-NW 292 0 min 0,000 mm 0,0 UV-I 0 W/m 4,3 C 8,9 C 9,7 km/h (2 Bft) 95,65 %
18.09.2019 03:55 8,9 C 7,2 C 73 % 1021,3 hPa 0,0 l/m 6,4 km/h (2 Bft) W-NW 292 0 min 0,000 mm 0,0 UV-I 0 W/m 4,3 C 8,9 C 12,9 km/h (3 Bft) 100,00 %
18.09.2019 03:54 8,9 C 7,2 C 73 % 1021,2 hPa 0,0 l/m 4,8 km/h (1 Bft) W-NW 292 0 min 0,000 mm 0,0 UV-I 0 W/m 4,3 C 8,9 C 8,0 km/h (2 Bft) 100,00 %
18.09.2019 03:53 8,9 C 7,2 C 73 % 1021,3 hPa 0,0 l/m 6,4 km/h (2 Bft) W-NW 292 0 min 0,000 mm 0,0 UV-I 0 W/m 4,3 C 8,9 C 8,0 km/h (2 Bft) 95,65 %
18.09.2019 03:52 8,9 C 7,2 C 73 % 1021,2 hPa 0,0 l/m 6,4 km/h (2 Bft) NW 315 0 min 0,000 mm 0,0 UV-I 0 W/m 4,3 C 8,9 C 8,0 km/h (2 Bft) 100,00 %
18.09.2019 03:51 8,9 C 7,2 C 73 % 1021,3 hPa 0,0 l/m 4,8 km/h (1 Bft) NW 315 0 min 0,000 mm 0,0 UV-I 0 W/m 4,3 C 8,9 C 8,0 km/h (2 Bft) 95,65 %
18.09.2019 03:50 9,0 C 7,2 C 73 % 1021,3 hPa 0,0 l/m 4,8 km/h (1 Bft) NW 315 0 min 0,000 mm 0,0 UV-I 0 W/m 4,4 C 9,0 C 6,4 km/h (2 Bft) 95,65 %
18.09.2019 03:49 9,0 C 7,2 C 73 % 1021,3 hPa 0,0 l/m 4,8 km/h (1 Bft) W-NW 292 0 min 0,000 mm 0,0 UV-I 0 W/m 4,4 C 9,0 C 6,4 km/h (2 Bft) 100,00 %
18.09.2019 03:48 9,1 C 7,2 C 73 % 1021,3 hPa 0,0 l/m 6,4 km/h (2 Bft) NW 315 0 min 0,000 mm 0,0 UV-I 0 W/m 4,5 C 9,1 C 9,7 km/h (2 Bft) 100,00 %
18.09.2019 03:47 9,0 C 7,2 C 73 % 1021,2 hPa 0,0 l/m 6,4 km/h (2 Bft) W-NW 292 0 min 0,000 mm 0,0 UV-I 0 W/m 4,4 C 9,0 C 14,5 km/h (3 Bft) 100,00 %
18.09.2019 03:46 9,1 C 7,2 C 73 % 1021,2 hPa 0,0 l/m 4,8 km/h (1 Bft) NW 315 0 min 0,000 mm 0,0 UV-I 0 W/m 4,5 C 9,1 C 12,9 km/h (3 Bft) 100,00 %
18.09.2019 03:45 9,1 C 7,2 C 73 % 1021,2 hPa 0,0 l/m 6,4 km/h (2 Bft) W-NW 292 0 min 0,000 mm 0,0 UV-I 0 W/m 4,5 C 9,1 C 12,9 km/h (3 Bft) 100,00 %
18.09.2019 03:44 9,1 C 7,2 C 73 % 1021,2 hPa 0,0 l/m 6,4 km/h (2 Bft) NW 315 0 min 0,000 mm 0,0 UV-I 0 W/m 4,5 C 9,1 C 11,3 km/h (2 Bft) 100,00 %
18.09.2019 03:43 9,1 C 7,2 C 73 % 1021,2 hPa 0,0 l/m 6,4 km/h (2 Bft) W-NW 292 0 min 0,000 mm 0,0 UV-I 0 W/m 4,5 C 9,1 C 11,3 km/h (2 Bft) 100,00 %
18.09.2019 03:42 9,1 C 7,2 C 73 % 1021,2 hPa 0,0 l/m 6,4 km/h (2 Bft) W-NW 292 0 min 0,000 mm 0,0 UV-I 0 W/m 4,5 C 9,1 C 9,7 km/h (2 Bft) 95,65 %
18.09.2019 03:41 9,2 C 7,2 C 73 % 1021,1 hPa 0,0 l/m 6,4 km/h (2 Bft) W-NW 292 0 min 0,000 mm 0,0 UV-I 0 W/m 4,6 C 9,2 C 11,3 km/h (2 Bft) 100,00 %
18.09.2019 03:40 9,2 C 7,2 C 73 % 1021,2 hPa 0,0 l/m 6,4 km/h (2 Bft) W-NW 292 0 min 0,000 mm 0,0 UV-I 0 W/m 4,6 C 9,2 C 12,9 km/h (3 Bft) 100,00 %
18.09.2019 03:39 9,2 C 7,2 C 73 % 1021,2 hPa 0,0 l/m 9,7 km/h (2 Bft) W-NW 292 0 min 0,000 mm 0,0 UV-I 0 W/m 4,6 C 6,9 C 12,9 km/h (3 Bft) 95,65 %
18.09.2019 03:38 9,2 C 7,2 C 73 % 1021,1 hPa 0,0 l/m 8,0 km/h (2 Bft) W-NW 292 0 min 0,000 mm 0,0 UV-I 0 W/m 4,6 C 8,0 C 12,9 km/h (3 Bft) 100,00 %
18.09.2019 03:37 9,1 C 7,2 C 73 % 1021,2 hPa 0,0 l/m 6,4 km/h (2 Bft) W-NW 292 0 min 0,000 mm 0,0 UV-I 0 W/m 4,5 C 9,1 C 11,3 km/h (2 Bft) 91,30 %
18.09.2019 03:36 9,2 C 7,2 C 73 % 1021,1 hPa 0,0 l/m 9,7 km/h (2 Bft) W-NW 292 0 min 0,000 mm 0,0 UV-I 0 W/m 4,6 C 6,9 C 14,5 km/h (3 Bft) 100,00 %
18.09.2019 03:35 9,2 C 7,2 C 73 % 1021,1 hPa 0,0 l/m 8,0 km/h (2 Bft) NW 315 0 min 0,000 mm 0,0 UV-I 0 W/m 4,6 C 8,0 C 12,9 km/h (3 Bft) 100,00 %
18.09.2019 03:34 9,2 C 7,2 C 73 % 1021,1 hPa 0,0 l/m 6,4 km/h (2 Bft) W-NW 292 0 min 0,000 mm 0,0 UV-I 0 W/m 4,6 C 9,2 C 11,3 km/h (2 Bft) 100,00 %
18.09.2019 03:33 9,2 C 6,7 C 73 % 1021,1 hPa 0,0 l/m 8,0 km/h (2 Bft) W-NW 292 0 min 0,000 mm 0,0 UV-I 0 W/m 4,6 C 8,0 C 11,3 km/h (2 Bft) 100,00 %
18.09.2019 03:32 9,2 C 6,7 C 73 % 1021,2 hPa 0,0 l/m 4,8 km/h (1 Bft) NW 315 0 min 0,000 mm 0,0 UV-I 0 W/m 4,6 C 9,2 C 9,7 km/h (2 Bft) 100,00 %
18.09.2019 03:31 9,2 C 6,7 C 73 % 1021,1 hPa 0,0 l/m 6,4 km/h (2 Bft) W-NW 292 0 min 0,000 mm 0,0 UV-I 0 W/m 4,6 C 9,2 C 9,7 km/h (2 Bft) 100,00 %
18.09.2019 03:30 9,2 C 6,7 C 73 % 1021,0 hPa 0,0 l/m 6,4 km/h (2 Bft) W-NW 292 0 min 0,000 mm 0,0 UV-I 0 W/m 4,6 C 9,2 C 9,7 km/h (2 Bft) 100,00 %
18.09.2019 03:29 9,2 C 6,7 C 74 % 1021,0 hPa 0,0 l/m 6,4 km/h (2 Bft) W-NW 292 0 min 0,000 mm 0,0 UV-I 0 W/m 4,8 C 9,2 C 11,3 km/h (2 Bft) 100,00 %
18.09.2019 03:28 9,1 C 6,7 C 74 % 1021,0 hPa 0,0 l/m 6,4 km/h (2 Bft) W-NW 292 0 min 0,000 mm 0,0 UV-I 0 W/m 4,7 C 9,1 C 11,3 km/h (2 Bft) 100,00 %
18.09.2019 03:27 9,2 C 6,7 C 74 % 1021,0 hPa 0,0 l/m 6,4 km/h (2 Bft) W-NW 292 0 min 0,000 mm 0,0 UV-I 0 W/m 4,8 C 9,2 C 11,3 km/h (2 Bft) 100,00 %
18.09.2019 03:26 9,1 C 6,7 C 74 % 1020,9 hPa 0,0 l/m 4,8 km/h (1 Bft) W-NW 292 0 min 0,000 mm 0,0 UV-I 0 W/m 4,7 C 9,1 C 6,4 km/h (2 Bft) 100,00 %
18.09.2019 03:25 9,1 C 6,7 C 74 % 1021,0 hPa 0,0 l/m 4,8 km/h (1 Bft) W-NW 292 0 min 0,000 mm 0,0 UV-I 0 W/m 4,7 C 9,1 C 6,4 km/h (2 Bft) 100,00 %
18.09.2019 03:24 9,1 C 6,7 C 74 % 1021,0 hPa 0,0 l/m 4,8 km/h (1 Bft) W 270 0 min 0,000 mm 0,0 UV-I 0 W/m 4,7 C 9,1 C 6,4 km/h (2 Bft) 100,00 %
18.09.2019 03:23 9,1 C 6,7 C 74 % 1021,0 hPa 0,0 l/m 4,8 km/h (1 Bft) W 270 0 min 0,000 mm 0,0 UV-I 0 W/m 4,7 C 9,1 C 11,3 km/h (2 Bft) 86,96 %
18.09.2019 03:22 9,1 C 6,7 C 74 % 1020,9 hPa 0,0 l/m 4,8 km/h (1 Bft) W-NW 292 0 min 0,000 mm 0,0 UV-I 0 W/m 4,7 C 9,1 C 8,0 km/h (2 Bft) 100,00 %
18.09.2019 03:21 9,1 C 6,7 C 74 % 1021,0 hPa 0,0 l/m 4,8 km/h (1 Bft) W-NW 292 0 min 0,000 mm 0,0 UV-I 0 W/m 4,7 C 9,1 C 8,0 km/h (2 Bft) 100,00 %
18.09.2019 03:20 9,1 C 7,2 C 74 % 1020,9 hPa 0,0 l/m 4,8 km/h (1 Bft) W-NW 292 0 min 0,000 mm 0,0 UV-I 0 W/m 4,7 C 9,1 C 8,0 km/h (2 Bft) 100,00 %
18.09.2019 03:19 9,1 C 7,2 C 74 % 1021,0 hPa 0,0 l/m 3,2 km/h (1 Bft) W-NW 292 0 min 0,000 mm 0,0 UV-I 0 W/m 4,7 C 9,1 C 4,8 km/h (1 Bft) 100,00 %
18.09.2019 03:18 9,1 C 7,2 C 74 % 1021,0 hPa 0,0 l/m 4,8 km/h (1 Bft) W-NW 292 0 min 0,000 mm 0,0 UV-I 0 W/m 4,7 C 9,1 C 6,4 km/h (2 Bft) 95,65 %
18.09.2019 03:17 9,1 C 7,2 C 74 % 1021,0 hPa 0,0 l/m 3,2 km/h (1 Bft) W-NW 292 0 min 0,000 mm 0,0 UV-I 0 W/m 4,7 C 9,1 C 4,8 km/h (1 Bft) 100,00 %
18.09.2019 03:16 9,1 C 7,2 C 74 % 1021,0 hPa 0,0 l/m 3,2 km/h (1 Bft) W-NW 292 0 min 0,000 mm 0,0 UV-I 0 W/m 4,7 C 9,1 C 6,4 km/h (2 Bft) 95,65 %
18.09.2019 03:15 9,1 C 7,2 C 74 % 1020,9 hPa 0,0 l/m 3,2 km/h (1 Bft) W-NW 292 0 min 0,000 mm 0,0 UV-I 0 W/m 4,7 C 9,1 C 6,4 km/h (2 Bft) 100,00 %
18.09.2019 03:14 9,1 C 7,2 C 74 % 1021,0 hPa 0,0 l/m 3,2 km/h (1 Bft) W-NW 292 0 min 0,000 mm 0,0 UV-I 0 W/m 4,7 C 9,1 C 4,8 km/h (1 Bft) 100,00 %
18.09.2019 03:13 9,2 C 7,2 C 74 % 1021,0 hPa 0,0 l/m 4,8 km/h (1 Bft) W-NW 292 0 min 0,000 mm 0,0 UV-I 0 W/m 4,8 C 9,2 C 6,4 km/h (2 Bft) 95,65 %
18.09.2019 03:12 9,2 C 7,2 C 74 % 1020,9 hPa 0,0 l/m 3,2 km/h (1 Bft) W-NW 292 0 min 0,000 mm 0,0 UV-I 0 W/m 4,8 C 9,2 C 6,4 km/h (2 Bft) 95,65 %
18.09.2019 03:11 9,2 C 7,2 C 74 % 1020,9 hPa 0,0 l/m 3,2 km/h (1 Bft) W-NW 292 0 min 0,000 mm 0,0 UV-I 0 W/m 4,8 C 9,2 C 6,4 km/h (2 Bft) 100,00 %
18.09.2019 03:10 9,2 C 7,2 C 74 % 1020,9 hPa 0,0 l/m 4,8 km/h (1 Bft) W-NW 292 0 min 0,000 mm 0,0 UV-I 0 W/m 4,8 C 9,2 C 6,4 km/h (2 Bft) 100,00 %
18.09.2019 03:09 9,2 C 7,2 C 74 % 1020,9 hPa 0,0 l/m 3,2 km/h (1 Bft) W-NW 292 0 min 0,000 mm 0,0 UV-I 0 W/m 4,8 C 9,2 C 6,4 km/h (2 Bft) 100,00 %
18.09.2019 03:08 9,3 C 7,2 C 75 % 1020,8 hPa 0,0 l/m 3,2 km/h (1 Bft) W-NW 292 0 min 0,000 mm 0,0 UV-I 0 W/m 5,1 C 9,3 C 4,8 km/h (1 Bft) 100,00 %
18.09.2019 03:07 9,3 C 7,8 C 74 % 1020,8 hPa 0,0 l/m 4,8 km/h (1 Bft) W-NW 292 0 min 0,000 mm 0,0 UV-I 0 W/m 4,9 C 9,3 C 8,0 km/h (2 Bft) 100,00 %
18.09.2019 03:06 9,3 C 7,8 C 75 % 1020,9 hPa 0,0 l/m 3,2 km/h (1 Bft) NW 315 0 min 0,000 mm 0,0 UV-I 0 W/m 5,1 C 9,3 C 6,4 km/h (2 Bft) 95,65 %
18.09.2019 03:05 9,3 C 7,2 C 75 % 1020,8 hPa 0,0 l/m 4,8 km/h (1 Bft) W-NW 292 0 min 0,000 mm 0,0 UV-I 0 W/m 5,1 C 9,3 C 8,0 km/h (2 Bft) 91,30 %
18.09.2019 03:04 9,3 C 7,2 C 75 % 1020,8 hPa 0,0 l/m 4,8 km/h (1 Bft) NW 315 0 min 0,000 mm 0,0 UV-I 0 W/m 5,1 C 9,3 C 9,7 km/h (2 Bft) 100,00 %
18.09.2019 03:03 9,3 C 7,2 C 75 % 1020,7 hPa 0,0 l/m 4,8 km/h (1 Bft) W-NW 292 0 min 0,000 mm 0,0 UV-I 0 W/m 5,1 C 9,3 C 8,0 km/h (2 Bft) 95,65 %
18.09.2019 03:02 9,3 C 7,2 C 75 % 1020,8 hPa 0,0 l/m 6,4 km/h (2 Bft) W-NW 292 0 min 0,000 mm 0,0 UV-I 0 W/m 5,1 C 9,3 C 11,3 km/h (2 Bft) 100,00 %
18.09.2019 03:01 9,3 C 7,2 C 75 % 1020,7 hPa 0,0 l/m 4,8 km/h (1 Bft) W-NW 292 0 min 0,000 mm 0,0 UV-I 0 W/m 5,1 C 9,3 C 11,3 km/h (2 Bft) 91,30 %
18.09.2019 03:00 9,3 C 7,2 C 75 % 1020,8 hPa 0,0 l/m 4,8 km/h (1 Bft) W-NW 292 0 min 0,025 mm 0,0 UV-I 0 W/m 5,1 C 9,3 C 6,4 km/h (2 Bft) 100,00 %
18.09.2019 02:59 9,4 C 7,2 C 75 % 1020,7 hPa 0,0 l/m 3,2 km/h (1 Bft) W-NW 292 0 min 0,000 mm 0,0 UV-I 0 W/m 5,2 C 9,4 C 6,4 km/h (2 Bft) 100,00 %
18.09.2019 02:58 9,4 C 7,8 C 75 % 1020,7 hPa 0,0 l/m 4,8 km/h (1 Bft) W-NW 292 0 min 0,000 mm 0,0 UV-I 0 W/m 5,2 C 9,4 C 6,4 km/h (2 Bft) 100,00 %
18.09.2019 02:57 9,4 C 7,8 C 75 % 1020,7 hPa 0,0 l/m 3,2 km/h (1 Bft) W-NW 292 0 min 0,000 mm 0,0 UV-I 0 W/m 5,2 C 9,4 C 6,4 km/h (2 Bft) 100,00 %
18.09.2019 02:56 9,4 C 7,8 C 75 % 1020,7 hPa 0,0 l/m 3,2 km/h (1 Bft) W-NW 292 0 min 0,000 mm 0,0 UV-I 0 W/m 5,2 C 9,4 C 6,4 km/h (2 Bft) 100,00 %
18.09.2019 02:55 9,5 C 7,8 C 75 % 1020,7 hPa 0,0 l/m 4,8 km/h (1 Bft) NW 315 0 min 0,000 mm 0,0 UV-I 0 W/m 5,3 C 9,5 C 9,7 km/h (2 Bft) 100,00 %
18.09.2019 02:54 9,5 C 7,8 C 75 % 1020,6 hPa 0,0 l/m 3,2 km/h (1 Bft) W-NW 292 0 min 0,000 mm 0,0 UV-I 0 W/m 5,3 C 9,5 C 6,4 km/h (2 Bft) 100,00 %
18.09.2019 02:53 9,6 C 7,8 C 74 % 1020,8 hPa 0,0 l/m 4,8 km/h (1 Bft) W-NW 292 0 min 0,000 mm 0,0 UV-I 0 W/m 5,2 C 9,6 C 8,0 km/h (2 Bft) 100,00 %
18.09.2019 02:52 9,6 C 7,8 C 74 % 1020,7 hPa 0,0 l/m 3,2 km/h (1 Bft) W 270 0 min 0,000 mm 0,0 UV-I 0 W/m 5,2 C 9,6 C 6,4 km/h (2 Bft) 100,00 %
18.09.2019 02:51 9,6 C 7,8 C 74 % 1020,7 hPa 0,0 l/m 6,4 km/h (2 Bft) W 270 0 min 0,000 mm 0,0 UV-I 0 W/m 5,2 C 9,6 C 9,7 km/h (2 Bft) 100,00 %
18.09.2019 02:50 9,7 C 7,8 C 74 % 1020,7 hPa 0,0 l/m 4,8 km/h (1 Bft) W-NW 292 0 min 0,000 mm 0,0 UV-I 0 W/m 5,3 C 9,7 C 6,4 km/h (2 Bft) 100,00 %
18.09.2019 02:49 9,7 C 7,8 C 74 % 1020,7 hPa 0,0 l/m 4,8 km/h (1 Bft) W 270 0 min 0,000 mm 0,0 UV-I 0 W/m 5,3 C 9,7 C 8,0 km/h (2 Bft) 95,65 %
18.09.2019 02:48 9,7 C 7,8 C 74 % 1020,7 hPa 0,0 l/m 4,8 km/h (1 Bft) W 270 0 min 0,000 mm 0,0 UV-I 0 W/m 5,3 C 9,7 C 9,7 km/h (2 Bft) 100,00 %
18.09.2019 02:47 9,7 C 7,8 C 74 % 1020,7 hPa 0,0 l/m 6,4 km/h (2 Bft) W-NW 292 0 min 0,000 mm 0,0 UV-I 0 W/m 5,3 C 9,7 C 11,3 km/h (2 Bft) 100,00 %
18.09.2019 02:46 9,7 C 7,8 C 74 % 1020,7 hPa 0,0 l/m 4,8 km/h (1 Bft) W 270 0 min 0,000 mm 0,0 UV-I 0 W/m 5,3 C 9,7 C 8,0 km/h (2 Bft) 100,00 %
18.09.2019 02:45 9,7 C 7,8 C 74 % 1020,7 hPa 0,0 l/m 4,8 km/h (1 Bft) W 270 0 min 0,000 mm 0,0 UV-I 0 W/m 5,3 C 9,7 C 6,4 km/h (2 Bft) 100,00 %
18.09.2019 02:44 9,7 C 7,8 C 74 % 1020,6 hPa 0,0 l/m 4,8 km/h (1 Bft) W-NW 292 0 min 0,000 mm 0,0 UV-I 0 W/m 5,3 C 9,7 C 6,4 km/h (2 Bft) 100,00 %
18.09.2019 02:43 9,7 C 7,8 C 74 % 1020,7 hPa 0,0 l/m 3,2 km/h (1 Bft) W 270 0 min 0,000 mm 0,0 UV-I 0 W/m 5,3 C 9,7 C 6,4 km/h (2 Bft) 95,65 %
18.09.2019 02:42 9,8 C 7,8 C 74 % 1020,7 hPa 0,0 l/m 4,8 km/h (1 Bft) W 270 0 min 0,000 mm 0,0 UV-I 0 W/m 5,4 C 9,8 C 11,3 km/h (2 Bft) 100,00 %
18.09.2019 02:41 9,8 C 7,8 C 74 % 1020,7 hPa 0,0 l/m 4,8 km/h (1 Bft) W-SW 247 0 min 0,000 mm 0,0 UV-I 0 W/m 5,4 C 9,8 C 9,7 km/h (2 Bft) 95,65 %
18.09.2019 02:40 9,8 C 7,8 C 74 % 1020,6 hPa 0,0 l/m 8,0 km/h (2 Bft) W 270 0 min 0,000 mm 0,0 UV-I 0 W/m 5,4 C 8,6 C 11,3 km/h (2 Bft) 100,00 %
18.09.2019 02:39 9,8 C 7,8 C 74 % 1020,6 hPa 0,0 l/m 6,4 km/h (2 Bft) W 270 0 min 0,000 mm 0,0 UV-I 0 W/m 5,4 C 9,8 C 12,9 km/h (3 Bft) 100,00 %
18.09.2019 02:38 9,8 C 7,8 C 74 % 1020,6 hPa 0,0 l/m 6,4 km/h (2 Bft) W-NW 292 0 min 0,000 mm 0,0 UV-I 0 W/m 5,4 C 9,8 C 11,3 km/h (2 Bft) 100,00 %
18.09.2019 02:37 9,8 C 7,8 C 74 % 1020,7 hPa 0,0 l/m 4,8 km/h (1 Bft) W-NW 292 0 min 0,000 mm 0,0 UV-I 0 W/m 5,4 C 9,8 C 9,7 km/h (2 Bft) 95,65 %
18.09.2019 02:36 9,8 C 7,8 C 74 % 1020,7 hPa 0,0 l/m 4,8 km/h (1 Bft) W-NW 292 0 min 0,000 mm 0,0 UV-I 0 W/m 5,4 C 9,8 C 11,3 km/h (2 Bft) 100,00 %
18.09.2019 02:35 9,9 C 7,8 C 74 % 1020,7 hPa 0,0 l/m 3,2 km/h (1 Bft) W 270 0 min 0,000 mm 0,0 UV-I 0 W/m 5,5 C 9,9 C 4,8 km/h (1 Bft) 100,00 %
18.09.2019 02:34 9,9 C 7,8 C 74 % 1020,7 hPa 0,0 l/m 3,2 km/h (1 Bft) W 270 0 min 0,000 mm 0,0 UV-I 0 W/m 5,5 C 9,9 C 4,8 km/h (1 Bft) 100,00 %
18.09.2019 02:33 9,9 C 7,8 C 74 % 1020,6 hPa 0,0 l/m 6,4 km/h (2 Bft) W 270 0 min 0,000 mm 0,0 UV-I 0 W/m 5,5 C 9,9 C 12,9 km/h (3 Bft) 100,00 %
18.09.2019 02:32 9,9 C 7,8 C 74 % 1020,7 hPa 0,0 l/m 6,4 km/h (2 Bft) W 270 0 min 0,000 mm 0,0 UV-I 0 W/m 5,5 C 9,9 C 12,9 km/h (3 Bft) 91,30 %
18.09.2019 02:31 9,9 C 7,8 C 74 % 1020,6 hPa 0,0 l/m 6,4 km/h (2 Bft) W-NW 292 0 min 0,000 mm 0,0 UV-I 0 W/m 5,5 C 9,9 C 12,9 km/h (3 Bft) 91,30 %
18.09.2019 02:30 9,9 C 7,8 C 74 % 1020,7 hPa 0,0 l/m 6,4 km/h (2 Bft) W 270 0 min 0,000 mm 0,0 UV-I 0 W/m 5,5 C 9,9 C 11,3 km/h (2 Bft) 100,00 %
18.09.2019 02:29 9,9 C 7,8 C 75 % 1020,6 hPa 0,0 l/m 6,4 km/h (2 Bft) W 270 0 min 0,000 mm 0,0 UV-I 0 W/m 5,7 C 9,9 C 8,0 km/h (2 Bft) 95,65 %
18.09.2019 02:28 9,9 C 7,8 C 75 % 1020,6 hPa 0,0 l/m 6,4 km/h (2 Bft) W-NW 292 0 min 0,000 mm 0,0 UV-I 0 W/m 5,7 C 9,9 C 11,3 km/h (2 Bft) 100,00 %
18.09.2019 02:27 9,9 C 7,8 C 75 % 1020,6 hPa 0,0 l/m 4,8 km/h (1 Bft) W 270 0 min 0,000 mm 0,0 UV-I 0 W/m 5,7 C 9,9 C 9,7 km/h (2 Bft) 100,00 %
18.09.2019 02:26 10,0 C 7,8 C 75 % 1020,5 hPa 0,0 l/m 6,4 km/h (2 Bft) W 270 0 min 0,000 mm 0,0 UV-I 0 W/m 5,8 C 10,0 C 11,3 km/h (2 Bft) 100,00 %
18.09.2019 02:25 9,9 C 7,8 C 75 % 1020,6 hPa 0,0 l/m 4,8 km/h (1 Bft) W-SW 247 0 min 0,000 mm 0,0 UV-I 0 W/m 5,7 C 9,9 C 9,7 km/h (2 Bft) 100,00 %
18.09.2019 02:24 10,0 C 7,8 C 75 % 1020,5 hPa 0,0 l/m 4,8 km/h (1 Bft) W 270 0 min 0,000 mm 0,0 UV-I 0 W/m 5,8 C 10,0 C 8,0 km/h (2 Bft) 100,00 %
18.09.2019 02:23 10,0 C 7,8 C 75 % 1020,5 hPa 0,0 l/m 4,8 km/h (1 Bft) W 270 0 min 0,000 mm 0,0 UV-I 0 W/m 5,8 C 10,0 C 11,3 km/h (2 Bft) 100,00 %
18.09.2019 02:22 10,0 C 7,8 C 75 % 1020,5 hPa 0,0 l/m 3,2 km/h (1 Bft) W 270 0 min 0,000 mm 0,0 UV-I 0 W/m 5,8 C 10,0 C 6,4 km/h (2 Bft) 95,65 %
18.09.2019 02:21 10,0 C 7,8 C 75 % 1020,5 hPa 0,0 l/m 4,8 km/h (1 Bft) W-SW 247 0 min 0,000 mm 0,0 UV-I 0 W/m 5,8 C 10,0 C 8,0 km/h (2 Bft) 100,00 %
18.09.2019 02:20 10,1 C 7,8 C 74 % 1020,6 hPa 0,0 l/m 3,2 km/h (1 Bft) NW 315 0 min 0,000 mm 0,0 UV-I 0 W/m 5,7 C 10,1 C 4,8 km/h (1 Bft) 95,65 %
18.09.2019 02:19 10,1 C 7,8 C 75 % 1020,5 hPa 0,0 l/m 4,8 km/h (1 Bft) W 270 0 min 0,000 mm 0,0 UV-I 0 W/m 5,9 C 10,1 C 6,4 km/h (2 Bft) 95,65 %
18.09.2019 02:18 10,1 C 8,3 C 75 % 1020,5 hPa 0,0 l/m 4,8 km/h (1 Bft) W-NW 292 0 min 0,000 mm 0,0 UV-I 0 W/m 5,9 C 10,1 C 9,7 km/h (2 Bft) 100,00 %
18.09.2019 02:17 10,1 C 8,3 C 75 % 1020,5 hPa 0,0 l/m 3,2 km/h (1 Bft) W 270 0 min 0,000 mm 0,0 UV-I 0 W/m 5,9 C 10,1 C 6,4 km/h (2 Bft) 100,00 %
18.09.2019 02:16 10,1 C 8,3 C 75 % 1020,5 hPa 0,0 l/m 3,2 km/h (1 Bft) W 270 0 min 0,000 mm 0,0 UV-I 0 W/m 5,9 C 10,1 C 6,4 km/h (2 Bft) 100,00 %
18.09.2019 02:15 10,1 C 8,3 C 75 % 1020,5 hPa 0,0 l/m 4,8 km/h (1 Bft) W 270 0 min 0,000 mm 0,0 UV-I 0 W/m 5,9 C 10,1 C 9,7 km/h (2 Bft) 95,65 %
18.09.2019 02:14 10,2 C 8,3 C 75 % 1020,5 hPa 0,0 l/m 4,8 km/h (1 Bft) W-NW 292 0 min 0,000 mm 0,0 UV-I 0 W/m 6,0 C 10,2 C 8,0 km/h (2 Bft) 86,96 %
18.09.2019 02:13 10,2 C 8,3 C 75 % 1020,5 hPa 0,0 l/m 4,8 km/h (1 Bft) W-NW 292 0 min 0,000 mm 0,0 UV-I 0 W/m 6,0 C 10,2 C 11,3 km/h (2 Bft) 100,00 %
18.09.2019 02:12 10,2 C 8,3 C 75 % 1020,4 hPa 0,0 l/m 4,8 km/h (1 Bft) W-NW 292 0 min 0,000 mm 0,0 UV-I 0 W/m 6,0 C 10,2 C 11,3 km/h (2 Bft) 100,00 %
18.09.2019 02:11 10,2 C 8,3 C 75 % 1020,4 hPa 0,0 l/m 4,8 km/h (1 Bft) W 270 0 min 0,000 mm 0,0 UV-I 0 W/m 6,0 C 10,2 C 8,0 km/h (2 Bft) 100,00 %
18.09.2019 02:10 10,2 C 8,3 C 75 % 1020,4 hPa 0,0 l/m 6,4 km/h (2 Bft) W 270 0 min 0,000 mm 0,0 UV-I 0 W/m 6,0 C 10,2 C 11,3 km/h (2 Bft) 100,00 %
18.09.2019 02:09 10,2 C 8,3 C 75 % 1020,5 hPa 0,0 l/m 4,8 km/h (1 Bft) W 270 0 min 0,000 mm 0,0 UV-I 0 W/m 6,0 C 10,2 C 6,4 km/h (2 Bft) 100,00 %
18.09.2019 02:08 10,2 C 8,3 C 75 % 1020,4 hPa 0,0 l/m 3,2 km/h (1 Bft) W 270 0 min 0,000 mm 0,0 UV-I 0 W/m 6,0 C 10,2 C 6,4 km/h (2 Bft) 100,00 %
18.09.2019 02:07 10,2 C 8,3 C 75 % 1020,5 hPa 0,0 l/m 4,8 km/h (1 Bft) W-NW 292 0 min 0,000 mm 0,0 UV-I 0 W/m 6,0 C 10,2 C 8,0 km/h (2 Bft) 100,00 %
18.09.2019 02:06 10,2 C 8,3 C 75 % 1020,5 hPa 0,0 l/m 3,2 km/h (1 Bft) W 270 0 min 0,000 mm 0,0 UV-I 0 W/m 6,0 C 10,2 C 8,0 km/h (2 Bft) 100,00 %
18.09.2019 02:05 10,2 C 8,3 C 75 % 1020,4 hPa 0,0 l/m 3,2 km/h (1 Bft) W 270 0 min 0,000 mm 0,0 UV-I 0 W/m 6,0 C 10,2 C 4,8 km/h (1 Bft) 100,00 %
18.09.2019 02:04 10,3 C 8,3 C 75 % 1020,4 hPa 0,0 l/m 3,2 km/h (1 Bft) W 270 0 min 0,000 mm 0,0 UV-I 0 W/m 6,1 C 10,3 C 6,4 km/h (2 Bft) 100,00 %
18.09.2019 02:03 10,3 C 8,3 C 76 % 1020,4 hPa 0,0 l/m 4,8 km/h (1 Bft) W-SW 247 0 min 0,000 mm 0,0 UV-I 0 W/m 6,3 C 10,3 C 8,0 km/h (2 Bft) 100,00 %
18.09.2019 02:02 10,3 C 8,3 C 76 % 1020,5 hPa 0,0 l/m 6,4 km/h (2 Bft) W 270 0 min 0,000 mm 0,0 UV-I 0 W/m 6,3 C 10,3 C 11,3 km/h (2 Bft) 100,00 %
18.09.2019 02:01 10,3 C 8,3 C 76 % 1020,4 hPa 0,0 l/m 3,2 km/h (1 Bft) W 270 0 min 0,000 mm 0,0 UV-I 0 W/m 6,3 C 10,3 C 4,8 km/h (1 Bft) 100,00 %
18.09.2019 02:00 10,3 C 8,3 C 76 % 1020,5 hPa 0,0 l/m 3,2 km/h (1 Bft) W-NW 292 0 min 0,025 mm 0,0 UV-I 0 W/m 6,3 C 10,3 C 4,8 km/h (1 Bft) 100,00 %
18.09.2019 01:59 10,3 C 8,3 C 76 % 1020,5 hPa 0,0 l/m 4,8 km/h (1 Bft) W 270 0 min 0,000 mm 0,0 UV-I 0 W/m 6,3 C 10,3 C 12,9 km/h (3 Bft) 100,00 %
18.09.2019 01:58 10,3 C 8,3 C 76 % 1020,4 hPa 0,0 l/m 4,8 km/h (1 Bft) W 270 0 min 0,000 mm 0,0 UV-I 0 W/m 6,3 C 10,3 C 11,3 km/h (2 Bft) 100,00 %
18.09.2019 01:57 10,3 C 8,3 C 76 % 1020,6 hPa 0,0 l/m 6,4 km/h (2 Bft) W-SW 247 0 min 0,000 mm 0,0 UV-I 0 W/m 6,3 C 10,3 C 11,3 km/h (2 Bft) 100,00 %
18.09.2019 01:56 10,3 C 8,3 C 76 % 1020,5 hPa 0,0 l/m 4,8 km/h (1 Bft) W 270 0 min 0,000 mm 0,0 UV-I 0 W/m 6,3 C 10,3 C 8,0 km/h (2 Bft) 95,65 %
18.09.2019 01:55 10,4 C 8,3 C 76 % 1020,5 hPa 0,0 l/m 4,8 km/h (1 Bft) W-NW 292 0 min 0,000 mm 0,0 UV-I 0 W/m 6,4 C 10,4 C 11,3 km/h (2 Bft) 95,65 %
18.09.2019 01:54 10,4 C 8,3 C 76 % 1020,5 hPa 0,0 l/m 4,8 km/h (1 Bft) W 270 0 min 0,000 mm 0,0 UV-I 0 W/m 6,4 C 10,4 C 11,3 km/h (2 Bft) 100,00 %
18.09.2019 01:53 10,4 C 8,3 C 76 % 1020,5 hPa 0,0 l/m 4,8 km/h (1 Bft) W 270 0 min 0,000 mm 0,0 UV-I 0 W/m 6,4 C 10,4 C 11,3 km/h (2 Bft) 95,65 %
18.09.2019 01:52 10,5 C 8,3 C 76 % 1020,5 hPa 0,0 l/m 4,8 km/h (1 Bft) W-NW 292 0 min 0,000 mm 0,0 UV-I 0 W/m 6,5 C 10,5 C 8,0 km/h (2 Bft) 100,00 %
18.09.2019 01:51 10,5 C 8,3 C 76 % 1020,4 hPa 0,0 l/m 4,8 km/h (1 Bft) W 270 0 min 0,000 mm 0,0 UV-I 0 W/m 6,5 C 10,5 C 8,0 km/h (2 Bft) 100,00 %
18.09.2019 01:50 10,5 C 8,3 C 76 % 1020,6 hPa 0,0 l/m 4,8 km/h (1 Bft) W-SW 247 0 min 0,000 mm 0,0 UV-I 0 W/m 6,5 C 10,5 C 9,7 km/h (2 Bft) 100,00 %
18.09.2019 01:49 10,5 C 8,3 C 76 % 1020,5 hPa 0,0 l/m 4,8 km/h (1 Bft) W-SW 247 0 min 0,000 mm 0,0 UV-I 0 W/m 6,5 C 10,5 C 6,4 km/h (2 Bft) 100,00 %
18.09.2019 01:48 10,6 C 8,3 C 76 % 1020,5 hPa 0,0 l/m 4,8 km/h (1 Bft) W-NW 292 0 min 0,000 mm 0,0 UV-I 0 W/m 6,5 C 10,6 C 6,4 km/h (2 Bft) 95,65 %
18.09.2019 01:47 10,5 C 8,3 C 77 % 1020,5 hPa 0,0 l/m 4,8 km/h (1 Bft) W-NW 292 0 min 0,000 mm 0,0 UV-I 0 W/m 6,6 C 10,5 C 11,3 km/h (2 Bft) 100,00 %
18.09.2019 01:46 10,5 C 8,3 C 77 % 1020,5 hPa 0,0 l/m 6,4 km/h (2 Bft) W 270 0 min 0,000 mm 0,0 UV-I 0 W/m 6,6 C 10,5 C 9,7 km/h (2 Bft) 95,65 %
18.09.2019 01:45 10,5 C 8,3 C 77 % 1020,5 hPa 0,0 l/m 6,4 km/h (2 Bft) W 270 0 min 0,000 mm 0,0 UV-I 0 W/m 6,6 C 10,5 C 11,3 km/h (2 Bft) 100,00 %
18.09.2019 01:44 10,5 C 8,3 C 77 % 1020,5 hPa 0,0 l/m 4,8 km/h (1 Bft) W 270 0 min 0,000 mm 0,0 UV-I 0 W/m 6,6 C 10,5 C 6,4 km/h (2 Bft) 95,65 %
18.09.2019 01:43 10,5 C 8,9 C 77 % 1020,5 hPa 0,0 l/m 4,8 km/h (1 Bft) W 270 0 min 0,000 mm 0,0 UV-I 0 W/m 6,6 C 10,5 C 6,4 km/h (2 Bft) 100,00 %
18.09.2019 01:42 10,6 C 8,3 C 77 % 1020,5 hPa 0,0 l/m 3,2 km/h (1 Bft) W 270 0 min 0,000 mm 0,0 UV-I 0 W/m 6,7 C 10,6 C 6,4 km/h (2 Bft) 91,30 %
18.09.2019 01:41 10,6 C 8,3 C 77 % 1020,5 hPa 0,0 l/m 6,4 km/h (2 Bft) W-NW 292 0 min 0,000 mm 0,0 UV-I 0 W/m 6,7 C 10,6 C 11,3 km/h (2 Bft) 95,65 %
18.09.2019 01:40 10,6 C 8,3 C 77 % 1020,4 hPa 0,0 l/m 4,8 km/h (1 Bft) W 270 0 min 0,000 mm 0,0 UV-I 0 W/m 6,7 C 10,6 C 9,7 km/h (2 Bft) 100,00 %
18.09.2019 01:39 10,6 C 8,3 C 77 % 1020,5 hPa 0,0 l/m 3,2 km/h (1 Bft) W-SW 247 0 min 0,000 mm 0,0 UV-I 0 W/m 6,7 C 10,6 C 6,4 km/h (2 Bft) 100,00 %
18.09.2019 01:38 10,6 C 8,3 C 77 % 1020,5 hPa 0,0 l/m 4,8 km/h (1 Bft) W-SW 247 0 min 0,000 mm 0,0 UV-I 0 W/m 6,7 C 10,6 C 11,3 km/h (2 Bft) 100,00 %
18.09.2019 01:37 10,6 C 8,3 C 77 % 1020,4 hPa 0,0 l/m 6,4 km/h (2 Bft) W-SW 247 0 min 0,000 mm 0,0 UV-I 0 W/m 6,7 C 10,6 C 11,3 km/h (2 Bft) 95,65 %
18.09.2019 01:36 10,6 C 8,3 C 77 % 1020,5 hPa 0,0 l/m 4,8 km/h (1 Bft) W-NW 292 0 min 0,000 mm 0,0 UV-I 0 W/m 6,7 C 10,6 C 12,9 km/h (3 Bft) 100,00 %
18.09.2019 01:35 10,6 C 8,3 C 78 % 1020,5 hPa 0,0 l/m 3,2 km/h (1 Bft) W-NW 292 0 min 0,000 mm 0,0 UV-I 0 W/m 6,9 C 10,6 C 9,7 km/h (2 Bft) 91,30 %
18.09.2019 01:34 10,6 C 8,3 C 78 % 1020,5 hPa 0,0 l/m 4,8 km/h (1 Bft) W-SW 247 0 min 0,000 mm 0,0 UV-I 0 W/m 6,9 C 10,6 C 9,7 km/h (2 Bft) 95,65 %
18.09.2019 01:33 10,6 C 8,9 C 78 % 1020,5 hPa 0,0 l/m 4,8 km/h (1 Bft) W-SW 247 0 min 0,000 mm 0,0 UV-I 0 W/m 6,9 C 10,6 C 6,4 km/h (2 Bft) 95,65 %
18.09.2019 01:32 10,6 C 8,9 C 78 % 1020,5 hPa 0,0 l/m 4,8 km/h (1 Bft) W 270 0 min 0,000 mm 0,0 UV-I 0 W/m 6,9 C 10,6 C 6,4 km/h (2 Bft) 100,00 %
18.09.2019 01:31 10,6 C 8,9 C 78 % 1020,5 hPa 0,0 l/m 4,8 km/h (1 Bft) W 270 0 min 0,000 mm 0,0 UV-I 0 W/m 6,9 C 10,6 C 11,3 km/h (2 Bft) 95,65 %
18.09.2019 01:30 10,6 C 8,9 C 78 % 1020,5 hPa 0,0 l/m 4,8 km/h (1 Bft) W-SW 247 0 min 0,000 mm 0,0 UV-I 0 W/m 6,9 C 10,6 C 11,3 km/h (2 Bft) 100,00 %
18.09.2019 01:29 10,6 C 8,9 C 78 % 1020,4 hPa 0,0 l/m 4,8 km/h (1 Bft) W-SW 247 0 min 0,000 mm 0,0 UV-I 0 W/m 6,9 C 10,6 C 8,0 km/h (2 Bft) 95,65 %
18.09.2019 01:28 10,7 C 8,9 C 78 % 1020,5 hPa 0,0 l/m 4,8 km/h (1 Bft) W-NW 292 0 min 0,000 mm 0,0 UV-I 0 W/m 7,0 C 10,7 C 8,0 km/h (2 Bft) 100,00 %
18.09.2019 01:27 10,6 C 8,9 C 78 % 1020,4 hPa 0,0 l/m 4,8 km/h (1 Bft) W-SW 247 0 min 0,000 mm 0,0 UV-I 0 W/m 6,9 C 10,6 C 9,7 km/h (2 Bft) 95,65 %
18.09.2019 01:26 10,7 C 8,9 C 78 % 1020,4 hPa 0,0 l/m 4,8 km/h (1 Bft) W 270 0 min 0,000 mm 0,0 UV-I 0 W/m 7,0 C 10,7 C 11,3 km/h (2 Bft) 100,00 %
18.09.2019 01:25 10,7 C 8,9 C 78 % 1020,4 hPa 0,0 l/m 8,0 km/h (2 Bft) W-NW 292 0 min 0,000 mm 0,0 UV-I 0 W/m 7,0 C 9,6 C 12,9 km/h (3 Bft) 100,00 %
18.09.2019 01:24 10,6 C 8,9 C 78 % 1020,3 hPa 0,0 l/m 4,8 km/h (1 Bft) W 270 0 min 0,000 mm 0,0 UV-I 0 W/m 6,9 C 10,6 C 11,3 km/h (2 Bft) 100,00 %
18.09.2019 01:23 10,6 C 8,9 C 79 % 1020,4 hPa 0,0 l/m 4,8 km/h (1 Bft) W 270 0 min 0,000 mm 0,0 UV-I 0 W/m 7,1 C 10,6 C 9,7 km/h (2 Bft) 100,00 %
18.09.2019 01:22 10,6 C 8,9 C 79 % 1020,3 hPa 0,0 l/m 6,4 km/h (2 Bft) W 270 0 min 0,000 mm 0,0 UV-I 0 W/m 7,1 C 10,6 C 11,3 km/h (2 Bft) 100,00 %
18.09.2019 01:21 10,6 C 8,3 C 79 % 1020,3 hPa 0,0 l/m 6,4 km/h (2 Bft) W-NW 292 0 min 0,000 mm 0,0 UV-I 0 W/m 7,1 C 10,6 C 11,3 km/h (2 Bft) 100,00 %
18.09.2019 01:20 10,6 C 8,3 C 79 % 1020,3 hPa 0,0 l/m 6,4 km/h (2 Bft) W 270 0 min 0,000 mm 0,0 UV-I 0 W/m 7,1 C 10,6 C 9,7 km/h (2 Bft) 100,00 %
18.09.2019 01:19 10,6 C 8,3 C 79 % 1020,4 hPa 0,0 l/m 6,4 km/h (2 Bft) W 270 0 min 0,000 mm 0,0 UV-I 0 W/m 7,1 C 10,6 C 11,3 km/h (2 Bft) 91,30 %
18.09.2019 01:18 10,5 C 8,3 C 79 % 1020,3 hPa 0,0 l/m 4,8 km/h (1 Bft) W-NW 292 0 min 0,000 mm 0,0 UV-I 0 W/m 7,0 C 10,5 C 6,4 km/h (2 Bft) 100,00 %
18.09.2019 01:17 10,6 C 8,3 C 79 % 1020,3 hPa 0,0 l/m 3,2 km/h (1 Bft) W-SW 247 0 min 0,000 mm 0,0 UV-I 0 W/m 7,1 C 10,6 C 4,8 km/h (1 Bft) 86,96 %
18.09.2019 01:16 10,5 C 8,3 C 79 % 1020,3 hPa 0,0 l/m 4,8 km/h (1 Bft) W-NW 292 0 min 0,000 mm 0,0 UV-I 0 W/m 7,0 C 10,5 C 9,7 km/h (2 Bft) 100,00 %
18.09.2019 01:15 10,5 C 8,3 C 79 % 1020,2 hPa 0,0 l/m 4,8 km/h (1 Bft) W 270 0 min 0,000 mm 0,0 UV-I 0 W/m 7,0 C 10,5 C 9,7 km/h (2 Bft) 95,65 %
18.09.2019 01:14 10,5 C 8,3 C 79 % 1020,3 hPa 0,0 l/m 4,8 km/h (1 Bft) W 270 0 min 0,000 mm 0,0 UV-I 0 W/m 7,0 C 10,5 C 6,4 km/h (2 Bft) 100,00 %
18.09.2019 01:13 10,5 C 8,3 C 79 % 1020,2 hPa 0,0 l/m 6,4 km/h (2 Bft) W 270 0 min 0,000 mm 0,0 UV-I 0 W/m 7,0 C 10,5 C 11,3 km/h (2 Bft) 95,65 %
18.09.2019 01:12 10,4 C 8,3 C 79 % 1020,2 hPa 0,0 l/m 4,8 km/h (1 Bft) W 270 0 min 0,000 mm 0,0 UV-I 0 W/m 6,9 C 10,4 C 6,4 km/h (2 Bft) 100,00 %
18.09.2019 01:11 10,5 C 8,3 C 79 % 1020,2 hPa 0,0 l/m 3,2 km/h (1 Bft) W 270 0 min 0,000 mm 0,0 UV-I 0 W/m 7,0 C 10,5 C 4,8 km/h (1 Bft) 100,00 %
18.09.2019 01:10 10,5 C 8,3 C 79 % 1020,1 hPa 0,0 l/m 3,2 km/h (1 Bft) W 270 0 min 0,000 mm 0,0 UV-I 0 W/m 7,0 C 10,5 C 6,4 km/h (2 Bft) 100,00 %
18.09.2019 01:09 10,5 C 8,3 C 79 % 1020,1 hPa 0,0 l/m 4,8 km/h (1 Bft) W-SW 247 0 min 0,000 mm 0,0 UV-I 0 W/m 7,0 C 10,5 C 6,4 km/h (2 Bft) 100,00 %
18.09.2019 01:08 10,5 C 8,3 C 79 % 1020,2 hPa 0,0 l/m 4,8 km/h (1 Bft) W 270 0 min 0,000 mm 0,0 UV-I 0 W/m 7,0 C 10,5 C 6,4 km/h (2 Bft) 100,00 %
18.09.2019 01:07 10,5 C 8,3 C 79 % 1020,1 hPa 0,0 l/m 3,2 km/h (1 Bft) W 270 0 min 0,000 mm 0,0 UV-I 0 W/m 7,0 C 10,5 C 4,8 km/h (1 Bft) 95,65 %
18.09.2019 01:06 10,5 C 8,3 C 79 % 1020,3 hPa 0,0 l/m 4,8 km/h (1 Bft) W 270 0 min 0,000 mm 0,0 UV-I 0 W/m 7,0 C 10,5 C 9,7 km/h (2 Bft) 100,00 %
18.09.2019 01:05 10,5 C 8,3 C 78 % 1020,2 hPa 0,0 l/m 4,8 km/h (1 Bft) W-SW 247 0 min 0,000 mm 0,0 UV-I 0 W/m 6,8 C 10,5 C 8,0 km/h (2 Bft) 100,00 %
18.09.2019 01:04 10,5 C 8,3 C 78 % 1020,2 hPa 0,0 l/m 4,8 km/h (1 Bft) W 270 0 min 0,000 mm 0,0 UV-I 0 W/m 6,8 C 10,5 C 9,7 km/h (2 Bft) 100,00 %
18.09.2019 01:03 10,5 C 8,3 C 78 % 1020,1 hPa 0,0 l/m 3,2 km/h (1 Bft) W-SW 247 0 min 0,000 mm 0,0 UV-I 0 W/m 6,8 C 10,5 C 6,4 km/h (2 Bft) 100,00 %
18.09.2019 01:02 10,5 C 8,3 C 78 % 1020,1 hPa 0,0 l/m 4,8 km/h (1 Bft) W-SW 247 0 min 0,000 mm 0,0 UV-I 0 W/m 6,8 C 10,5 C 6,4 km/h (2 Bft) 100,00 %
18.09.2019 01:01 10,6 C 8,9 C 78 % 1020,0 hPa 0,0 l/m 4,8 km/h (1 Bft) W-SW 247 0 min 0,000 mm 0,0 UV-I 0 W/m 6,9 C 10,6 C 6,4 km/h (2 Bft) 100,00 %
18.09.2019 01:00 10,5 C 8,9 C 78 % 1020,1 hPa 0,0 l/m 4,8 km/h (1 Bft) W 270 0 min 0,025 mm 0,0 UV-I 0 W/m 6,8 C 10,5 C 6,4 km/h (2 Bft) 100,00 %
18.09.2019 00:59 10,6 C 8,9 C 78 % 1020,1 hPa 0,0 l/m 4,8 km/h (1 Bft) W 270 0 min 0,000 mm 0,0 UV-I 0 W/m 6,9 C 10,6 C 9,7 km/h (2 Bft) 100,00 %
18.09.2019 00:58 10,6 C 8,9 C 78 % 1020,0 hPa 0,0 l/m 4,8 km/h (1 Bft) W-SW 247 0 min 0,000 mm 0,0 UV-I 0 W/m 6,9 C 10,6 C 14,5 km/h (3 Bft) 100,00 %
18.09.2019 00:57 10,6 C 8,9 C 78 % 1020,0 hPa 0,0 l/m 3,2 km/h (1 Bft) W 270 0 min 0,000 mm 0,0 UV-I 0 W/m 6,9 C 10,6 C 6,4 km/h (2 Bft) 95,65 %
18.09.2019 00:56 10,6 C 8,9 C 78 % 1020,0 hPa 0,0 l/m 4,8 km/h (1 Bft) W-SW 247 0 min 0,000 mm 0,0 UV-I 0 W/m 6,9 C 10,6 C 6,4 km/h (2 Bft) 100,00 %
18.09.2019 00:55 10,6 C 8,9 C 78 % 1020,0 hPa 0,0 l/m 4,8 km/h (1 Bft) W-SW 247 0 min 0,000 mm 0,0 UV-I 0 W/m 6,9 C 10,6 C 6,4 km/h (2 Bft) 95,65 %
18.09.2019 00:54 10,7 C 8,9 C 78 % 1020,0 hPa 0,0 l/m 4,8 km/h (1 Bft) W-SW 247 0 min 0,000 mm 0,0 UV-I 0 W/m 7,0 C 10,7 C 12,9 km/h (3 Bft) 100,00 %
18.09.2019 00:53 10,7 C 8,9 C 78 % 1020,0 hPa 0,0 l/m 6,4 km/h (2 Bft) W-SW 247 0 min 0,000 mm 0,0 UV-I 0 W/m 7,0 C 10,7 C 9,7 km/h (2 Bft) 95,65 %
18.09.2019 00:52 10,7 C 9,4 C 78 % 1019,9 hPa 0,0 l/m 6,4 km/h (2 Bft) W-SW 247 0 min 0,000 mm 0,0 UV-I 0 W/m 7,0 C 10,7 C 11,3 km/h (2 Bft) 100,00 %
18.09.2019 00:51 10,7 C 9,4 C 78 % 1019,9 hPa 0,0 l/m 3,2 km/h (1 Bft) W-SW 247 0 min 0,000 mm 0,0 UV-I 0 W/m 7,0 C 10,7 C 4,8 km/h (1 Bft) 100,00 %
18.09.2019 00:50 10,7 C 8,9 C 78 % 1019,9 hPa 0,0 l/m 6,4 km/h (2 Bft) W 270 0 min 0,000 mm 0,0 UV-I 0 W/m 7,0 C 10,7 C 12,9 km/h (3 Bft) 100,00 %
18.09.2019 00:49 10,7 C 8,9 C 78 % 1019,9 hPa 0,0 l/m 6,4 km/h (2 Bft) W 270 0 min 0,000 mm 0,0 UV-I 0 W/m 7,0 C 10,7 C 12,9 km/h (3 Bft) 100,00 %
18.09.2019 00:48 10,7 C 8,9 C 77 % 1019,8 hPa 0,0 l/m 6,4 km/h (2 Bft) W 270 0 min 0,000 mm 0,0 UV-I 0 W/m 6,8 C 10,7 C 11,3 km/h (2 Bft) 100,00 %
18.09.2019 00:47 10,7 C 8,9 C 77 % 1019,8 hPa 0,0 l/m 6,4 km/h (2 Bft) W 270 0 min 0,000 mm 0,0 UV-I 0 W/m 6,8 C 10,7 C 14,5 km/h (3 Bft) 100,00 %
18.09.2019 00:46 10,7 C 8,9 C 77 % 1019,8 hPa 0,0 l/m 4,8 km/h (1 Bft) W 270 0 min 0,000 mm 0,0 UV-I 0 W/m 6,8 C 10,7 C 9,7 km/h (2 Bft) 91,30 %
18.09.2019 00:45 10,8 C 9,4 C 77 % 1019,9 hPa 0,0 l/m 6,4 km/h (2 Bft) W 270 0 min 0,000 mm 0,0 UV-I 0 W/m 6,9 C 10,8 C 11,3 km/h (2 Bft) 100,00 %
18.09.2019 00:44 10,8 C 9,4 C 77 % 1019,9 hPa 0,0 l/m 4,8 km/h (1 Bft) W 270 0 min 0,000 mm 0,0 UV-I 0 W/m 6,9 C 10,8 C 9,7 km/h (2 Bft) 100,00 %
18.09.2019 00:43 10,8 C 9,4 C 77 % 1019,8 hPa 0,0 l/m 4,8 km/h (1 Bft) W-NW 292 0 min 0,000 mm 0,0 UV-I 0 W/m 6,9 C 10,8 C 11,3 km/h (2 Bft) 95,65 %
18.09.2019 00:42 10,8 C 9,4 C 77 % 1019,8 hPa 0,0 l/m 4,8 km/h (1 Bft) W-SW 247 0 min 0,000 mm 0,0 UV-I 0 W/m 6,9 C 10,8 C 8,0 km/h (2 Bft) 100,00 %
18.09.2019 00:41 10,8 C 9,4 C 77 % 1019,7 hPa 0,0 l/m 6,4 km/h (2 Bft) W 270 0 min 0,000 mm 0,0 UV-I 0 W/m 6,9 C 10,8 C 11,3 km/h (2 Bft) 100,00 %
18.09.2019 00:40 10,8 C 9,4 C 77 % 1019,8 hPa 0,0 l/m 4,8 km/h (1 Bft) W 270 0 min 0,000 mm 0,0 UV-I 0 W/m 6,9 C 10,8 C 11,3 km/h (2 Bft) 100,00 %
18.09.2019 00:39 10,8 C 9,4 C 77 % 1019,8 hPa 0,0 l/m 6,4 km/h (2 Bft) W 270 0 min 0,000 mm 0,0 UV-I 0 W/m 6,9 C 10,8 C 9,7 km/h (2 Bft) 100,00 %
18.09.2019 00:38 10,8 C 9,4 C 77 % 1019,8 hPa 0,0 l/m 6,4 km/h (2 Bft) W-SW 247 0 min 0,000 mm 0,0 UV-I 0 W/m 6,9 C 10,8 C 11,3 km/h (2 Bft) 100,00 %
18.09.2019 00:37 10,9 C 9,4 C 77 % 1019,7 hPa 0,0 l/m 4,8 km/h (1 Bft) W-SW 247 0 min 0,000 mm 0,0 UV-I 0 W/m 7,0 C 10,9 C 11,3 km/h (2 Bft) 100,00 %
18.09.2019 00:36 10,9 C 9,4 C 77 % 1019,8 hPa 0,0 l/m 4,8 km/h (1 Bft) W 270 0 min 0,000 mm 0,0 UV-I 0 W/m 7,0 C 10,9 C 9,7 km/h (2 Bft) 95,65 %
18.09.2019 00:35 10,9 C 9,4 C 77 % 1019,7 hPa 0,0 l/m 4,8 km/h (1 Bft) W 270 0 min 0,000 mm 0,0 UV-I 0 W/m 7,0 C 10,9 C 9,7 km/h (2 Bft) 100,00 %
18.09.2019 00:34 10,9 C 9,4 C 76 % 1019,7 hPa 0,0 l/m 4,8 km/h (1 Bft) W-SW 247 0 min 0,000 mm 0,0 UV-I 0 W/m 6,8 C 10,9 C 6,4 km/h (2 Bft) 95,65 %
18.09.2019 00:33 10,9 C 9,4 C 76 % 1019,7 hPa 0,0 l/m 6,4 km/h (2 Bft) W-SW 247 0 min 0,000 mm 0,0 UV-I 0 W/m 6,8 C 10,9 C 11,3 km/h (2 Bft) 95,65 %
18.09.2019 00:32 10,9 C 9,4 C 76 % 1019,7 hPa 0,0 l/m 4,8 km/h (1 Bft) W 270 0 min 0,000 mm 0,0 UV-I 0 W/m 6,8 C 10,9 C 9,7 km/h (2 Bft) 100,00 %
18.09.2019 00:31 11,0 C 9,4 C 76 % 1019,8 hPa 0,0 l/m 6,4 km/h (2 Bft) W 270 0 min 0,000 mm 0,0 UV-I 0 W/m 6,9 C 11,0 C 11,3 km/h (2 Bft) 95,65 %
18.09.2019 00:30 11,0 C 9,4 C 76 % 1019,7 hPa 0,0 l/m 6,4 km/h (2 Bft) W 270 0 min 0,000 mm 0,0 UV-I 0 W/m 6,9 C 11,0 C 12,9 km/h (3 Bft) 100,00 %
18.09.2019 00:29 11,1 C 9,4 C 76 % 1019,7 hPa 0,0 l/m 4,8 km/h (1 Bft) W 270 0 min 0,000 mm 0,0 UV-I 0 W/m 7,0 C 11,1 C 6,4 km/h (2 Bft) 95,65 %
18.09.2019 00:28 11,1 C 9,4 C 76 % 1019,8 hPa 0,0 l/m 4,8 km/h (1 Bft) W-SW 247 0 min 0,000 mm 0,0 UV-I 0 W/m 7,0 C 11,1 C 8,0 km/h (2 Bft) 100,00 %
18.09.2019 00:27 11,1 C 9,4 C 76 % 1019,7 hPa 0,0 l/m 6,4 km/h (2 Bft) W-SW 247 0 min 0,000 mm 0,0 UV-I 0 W/m 7,0 C 11,1 C 12,9 km/h (3 Bft) 95,65 %
18.09.2019 00:26 11,1 C 9,4 C 76 % 1019,7 hPa 0,0 l/m 6,4 km/h (2 Bft) W 270 0 min 0,000 mm 0,0 UV-I 0 W/m 7,0 C 11,1 C 11,3 km/h (2 Bft) 100,00 %
18.09.2019 00:25 11,1 C 9,4 C 76 % 1019,6 hPa 0,0 l/m 4,8 km/h (1 Bft) W 270 0 min 0,000 mm 0,0 UV-I 0 W/m 7,0 C 11,1 C 8,0 km/h (2 Bft) 100,00 %
18.09.2019 00:24 11,1 C 9,4 C 76 % 1019,7 hPa 0,0 l/m 6,4 km/h (2 Bft) W 270 0 min 0,000 mm 0,0 UV-I 0 W/m 7,0 C 11,1 C 11,3 km/h (2 Bft) 100,00 %
18.09.2019 00:23 11,2 C 9,4 C 76 % 1019,6 hPa 0,0 l/m 3,2 km/h (1 Bft) W 270 0 min 0,000 mm 0,0 UV-I 0 W/m 7,1 C 11,2 C 6,4 km/h (2 Bft) 100,00 %
18.09.2019 00:22 11,2 C 9,4 C 76 % 1019,7 hPa 0,0 l/m 4,8 km/h (1 Bft) W 270 0 min 0,000 mm 0,0 UV-I 0 W/m 7,1 C 11,2 C 17,7 km/h (3 Bft) 100,00 %
18.09.2019 00:21 11,2 C 9,4 C 76 % 1019,6 hPa 0,0 l/m 6,4 km/h (2 Bft) W 270 0 min 0,000 mm 0,0 UV-I 0 W/m 7,1 C 11,2 C 12,9 km/h (3 Bft) 100,00 %
18.09.2019 00:20 11,2 C 9,4 C 76 % 1019,6 hPa 0,0 l/m 8,0 km/h (2 Bft) W-SW 247 0 min 0,000 mm 0,0 UV-I 0 W/m 7,1 C 10,1 C 17,7 km/h (3 Bft) 100,00 %
18.09.2019 00:19 11,2 C 9,4 C 76 % 1019,7 hPa 0,0 l/m 6,4 km/h (2 Bft) W 270 0 min 0,000 mm 0,0 UV-I 0 W/m 7,1 C 11,2 C 11,3 km/h (2 Bft) 100,00 %
18.09.2019 00:18 11,2 C 9,4 C 76 % 1019,6 hPa 0,0 l/m 3,2 km/h (1 Bft) W 270 0 min 0,000 mm 0,0 UV-I 0 W/m 7,1 C 11,2 C 11,3 km/h (2 Bft) 100,00 %
18.09.2019 00:17 11,2 C 9,4 C 76 % 1019,6 hPa 0,0 l/m 4,8 km/h (1 Bft) W-SW 247 0 min 0,000 mm 0,0 UV-I 0 W/m 7,1 C 11,2 C 8,0 km/h (2 Bft) 100,00 %
18.09.2019 00:16 11,2 C 9,4 C 76 % 1019,5 hPa 0,0 l/m 3,2 km/h (1 Bft) W 270 0 min 0,000 mm 0,0 UV-I 0 W/m 7,1 C 11,2 C 4,8 km/h (1 Bft) 95,65 %
18.09.2019 00:15 11,2 C 9,4 C 76 % 1019,6 hPa 0,0 l/m 4,8 km/h (1 Bft) W 270 0 min 0,000 mm 0,0 UV-I 0 W/m 7,1 C 11,2 C 11,3 km/h (2 Bft) 100,00 %
18.09.2019 00:14 11,3 C 9,4 C 76 % 1019,6 hPa 0,0 l/m 6,4 km/h (2 Bft) W-NW 292 0 min 0,000 mm 0,0 UV-I 0 W/m 7,2 C 11,3 C 9,7 km/h (2 Bft) 95,65 %
18.09.2019 00:13 11,3 C 9,4 C 75 % 1019,5 hPa 0,0 l/m 4,8 km/h (1 Bft) W 270 0 min 0,000 mm 0,0 UV-I 0 W/m 7,0 C 11,3 C 11,3 km/h (2 Bft) 100,00 %
18.09.2019 00:12 11,3 C 9,4 C 75 % 1019,5 hPa 0,0 l/m 6,4 km/h (2 Bft) W-SW 247 0 min 0,000 mm 0,0 UV-I 0 W/m 7,0 C 11,3 C 12,9 km/h (3 Bft) 95,65 %
18.09.2019 00:11 11,3 C 9,4 C 75 % 1019,5 hPa 0,0 l/m 3,2 km/h (1 Bft) W-SW 247 0 min 0,000 mm 0,0 UV-I 0 W/m 7,0 C 11,3 C 6,4 km/h (2 Bft) 100,00 %
18.09.2019 00:10 11,3 C 9,4 C 75 % 1019,6 hPa 0,0 l/m 6,4 km/h (2 Bft) W-SW 247 0 min 0,000 mm 0,0 UV-I 0 W/m 7,0 C 11,3 C 11,3 km/h (2 Bft) 91,30 %
18.09.2019 00:09 11,4 C 9,4 C 75 % 1019,5 hPa 0,0 l/m 4,8 km/h (1 Bft) W 270 0 min 0,000 mm 0,0 UV-I 0 W/m 7,1 C 11,4 C 11,3 km/h (2 Bft) 95,65 %
18.09.2019 00:08 11,4 C 9,4 C 75 % 1019,5 hPa 0,0 l/m 4,8 km/h (1 Bft) W 270 0 min 0,000 mm 0,0 UV-I 0 W/m 7,1 C 11,4 C 6,4 km/h (2 Bft) 100,00 %
18.09.2019 00:07 11,4 C 10,0 C 75 % 1019,5 hPa 0,0 l/m 4,8 km/h (1 Bft) W 270 0 min 0,000 mm 0,0 UV-I 0 W/m 7,1 C 11,4 C 9,7 km/h (2 Bft) 91,30 %
18.09.2019 00:06 11,4 C 10,0 C 75 % 1019,4 hPa 0,0 l/m 6,4 km/h (2 Bft) W-SW 247 0 min 0,000 mm 0,0 UV-I 0 W/m 7,1 C 11,4 C 11,3 km/h (2 Bft) 100,00 %
18.09.2019 00:05 11,4 C 9,4 C 75 % 1019,5 hPa 0,0 l/m 6,4 km/h (2 Bft) W-SW 247 0 min 0,000 mm 0,0 UV-I 0 W/m 7,1 C 11,4 C 14,5 km/h (3 Bft) 100,00 %
18.09.2019 00:04 11,5 C 9,4 C 74 % 1019,5 hPa 0,0 l/m 8,0 km/h (2 Bft) W-SW 247 0 min 0,000 mm 0,0 UV-I 0 W/m 7,0 C 10,4 C 14,5 km/h (3 Bft) 100,00 %
18.09.2019 00:03 11,5 C 9,4 C 74 % 1019,4 hPa 0,0 l/m 6,4 km/h (2 Bft) W 270 0 min 0,000 mm 0,0 UV-I 0 W/m 7,0 C 11,5 C 12,9 km/h (3 Bft) 100,00 %
18.09.2019 00:02 11,6 C 9,4 C 74 % 1019,4 hPa 0,0 l/m 4,8 km/h (1 Bft) W 270 0 min 0,000 mm 0,0 UV-I 0 W/m 7,1 C 11,6 C 11,3 km/h (2 Bft) 100,00 %
18.09.2019 00:01 11,5 C 9,4 C 74 % 1019,4 hPa 0,0 l/m 4,8 km/h (1 Bft) W-SW 247 0 min 0,000 mm 0,0 UV-I 0 W/m 7,0 C 11,5 C 6,4 km/h (2 Bft) 100,00 %
18.09.2019 00:00 11,6 C 9,4 C 74 % 1019,4 hPa 0,0 l/m 3,2 km/h (1 Bft) W 270 0 min 0,025 mm 0,0 UV-I 0 W/m 7,1 C 11,6 C 6,4 km/h (2 Bft) 100,00 %
_ Min-Zeit 07:12 06:08 17:00 00:00 - 06:06 - - - - - - 17:00 07:12 06:44 01:17
Minimum _ 6,5 C 3,9 C 26 % 1019,4 hPa - 0,0 km/h (0 Bft) - - - - - - -4,5 C 6,5 C 0,0 km/h (0 Bft) 86,96 %
_ Max-Zeit 15:28 13:17 01:06 09:40 00:00 15:04 - - 08:11 13:00 12:35 12:53 00:14 15:28 13:09 00:00
Maximum _ 15,2 C 31,7 C 79 % 1025,1 hPa 0,0 l/m 12,9 km/h
W-NW (3 Bft)
- - 1 min 0,356 mm 4,4 UV-I 640 W/m 7,2 C 15,2 C 22,5 km/h
SW (4 Bft)
100,00 %
Durchschnitt _ 11,1 C 15,7 C 57 % 1023,1 hPa #0,0 l/m 4,2 km/h (1 Bft) W - #9:39 h #2,792 mm 2,6 UV-I 367 W/m 2,3 C 11,0 C 7,4 km/h (2 Bft) 98,46 %